<?xml version="1.0" encoding="UTF-8" standalone="no" ?>
<gpx xmlns="http://www.topografix.com/GPX/1/1" xmlns:xsi="http://www.w3.org/2001/XMLSchema-instance" xsi:schemaLocation="http://www.topografix.com/GPX/1/1 http://www.topografix.com/GPX/1/1/gpx.xsd" version="1.1" creator="VisuGPX - https://www.visugpx.com">
  <metadata>
    <name>Course à pied le midi</name>
  </metadata>
  <trk>
    <name><![CDATA[Course à pied le midi_1]]></name>
    <trkseg>
      <trkpt lat="43.64729" lon="1.37653">
        <ele>146</ele>
        <time>2023-07-02T09:15:52Z</time>
      </trkpt>
      <trkpt lat="43.6473" lon="1.37654">
        <ele>146</ele>
        <time>2023-07-02T09:15:53Z</time>
      </trkpt>
      <trkpt lat="43.64731" lon="1.37655">
        <ele>145</ele>
        <time>2023-07-02T09:15:54Z</time>
      </trkpt>
      <trkpt lat="43.64732" lon="1.37656">
        <ele>145</ele>
        <time>2023-07-02T09:15:55Z</time>
      </trkpt>
      <trkpt lat="43.64732" lon="1.37657">
        <ele>145</ele>
        <time>2023-07-02T09:15:56Z</time>
      </trkpt>
      <trkpt lat="43.64733" lon="1.37658">
        <ele>145</ele>
        <time>2023-07-02T09:15:57Z</time>
      </trkpt>
      <trkpt lat="43.64734" lon="1.37659">
        <ele>145</ele>
        <time>2023-07-02T09:15:58Z</time>
      </trkpt>
      <trkpt lat="43.64734" lon="1.3766">
        <ele>145</ele>
        <time>2023-07-02T09:15:59Z</time>
      </trkpt>
      <trkpt lat="43.64734" lon="1.3766">
        <ele>145</ele>
        <time>2023-07-02T09:16:00Z</time>
      </trkpt>
      <trkpt lat="43.64734" lon="1.3766">
        <ele>145</ele>
        <time>2023-07-02T09:16:01Z</time>
      </trkpt>
      <trkpt lat="43.64735" lon="1.37657">
        <ele>145</ele>
        <time>2023-07-02T09:16:02Z</time>
      </trkpt>
      <trkpt lat="43.64735" lon="1.37657">
        <ele>145</ele>
        <time>2023-07-02T09:16:03Z</time>
      </trkpt>
      <trkpt lat="43.64736" lon="1.37653">
        <ele>145</ele>
        <time>2023-07-02T09:16:04Z</time>
      </trkpt>
      <trkpt lat="43.64738" lon="1.3765">
        <ele>145</ele>
        <time>2023-07-02T09:16:05Z</time>
      </trkpt>
      <trkpt lat="43.64739" lon="1.37648">
        <ele>145</ele>
        <time>2023-07-02T09:16:06Z</time>
      </trkpt>
      <trkpt lat="43.64741" lon="1.37647">
        <ele>145</ele>
        <time>2023-07-02T09:16:07Z</time>
      </trkpt>
      <trkpt lat="43.64744" lon="1.37645">
        <ele>145</ele>
        <time>2023-07-02T09:16:08Z</time>
      </trkpt>
      <trkpt lat="43.64746" lon="1.37644">
        <ele>145</ele>
        <time>2023-07-02T09:16:09Z</time>
      </trkpt>
      <trkpt lat="43.64749" lon="1.3764">
        <ele>145</ele>
        <time>2023-07-02T09:16:11Z</time>
      </trkpt>
      <trkpt lat="43.6475" lon="1.37637">
        <ele>145</ele>
        <time>2023-07-02T09:16:12Z</time>
      </trkpt>
      <trkpt lat="43.64752" lon="1.37635">
        <ele>145</ele>
        <time>2023-07-02T09:16:13Z</time>
      </trkpt>
      <trkpt lat="43.64753" lon="1.37632">
        <ele>145</ele>
        <time>2023-07-02T09:16:14Z</time>
      </trkpt>
      <trkpt lat="43.64755" lon="1.3763">
        <ele>145</ele>
        <time>2023-07-02T09:16:15Z</time>
      </trkpt>
      <trkpt lat="43.64757" lon="1.37628">
        <ele>145</ele>
        <time>2023-07-02T09:16:16Z</time>
      </trkpt>
      <trkpt lat="43.64758" lon="1.37626">
        <ele>145</ele>
        <time>2023-07-02T09:16:17Z</time>
      </trkpt>
      <trkpt lat="43.6476" lon="1.37623">
        <ele>145</ele>
        <time>2023-07-02T09:16:18Z</time>
      </trkpt>
      <trkpt lat="43.64762" lon="1.37621">
        <ele>145</ele>
        <time>2023-07-02T09:16:19Z</time>
      </trkpt>
      <trkpt lat="43.64767" lon="1.37619">
        <ele>145</ele>
        <time>2023-07-02T09:16:21Z</time>
      </trkpt>
      <trkpt lat="43.64769" lon="1.37618">
        <ele>145</ele>
        <time>2023-07-02T09:16:22Z</time>
      </trkpt>
      <trkpt lat="43.64771" lon="1.37617">
        <ele>145</ele>
        <time>2023-07-02T09:16:23Z</time>
      </trkpt>
      <trkpt lat="43.64773" lon="1.37617">
        <ele>145</ele>
        <time>2023-07-02T09:16:24Z</time>
      </trkpt>
      <trkpt lat="43.64775" lon="1.37615">
        <ele>145</ele>
        <time>2023-07-02T09:16:25Z</time>
      </trkpt>
      <trkpt lat="43.64778" lon="1.37614">
        <ele>145</ele>
        <time>2023-07-02T09:16:26Z</time>
      </trkpt>
      <trkpt lat="43.6478" lon="1.37614">
        <ele>145</ele>
        <time>2023-07-02T09:16:27Z</time>
      </trkpt>
      <trkpt lat="43.64782" lon="1.37614">
        <ele>145</ele>
        <time>2023-07-02T09:16:28Z</time>
      </trkpt>
      <trkpt lat="43.64785" lon="1.37612">
        <ele>145</ele>
        <time>2023-07-02T09:16:30Z</time>
      </trkpt>
      <trkpt lat="43.6479" lon="1.37611">
        <ele>145</ele>
        <time>2023-07-02T09:16:31Z</time>
      </trkpt>
      <trkpt lat="43.64792" lon="1.3761">
        <ele>145</ele>
        <time>2023-07-02T09:16:32Z</time>
      </trkpt>
      <trkpt lat="43.64794" lon="1.3761">
        <ele>145</ele>
        <time>2023-07-02T09:16:33Z</time>
      </trkpt>
      <trkpt lat="43.64797" lon="1.37611">
        <ele>145</ele>
        <time>2023-07-02T09:16:34Z</time>
      </trkpt>
      <trkpt lat="43.64799" lon="1.37611">
        <ele>145</ele>
        <time>2023-07-02T09:16:35Z</time>
      </trkpt>
      <trkpt lat="43.64802" lon="1.37612">
        <ele>146</ele>
        <time>2023-07-02T09:16:36Z</time>
      </trkpt>
      <trkpt lat="43.64804" lon="1.37613">
        <ele>146</ele>
        <time>2023-07-02T09:16:37Z</time>
      </trkpt>
      <trkpt lat="43.64806" lon="1.37614">
        <ele>146</ele>
        <time>2023-07-02T09:16:38Z</time>
      </trkpt>
      <trkpt lat="43.64809" lon="1.37616">
        <ele>146</ele>
        <time>2023-07-02T09:16:39Z</time>
      </trkpt>
      <trkpt lat="43.64812" lon="1.37617">
        <ele>146</ele>
        <time>2023-07-02T09:16:40Z</time>
      </trkpt>
      <trkpt lat="43.64814" lon="1.37617">
        <ele>146</ele>
        <time>2023-07-02T09:16:42Z</time>
      </trkpt>
      <trkpt lat="43.64817" lon="1.37619">
        <ele>146</ele>
        <time>2023-07-02T09:16:43Z</time>
      </trkpt>
      <trkpt lat="43.64817" lon="1.37619">
        <ele>146</ele>
        <time>2023-07-02T09:16:44Z</time>
      </trkpt>
      <trkpt lat="43.64819" lon="1.37619">
        <ele>146</ele>
        <time>2023-07-02T09:16:45Z</time>
      </trkpt>
      <trkpt lat="43.64819" lon="1.37619">
        <ele>145</ele>
        <time>2023-07-02T09:16:46Z</time>
      </trkpt>
      <trkpt lat="43.64822" lon="1.37621">
        <ele>145</ele>
        <time>2023-07-02T09:16:47Z</time>
      </trkpt>
      <trkpt lat="43.64826" lon="1.37623">
        <ele>145</ele>
        <time>2023-07-02T09:16:49Z</time>
      </trkpt>
      <trkpt lat="43.64827" lon="1.37624">
        <ele>145</ele>
        <time>2023-07-02T09:16:50Z</time>
      </trkpt>
      <trkpt lat="43.64829" lon="1.37625">
        <ele>145</ele>
        <time>2023-07-02T09:16:51Z</time>
      </trkpt>
      <trkpt lat="43.64831" lon="1.37626">
        <ele>145</ele>
        <time>2023-07-02T09:16:52Z</time>
      </trkpt>
      <trkpt lat="43.64833" lon="1.37627">
        <ele>145</ele>
        <time>2023-07-02T09:16:53Z</time>
      </trkpt>
      <trkpt lat="43.64834" lon="1.37629">
        <ele>145</ele>
        <time>2023-07-02T09:16:54Z</time>
      </trkpt>
      <trkpt lat="43.64836" lon="1.3763">
        <ele>145</ele>
        <time>2023-07-02T09:16:55Z</time>
      </trkpt>
      <trkpt lat="43.64838" lon="1.37632">
        <ele>145</ele>
        <time>2023-07-02T09:16:56Z</time>
      </trkpt>
      <trkpt lat="43.6484" lon="1.37634">
        <ele>145</ele>
        <time>2023-07-02T09:16:57Z</time>
      </trkpt>
      <trkpt lat="43.64842" lon="1.37636">
        <ele>145</ele>
        <time>2023-07-02T09:16:58Z</time>
      </trkpt>
      <trkpt lat="43.64845" lon="1.37638">
        <ele>145</ele>
        <time>2023-07-02T09:16:59Z</time>
      </trkpt>
      <trkpt lat="43.64847" lon="1.3764">
        <ele>145</ele>
        <time>2023-07-02T09:17:00Z</time>
      </trkpt>
      <trkpt lat="43.6485" lon="1.37642">
        <ele>145</ele>
        <time>2023-07-02T09:17:01Z</time>
      </trkpt>
      <trkpt lat="43.64852" lon="1.37644">
        <ele>145</ele>
        <time>2023-07-02T09:17:02Z</time>
      </trkpt>
      <trkpt lat="43.64854" lon="1.37646">
        <ele>145</ele>
        <time>2023-07-02T09:17:03Z</time>
      </trkpt>
      <trkpt lat="43.64857" lon="1.37648">
        <ele>145</ele>
        <time>2023-07-02T09:17:04Z</time>
      </trkpt>
      <trkpt lat="43.64861" lon="1.37651">
        <ele>145</ele>
        <time>2023-07-02T09:17:06Z</time>
      </trkpt>
      <trkpt lat="43.64866" lon="1.37656">
        <ele>145</ele>
        <time>2023-07-02T09:17:08Z</time>
      </trkpt>
      <trkpt lat="43.64868" lon="1.37658">
        <ele>145</ele>
        <time>2023-07-02T09:17:09Z</time>
      </trkpt>
      <trkpt lat="43.64869" lon="1.3766">
        <ele>145</ele>
        <time>2023-07-02T09:17:10Z</time>
      </trkpt>
      <trkpt lat="43.64871" lon="1.37663">
        <ele>145</ele>
        <time>2023-07-02T09:17:11Z</time>
      </trkpt>
      <trkpt lat="43.64872" lon="1.37665">
        <ele>145</ele>
        <time>2023-07-02T09:17:12Z</time>
      </trkpt>
      <trkpt lat="43.64873" lon="1.37668">
        <ele>145</ele>
        <time>2023-07-02T09:17:13Z</time>
      </trkpt>
      <trkpt lat="43.64874" lon="1.37672">
        <ele>145</ele>
        <time>2023-07-02T09:17:14Z</time>
      </trkpt>
      <trkpt lat="43.64875" lon="1.37675">
        <ele>145</ele>
        <time>2023-07-02T09:17:15Z</time>
      </trkpt>
      <trkpt lat="43.64876" lon="1.37677">
        <ele>145</ele>
        <time>2023-07-02T09:17:16Z</time>
      </trkpt>
      <trkpt lat="43.64877" lon="1.3768">
        <ele>145</ele>
        <time>2023-07-02T09:17:17Z</time>
      </trkpt>
      <trkpt lat="43.64877" lon="1.37683">
        <ele>145</ele>
        <time>2023-07-02T09:17:18Z</time>
      </trkpt>
      <trkpt lat="43.64878" lon="1.37686">
        <ele>145</ele>
        <time>2023-07-02T09:17:19Z</time>
      </trkpt>
      <trkpt lat="43.64879" lon="1.37689">
        <ele>145</ele>
        <time>2023-07-02T09:17:20Z</time>
      </trkpt>
      <trkpt lat="43.64879" lon="1.37691">
        <ele>145</ele>
        <time>2023-07-02T09:17:21Z</time>
      </trkpt>
      <trkpt lat="43.6488" lon="1.37695">
        <ele>145</ele>
        <time>2023-07-02T09:17:22Z</time>
      </trkpt>
      <trkpt lat="43.64881" lon="1.37697">
        <ele>145</ele>
        <time>2023-07-02T09:17:23Z</time>
      </trkpt>
      <trkpt lat="43.64881" lon="1.377">
        <ele>145</ele>
        <time>2023-07-02T09:17:24Z</time>
      </trkpt>
      <trkpt lat="43.64882" lon="1.37703">
        <ele>145</ele>
        <time>2023-07-02T09:17:25Z</time>
      </trkpt>
      <trkpt lat="43.64883" lon="1.37708">
        <ele>145</ele>
        <time>2023-07-02T09:17:27Z</time>
      </trkpt>
      <trkpt lat="43.64883" lon="1.37711">
        <ele>145</ele>
        <time>2023-07-02T09:17:28Z</time>
      </trkpt>
      <trkpt lat="43.64884" lon="1.37714">
        <ele>145</ele>
        <time>2023-07-02T09:17:29Z</time>
      </trkpt>
      <trkpt lat="43.64885" lon="1.37717">
        <ele>145</ele>
        <time>2023-07-02T09:17:30Z</time>
      </trkpt>
      <trkpt lat="43.64885" lon="1.3772">
        <ele>145</ele>
        <time>2023-07-02T09:17:31Z</time>
      </trkpt>
      <trkpt lat="43.64885" lon="1.37723">
        <ele>145</ele>
        <time>2023-07-02T09:17:32Z</time>
      </trkpt>
      <trkpt lat="43.64886" lon="1.37726">
        <ele>145</ele>
        <time>2023-07-02T09:17:33Z</time>
      </trkpt>
      <trkpt lat="43.64886" lon="1.37729">
        <ele>145</ele>
        <time>2023-07-02T09:17:34Z</time>
      </trkpt>
      <trkpt lat="43.64887" lon="1.37733">
        <ele>145</ele>
        <time>2023-07-02T09:17:35Z</time>
      </trkpt>
      <trkpt lat="43.64887" lon="1.37736">
        <ele>145</ele>
        <time>2023-07-02T09:17:36Z</time>
      </trkpt>
      <trkpt lat="43.64888" lon="1.37739">
        <ele>145</ele>
        <time>2023-07-02T09:17:37Z</time>
      </trkpt>
      <trkpt lat="43.64889" lon="1.37742">
        <ele>145</ele>
        <time>2023-07-02T09:17:38Z</time>
      </trkpt>
      <trkpt lat="43.64889" lon="1.37744">
        <ele>145</ele>
        <time>2023-07-02T09:17:39Z</time>
      </trkpt>
      <trkpt lat="43.6489" lon="1.37747">
        <ele>145</ele>
        <time>2023-07-02T09:17:40Z</time>
      </trkpt>
      <trkpt lat="43.64891" lon="1.3775">
        <ele>145</ele>
        <time>2023-07-02T09:17:41Z</time>
      </trkpt>
      <trkpt lat="43.64891" lon="1.37753">
        <ele>145</ele>
        <time>2023-07-02T09:17:42Z</time>
      </trkpt>
      <trkpt lat="43.64892" lon="1.37756">
        <ele>145</ele>
        <time>2023-07-02T09:17:43Z</time>
      </trkpt>
      <trkpt lat="43.64893" lon="1.37759">
        <ele>145</ele>
        <time>2023-07-02T09:17:44Z</time>
      </trkpt>
      <trkpt lat="43.64894" lon="1.37762">
        <ele>145</ele>
        <time>2023-07-02T09:17:46Z</time>
      </trkpt>
      <trkpt lat="43.64896" lon="1.37767">
        <ele>145</ele>
        <time>2023-07-02T09:17:47Z</time>
      </trkpt>
      <trkpt lat="43.64898" lon="1.37773">
        <ele>145</ele>
        <time>2023-07-02T09:17:49Z</time>
      </trkpt>
      <trkpt lat="43.64898" lon="1.37777">
        <ele>145</ele>
        <time>2023-07-02T09:17:50Z</time>
      </trkpt>
      <trkpt lat="43.64899" lon="1.3778">
        <ele>145</ele>
        <time>2023-07-02T09:17:51Z</time>
      </trkpt>
      <trkpt lat="43.649" lon="1.37783">
        <ele>145</ele>
        <time>2023-07-02T09:17:52Z</time>
      </trkpt>
      <trkpt lat="43.649" lon="1.37785">
        <ele>145</ele>
        <time>2023-07-02T09:17:53Z</time>
      </trkpt>
      <trkpt lat="43.64901" lon="1.37788">
        <ele>145</ele>
        <time>2023-07-02T09:17:54Z</time>
      </trkpt>
      <trkpt lat="43.64901" lon="1.37791">
        <ele>145</ele>
        <time>2023-07-02T09:17:55Z</time>
      </trkpt>
      <trkpt lat="43.64902" lon="1.37794">
        <ele>145</ele>
        <time>2023-07-02T09:17:56Z</time>
      </trkpt>
      <trkpt lat="43.64902" lon="1.37797">
        <ele>145</ele>
        <time>2023-07-02T09:17:57Z</time>
      </trkpt>
      <trkpt lat="43.64903" lon="1.378">
        <ele>145</ele>
        <time>2023-07-02T09:17:58Z</time>
      </trkpt>
      <trkpt lat="43.64904" lon="1.37803">
        <ele>145</ele>
        <time>2023-07-02T09:17:59Z</time>
      </trkpt>
      <trkpt lat="43.64905" lon="1.37806">
        <ele>145</ele>
        <time>2023-07-02T09:18:00Z</time>
      </trkpt>
      <trkpt lat="43.64906" lon="1.37809">
        <ele>144</ele>
        <time>2023-07-02T09:18:01Z</time>
      </trkpt>
      <trkpt lat="43.64906" lon="1.37811">
        <ele>144</ele>
        <time>2023-07-02T09:18:02Z</time>
      </trkpt>
      <trkpt lat="43.64907" lon="1.37814">
        <ele>144</ele>
        <time>2023-07-02T09:18:03Z</time>
      </trkpt>
      <trkpt lat="43.64909" lon="1.37819">
        <ele>144</ele>
        <time>2023-07-02T09:18:05Z</time>
      </trkpt>
      <trkpt lat="43.64911" lon="1.37821">
        <ele>145</ele>
        <time>2023-07-02T09:18:06Z</time>
      </trkpt>
      <trkpt lat="43.64912" lon="1.37822">
        <ele>145</ele>
        <time>2023-07-02T09:18:07Z</time>
      </trkpt>
      <trkpt lat="43.64914" lon="1.37823">
        <ele>145</ele>
        <time>2023-07-02T09:18:08Z</time>
      </trkpt>
      <trkpt lat="43.64916" lon="1.37825">
        <ele>144</ele>
        <time>2023-07-02T09:18:09Z</time>
      </trkpt>
      <trkpt lat="43.64917" lon="1.37826">
        <ele>144</ele>
        <time>2023-07-02T09:18:10Z</time>
      </trkpt>
      <trkpt lat="43.6492" lon="1.37831">
        <ele>144</ele>
        <time>2023-07-02T09:18:12Z</time>
      </trkpt>
      <trkpt lat="43.64921" lon="1.37834">
        <ele>144</ele>
        <time>2023-07-02T09:18:13Z</time>
      </trkpt>
      <trkpt lat="43.64922" lon="1.37836">
        <ele>144</ele>
        <time>2023-07-02T09:18:14Z</time>
      </trkpt>
      <trkpt lat="43.64923" lon="1.37839">
        <ele>144</ele>
        <time>2023-07-02T09:18:15Z</time>
      </trkpt>
      <trkpt lat="43.64924" lon="1.37841">
        <ele>143</ele>
        <time>2023-07-02T09:18:16Z</time>
      </trkpt>
      <trkpt lat="43.64925" lon="1.37843">
        <ele>143</ele>
        <time>2023-07-02T09:18:17Z</time>
      </trkpt>
      <trkpt lat="43.64925" lon="1.37846">
        <ele>143</ele>
        <time>2023-07-02T09:18:18Z</time>
      </trkpt>
      <trkpt lat="43.64925" lon="1.37846">
        <ele>143</ele>
        <time>2023-07-02T09:18:19Z</time>
      </trkpt>
      <trkpt lat="43.64925" lon="1.37846">
        <ele>144</ele>
        <time>2023-07-02T09:18:20Z</time>
      </trkpt>
      <trkpt lat="43.64925" lon="1.37846">
        <ele>144</ele>
        <time>2023-07-02T09:18:21Z</time>
      </trkpt>
      <trkpt lat="43.64929" lon="1.37858">
        <ele>144</ele>
        <time>2023-07-02T09:18:22Z</time>
      </trkpt>
      <trkpt lat="43.6493" lon="1.37864">
        <ele>144</ele>
        <time>2023-07-02T09:18:24Z</time>
      </trkpt>
      <trkpt lat="43.6493" lon="1.37867">
        <ele>144</ele>
        <time>2023-07-02T09:18:25Z</time>
      </trkpt>
      <trkpt lat="43.64931" lon="1.3787">
        <ele>144</ele>
        <time>2023-07-02T09:18:26Z</time>
      </trkpt>
      <trkpt lat="43.64932" lon="1.37872">
        <ele>144</ele>
        <time>2023-07-02T09:18:27Z</time>
      </trkpt>
      <trkpt lat="43.64933" lon="1.37875">
        <ele>144</ele>
        <time>2023-07-02T09:18:28Z</time>
      </trkpt>
      <trkpt lat="43.64934" lon="1.37878">
        <ele>144</ele>
        <time>2023-07-02T09:18:29Z</time>
      </trkpt>
      <trkpt lat="43.64934" lon="1.37878">
        <ele>144</ele>
        <time>2023-07-02T09:18:30Z</time>
      </trkpt>
      <trkpt lat="43.64936" lon="1.3788">
        <ele>144</ele>
        <time>2023-07-02T09:18:31Z</time>
      </trkpt>
      <trkpt lat="43.64938" lon="1.37882">
        <ele>144</ele>
        <time>2023-07-02T09:18:32Z</time>
      </trkpt>
      <trkpt lat="43.6494" lon="1.37883">
        <ele>144</ele>
        <time>2023-07-02T09:18:33Z</time>
      </trkpt>
      <trkpt lat="43.64941" lon="1.37886">
        <ele>144</ele>
        <time>2023-07-02T09:18:34Z</time>
      </trkpt>
      <trkpt lat="43.64943" lon="1.37893">
        <ele>144</ele>
        <time>2023-07-02T09:18:36Z</time>
      </trkpt>
      <trkpt lat="43.64944" lon="1.37896">
        <ele>144</ele>
        <time>2023-07-02T09:18:37Z</time>
      </trkpt>
      <trkpt lat="43.64944" lon="1.379">
        <ele>143</ele>
        <time>2023-07-02T09:18:38Z</time>
      </trkpt>
      <trkpt lat="43.64945" lon="1.37902">
        <ele>143</ele>
        <time>2023-07-02T09:18:39Z</time>
      </trkpt>
      <trkpt lat="43.64946" lon="1.37905">
        <ele>143</ele>
        <time>2023-07-02T09:18:40Z</time>
      </trkpt>
      <trkpt lat="43.64947" lon="1.37908">
        <ele>144</ele>
        <time>2023-07-02T09:18:41Z</time>
      </trkpt>
      <trkpt lat="43.64948" lon="1.37914">
        <ele>144</ele>
        <time>2023-07-02T09:18:43Z</time>
      </trkpt>
      <trkpt lat="43.64949" lon="1.37917">
        <ele>144</ele>
        <time>2023-07-02T09:18:44Z</time>
      </trkpt>
      <trkpt lat="43.6495" lon="1.3792">
        <ele>144</ele>
        <time>2023-07-02T09:18:45Z</time>
      </trkpt>
      <trkpt lat="43.6495" lon="1.37923">
        <ele>144</ele>
        <time>2023-07-02T09:18:46Z</time>
      </trkpt>
      <trkpt lat="43.64951" lon="1.37926">
        <ele>143</ele>
        <time>2023-07-02T09:18:47Z</time>
      </trkpt>
      <trkpt lat="43.64952" lon="1.37929">
        <ele>144</ele>
        <time>2023-07-02T09:18:48Z</time>
      </trkpt>
      <trkpt lat="43.64954" lon="1.37931">
        <ele>144</ele>
        <time>2023-07-02T09:18:49Z</time>
      </trkpt>
      <trkpt lat="43.64955" lon="1.37934">
        <ele>144</ele>
        <time>2023-07-02T09:18:50Z</time>
      </trkpt>
      <trkpt lat="43.64957" lon="1.37936">
        <ele>144</ele>
        <time>2023-07-02T09:18:51Z</time>
      </trkpt>
      <trkpt lat="43.64957" lon="1.37936">
        <ele>144</ele>
        <time>2023-07-02T09:18:52Z</time>
      </trkpt>
      <trkpt lat="43.6496" lon="1.37942">
        <ele>144</ele>
        <time>2023-07-02T09:18:53Z</time>
      </trkpt>
      <trkpt lat="43.64961" lon="1.37943">
        <ele>143</ele>
        <time>2023-07-02T09:18:54Z</time>
      </trkpt>
      <trkpt lat="43.64963" lon="1.37945">
        <ele>143</ele>
        <time>2023-07-02T09:18:55Z</time>
      </trkpt>
      <trkpt lat="43.64966" lon="1.3795">
        <ele>143</ele>
        <time>2023-07-02T09:18:57Z</time>
      </trkpt>
      <trkpt lat="43.64966" lon="1.3795">
        <ele>143</ele>
        <time>2023-07-02T09:18:58Z</time>
      </trkpt>
      <trkpt lat="43.64968" lon="1.37954">
        <ele>143</ele>
        <time>2023-07-02T09:18:59Z</time>
      </trkpt>
      <trkpt lat="43.64969" lon="1.37957">
        <ele>143</ele>
        <time>2023-07-02T09:19:00Z</time>
      </trkpt>
      <trkpt lat="43.64971" lon="1.37961">
        <ele>142</ele>
        <time>2023-07-02T09:19:02Z</time>
      </trkpt>
      <trkpt lat="43.64973" lon="1.37964">
        <ele>142</ele>
        <time>2023-07-02T09:19:03Z</time>
      </trkpt>
      <trkpt lat="43.64974" lon="1.37966">
        <ele>142</ele>
        <time>2023-07-02T09:19:04Z</time>
      </trkpt>
      <trkpt lat="43.64976" lon="1.37969">
        <ele>142</ele>
        <time>2023-07-02T09:19:05Z</time>
      </trkpt>
      <trkpt lat="43.64977" lon="1.37971">
        <ele>142</ele>
        <time>2023-07-02T09:19:06Z</time>
      </trkpt>
      <trkpt lat="43.64979" lon="1.37974">
        <ele>142</ele>
        <time>2023-07-02T09:19:07Z</time>
      </trkpt>
      <trkpt lat="43.6498" lon="1.37976">
        <ele>142</ele>
        <time>2023-07-02T09:19:08Z</time>
      </trkpt>
      <trkpt lat="43.64981" lon="1.37979">
        <ele>142</ele>
        <time>2023-07-02T09:19:09Z</time>
      </trkpt>
      <trkpt lat="43.64982" lon="1.37981">
        <ele>142</ele>
        <time>2023-07-02T09:19:10Z</time>
      </trkpt>
      <trkpt lat="43.64984" lon="1.37984">
        <ele>142</ele>
        <time>2023-07-02T09:19:11Z</time>
      </trkpt>
      <trkpt lat="43.64985" lon="1.37986">
        <ele>142</ele>
        <time>2023-07-02T09:19:12Z</time>
      </trkpt>
      <trkpt lat="43.64986" lon="1.37989">
        <ele>142</ele>
        <time>2023-07-02T09:19:13Z</time>
      </trkpt>
      <trkpt lat="43.64988" lon="1.37991">
        <ele>142</ele>
        <time>2023-07-02T09:19:14Z</time>
      </trkpt>
      <trkpt lat="43.6499" lon="1.37994">
        <ele>142</ele>
        <time>2023-07-02T09:19:15Z</time>
      </trkpt>
      <trkpt lat="43.64991" lon="1.37996">
        <ele>142</ele>
        <time>2023-07-02T09:19:16Z</time>
      </trkpt>
      <trkpt lat="43.64993" lon="1.37998">
        <ele>142</ele>
        <time>2023-07-02T09:19:17Z</time>
      </trkpt>
      <trkpt lat="43.64994" lon="1.38001">
        <ele>142</ele>
        <time>2023-07-02T09:19:18Z</time>
      </trkpt>
      <trkpt lat="43.64998" lon="1.38005">
        <ele>142</ele>
        <time>2023-07-02T09:19:20Z</time>
      </trkpt>
      <trkpt lat="43.65" lon="1.38007">
        <ele>142</ele>
        <time>2023-07-02T09:19:21Z</time>
      </trkpt>
      <trkpt lat="43.65002" lon="1.38009">
        <ele>142</ele>
        <time>2023-07-02T09:19:22Z</time>
      </trkpt>
      <trkpt lat="43.65003" lon="1.38012">
        <ele>142</ele>
        <time>2023-07-02T09:19:23Z</time>
      </trkpt>
      <trkpt lat="43.65005" lon="1.38014">
        <ele>142</ele>
        <time>2023-07-02T09:19:24Z</time>
      </trkpt>
      <trkpt lat="43.65007" lon="1.38016">
        <ele>142</ele>
        <time>2023-07-02T09:19:25Z</time>
      </trkpt>
      <trkpt lat="43.65009" lon="1.38018">
        <ele>142</ele>
        <time>2023-07-02T09:19:26Z</time>
      </trkpt>
      <trkpt lat="43.6501" lon="1.38021">
        <ele>142</ele>
        <time>2023-07-02T09:19:27Z</time>
      </trkpt>
      <trkpt lat="43.65012" lon="1.38023">
        <ele>142</ele>
        <time>2023-07-02T09:19:28Z</time>
      </trkpt>
      <trkpt lat="43.65013" lon="1.38026">
        <ele>142</ele>
        <time>2023-07-02T09:19:29Z</time>
      </trkpt>
      <trkpt lat="43.65014" lon="1.38028">
        <ele>142</ele>
        <time>2023-07-02T09:19:30Z</time>
      </trkpt>
      <trkpt lat="43.65014" lon="1.38028">
        <ele>142</ele>
        <time>2023-07-02T09:19:31Z</time>
      </trkpt>
      <trkpt lat="43.65017" lon="1.38033">
        <ele>142</ele>
        <time>2023-07-02T09:19:32Z</time>
      </trkpt>
      <trkpt lat="43.65018" lon="1.38034">
        <ele>142</ele>
        <time>2023-07-02T09:19:33Z</time>
      </trkpt>
      <trkpt lat="43.6502" lon="1.38036">
        <ele>142</ele>
        <time>2023-07-02T09:19:34Z</time>
      </trkpt>
      <trkpt lat="43.65021" lon="1.38039">
        <ele>142</ele>
        <time>2023-07-02T09:19:35Z</time>
      </trkpt>
      <trkpt lat="43.65022" lon="1.38041">
        <ele>142</ele>
        <time>2023-07-02T09:19:36Z</time>
      </trkpt>
      <trkpt lat="43.65023" lon="1.38044">
        <ele>142</ele>
        <time>2023-07-02T09:19:37Z</time>
      </trkpt>
      <trkpt lat="43.65025" lon="1.38046">
        <ele>142</ele>
        <time>2023-07-02T09:19:38Z</time>
      </trkpt>
      <trkpt lat="43.65028" lon="1.38051">
        <ele>142</ele>
        <time>2023-07-02T09:19:40Z</time>
      </trkpt>
      <trkpt lat="43.65031" lon="1.38056">
        <ele>142</ele>
        <time>2023-07-02T09:19:42Z</time>
      </trkpt>
      <trkpt lat="43.65032" lon="1.38059">
        <ele>142</ele>
        <time>2023-07-02T09:19:43Z</time>
      </trkpt>
      <trkpt lat="43.65034" lon="1.38061">
        <ele>142</ele>
        <time>2023-07-02T09:19:44Z</time>
      </trkpt>
      <trkpt lat="43.65035" lon="1.38064">
        <ele>142</ele>
        <time>2023-07-02T09:19:45Z</time>
      </trkpt>
      <trkpt lat="43.65036" lon="1.38067">
        <ele>142</ele>
        <time>2023-07-02T09:19:46Z</time>
      </trkpt>
      <trkpt lat="43.65037" lon="1.3807">
        <ele>142</ele>
        <time>2023-07-02T09:19:47Z</time>
      </trkpt>
      <trkpt lat="43.65038" lon="1.38073">
        <ele>142</ele>
        <time>2023-07-02T09:19:48Z</time>
      </trkpt>
      <trkpt lat="43.6504" lon="1.38075">
        <ele>142</ele>
        <time>2023-07-02T09:19:49Z</time>
      </trkpt>
      <trkpt lat="43.65041" lon="1.38078">
        <ele>142</ele>
        <time>2023-07-02T09:19:50Z</time>
      </trkpt>
      <trkpt lat="43.65042" lon="1.38081">
        <ele>142</ele>
        <time>2023-07-02T09:19:51Z</time>
      </trkpt>
      <trkpt lat="43.65044" lon="1.38084">
        <ele>142</ele>
        <time>2023-07-02T09:19:52Z</time>
      </trkpt>
      <trkpt lat="43.65045" lon="1.38087">
        <ele>142</ele>
        <time>2023-07-02T09:19:53Z</time>
      </trkpt>
      <trkpt lat="43.65046" lon="1.3809">
        <ele>142</ele>
        <time>2023-07-02T09:19:54Z</time>
      </trkpt>
      <trkpt lat="43.65047" lon="1.38093">
        <ele>142</ele>
        <time>2023-07-02T09:19:55Z</time>
      </trkpt>
      <trkpt lat="43.65049" lon="1.38096">
        <ele>142</ele>
        <time>2023-07-02T09:19:56Z</time>
      </trkpt>
      <trkpt lat="43.65051" lon="1.38098">
        <ele>142</ele>
        <time>2023-07-02T09:19:57Z</time>
      </trkpt>
      <trkpt lat="43.65052" lon="1.38103">
        <ele>142</ele>
        <time>2023-07-02T09:19:59Z</time>
      </trkpt>
      <trkpt lat="43.65053" lon="1.38106">
        <ele>142</ele>
        <time>2023-07-02T09:20:00Z</time>
      </trkpt>
      <trkpt lat="43.65054" lon="1.3811">
        <ele>142</ele>
        <time>2023-07-02T09:20:01Z</time>
      </trkpt>
      <trkpt lat="43.65056" lon="1.38116">
        <ele>142</ele>
        <time>2023-07-02T09:20:03Z</time>
      </trkpt>
      <trkpt lat="43.65057" lon="1.38118">
        <ele>142</ele>
        <time>2023-07-02T09:20:04Z</time>
      </trkpt>
      <trkpt lat="43.65058" lon="1.3812">
        <ele>142</ele>
        <time>2023-07-02T09:20:05Z</time>
      </trkpt>
      <trkpt lat="43.65058" lon="1.3812">
        <ele>143</ele>
        <time>2023-07-02T09:20:06Z</time>
      </trkpt>
      <trkpt lat="43.65059" lon="1.38124">
        <ele>143</ele>
        <time>2023-07-02T09:20:07Z</time>
      </trkpt>
      <trkpt lat="43.65059" lon="1.38127">
        <ele>143</ele>
        <time>2023-07-02T09:20:08Z</time>
      </trkpt>
      <trkpt lat="43.6506" lon="1.38129">
        <ele>143</ele>
        <time>2023-07-02T09:20:09Z</time>
      </trkpt>
      <trkpt lat="43.65062" lon="1.38132">
        <ele>143</ele>
        <time>2023-07-02T09:20:10Z</time>
      </trkpt>
      <trkpt lat="43.65063" lon="1.38134">
        <ele>143</ele>
        <time>2023-07-02T09:20:11Z</time>
      </trkpt>
      <trkpt lat="43.65066" lon="1.38135">
        <ele>143</ele>
        <time>2023-07-02T09:20:12Z</time>
      </trkpt>
      <trkpt lat="43.65069" lon="1.38134">
        <ele>143</ele>
        <time>2023-07-02T09:20:13Z</time>
      </trkpt>
      <trkpt lat="43.65071" lon="1.38133">
        <ele>143</ele>
        <time>2023-07-02T09:20:14Z</time>
      </trkpt>
      <trkpt lat="43.65074" lon="1.38132">
        <ele>143</ele>
        <time>2023-07-02T09:20:15Z</time>
      </trkpt>
      <trkpt lat="43.65076" lon="1.38131">
        <ele>143</ele>
        <time>2023-07-02T09:20:16Z</time>
      </trkpt>
      <trkpt lat="43.6508" lon="1.38128">
        <ele>143</ele>
        <time>2023-07-02T09:20:18Z</time>
      </trkpt>
      <trkpt lat="43.65082" lon="1.38126">
        <ele>144</ele>
        <time>2023-07-02T09:20:19Z</time>
      </trkpt>
      <trkpt lat="43.65085" lon="1.38124">
        <ele>144</ele>
        <time>2023-07-02T09:20:20Z</time>
      </trkpt>
      <trkpt lat="43.65087" lon="1.38122">
        <ele>143</ele>
        <time>2023-07-02T09:20:21Z</time>
      </trkpt>
      <trkpt lat="43.65089" lon="1.38121">
        <ele>143</ele>
        <time>2023-07-02T09:20:22Z</time>
      </trkpt>
      <trkpt lat="43.65094" lon="1.38117">
        <ele>143</ele>
        <time>2023-07-02T09:20:24Z</time>
      </trkpt>
      <trkpt lat="43.65096" lon="1.38116">
        <ele>143</ele>
        <time>2023-07-02T09:20:25Z</time>
      </trkpt>
      <trkpt lat="43.65098" lon="1.38114">
        <ele>144</ele>
        <time>2023-07-02T09:20:26Z</time>
      </trkpt>
      <trkpt lat="43.651" lon="1.38112">
        <ele>144</ele>
        <time>2023-07-02T09:20:27Z</time>
      </trkpt>
      <trkpt lat="43.65103" lon="1.3811">
        <ele>144</ele>
        <time>2023-07-02T09:20:28Z</time>
      </trkpt>
      <trkpt lat="43.65105" lon="1.38109">
        <ele>144</ele>
        <time>2023-07-02T09:20:29Z</time>
      </trkpt>
      <trkpt lat="43.65107" lon="1.38107">
        <ele>144</ele>
        <time>2023-07-02T09:20:30Z</time>
      </trkpt>
      <trkpt lat="43.65109" lon="1.38106">
        <ele>144</ele>
        <time>2023-07-02T09:20:31Z</time>
      </trkpt>
      <trkpt lat="43.65112" lon="1.38105">
        <ele>144</ele>
        <time>2023-07-02T09:20:32Z</time>
      </trkpt>
      <trkpt lat="43.65114" lon="1.38103">
        <ele>144</ele>
        <time>2023-07-02T09:20:33Z</time>
      </trkpt>
      <trkpt lat="43.65116" lon="1.38101">
        <ele>144</ele>
        <time>2023-07-02T09:20:34Z</time>
      </trkpt>
      <trkpt lat="43.65118" lon="1.381">
        <ele>144</ele>
        <time>2023-07-02T09:20:35Z</time>
      </trkpt>
      <trkpt lat="43.6512" lon="1.38098">
        <ele>144</ele>
        <time>2023-07-02T09:20:37Z</time>
      </trkpt>
      <trkpt lat="43.65125" lon="1.38095">
        <ele>144</ele>
        <time>2023-07-02T09:20:38Z</time>
      </trkpt>
      <trkpt lat="43.65127" lon="1.38093">
        <ele>144</ele>
        <time>2023-07-02T09:20:39Z</time>
      </trkpt>
      <trkpt lat="43.65129" lon="1.38092">
        <ele>144</ele>
        <time>2023-07-02T09:20:40Z</time>
      </trkpt>
      <trkpt lat="43.65131" lon="1.3809">
        <ele>144</ele>
        <time>2023-07-02T09:20:41Z</time>
      </trkpt>
      <trkpt lat="43.65133" lon="1.38089">
        <ele>144</ele>
        <time>2023-07-02T09:20:42Z</time>
      </trkpt>
      <trkpt lat="43.65135" lon="1.38088">
        <ele>144</ele>
        <time>2023-07-02T09:20:43Z</time>
      </trkpt>
      <trkpt lat="43.6514" lon="1.38084">
        <ele>144</ele>
        <time>2023-07-02T09:20:45Z</time>
      </trkpt>
      <trkpt lat="43.65142" lon="1.38083">
        <ele>144</ele>
        <time>2023-07-02T09:20:46Z</time>
      </trkpt>
      <trkpt lat="43.65144" lon="1.38082">
        <ele>144</ele>
        <time>2023-07-02T09:20:47Z</time>
      </trkpt>
      <trkpt lat="43.65146" lon="1.3808">
        <ele>144</ele>
        <time>2023-07-02T09:20:48Z</time>
      </trkpt>
      <trkpt lat="43.65149" lon="1.38079">
        <ele>144</ele>
        <time>2023-07-02T09:20:49Z</time>
      </trkpt>
      <trkpt lat="43.65151" lon="1.38077">
        <ele>144</ele>
        <time>2023-07-02T09:20:50Z</time>
      </trkpt>
      <trkpt lat="43.65153" lon="1.38076">
        <ele>144</ele>
        <time>2023-07-02T09:20:51Z</time>
      </trkpt>
      <trkpt lat="43.65155" lon="1.38075">
        <ele>144</ele>
        <time>2023-07-02T09:20:52Z</time>
      </trkpt>
      <trkpt lat="43.65158" lon="1.38074">
        <ele>144</ele>
        <time>2023-07-02T09:20:53Z</time>
      </trkpt>
      <trkpt lat="43.6516" lon="1.38072">
        <ele>144</ele>
        <time>2023-07-02T09:20:54Z</time>
      </trkpt>
      <trkpt lat="43.65165" lon="1.38069">
        <ele>144</ele>
        <time>2023-07-02T09:20:56Z</time>
      </trkpt>
      <trkpt lat="43.65167" lon="1.38068">
        <ele>144</ele>
        <time>2023-07-02T09:20:57Z</time>
      </trkpt>
      <trkpt lat="43.65169" lon="1.38066">
        <ele>144</ele>
        <time>2023-07-02T09:20:58Z</time>
      </trkpt>
      <trkpt lat="43.65171" lon="1.38064">
        <ele>144</ele>
        <time>2023-07-02T09:20:59Z</time>
      </trkpt>
      <trkpt lat="43.65173" lon="1.38063">
        <ele>144</ele>
        <time>2023-07-02T09:21:00Z</time>
      </trkpt>
      <trkpt lat="43.65175" lon="1.38061">
        <ele>144</ele>
        <time>2023-07-02T09:21:01Z</time>
      </trkpt>
      <trkpt lat="43.65177" lon="1.3806">
        <ele>145</ele>
        <time>2023-07-02T09:21:02Z</time>
      </trkpt>
      <trkpt lat="43.65179" lon="1.38059">
        <ele>145</ele>
        <time>2023-07-02T09:21:03Z</time>
      </trkpt>
      <trkpt lat="43.65183" lon="1.38056">
        <ele>145</ele>
        <time>2023-07-02T09:21:05Z</time>
      </trkpt>
      <trkpt lat="43.65185" lon="1.38055">
        <ele>145</ele>
        <time>2023-07-02T09:21:06Z</time>
      </trkpt>
      <trkpt lat="43.65187" lon="1.38054">
        <ele>145</ele>
        <time>2023-07-02T09:21:07Z</time>
      </trkpt>
      <trkpt lat="43.65189" lon="1.38052">
        <ele>145</ele>
        <time>2023-07-02T09:21:08Z</time>
      </trkpt>
      <trkpt lat="43.65191" lon="1.38051">
        <ele>145</ele>
        <time>2023-07-02T09:21:09Z</time>
      </trkpt>
      <trkpt lat="43.65193" lon="1.3805">
        <ele>145</ele>
        <time>2023-07-02T09:21:10Z</time>
      </trkpt>
      <trkpt lat="43.65195" lon="1.38048">
        <ele>145</ele>
        <time>2023-07-02T09:21:11Z</time>
      </trkpt>
      <trkpt lat="43.65197" lon="1.38047">
        <ele>145</ele>
        <time>2023-07-02T09:21:12Z</time>
      </trkpt>
      <trkpt lat="43.652" lon="1.38045">
        <ele>145</ele>
        <time>2023-07-02T09:21:13Z</time>
      </trkpt>
      <trkpt lat="43.65204" lon="1.38043">
        <ele>145</ele>
        <time>2023-07-02T09:21:15Z</time>
      </trkpt>
      <trkpt lat="43.65206" lon="1.38041">
        <ele>145</ele>
        <time>2023-07-02T09:21:16Z</time>
      </trkpt>
      <trkpt lat="43.65208" lon="1.3804">
        <ele>145</ele>
        <time>2023-07-02T09:21:17Z</time>
      </trkpt>
      <trkpt lat="43.65211" lon="1.38039">
        <ele>145</ele>
        <time>2023-07-02T09:21:18Z</time>
      </trkpt>
      <trkpt lat="43.65213" lon="1.38039">
        <ele>145</ele>
        <time>2023-07-02T09:21:19Z</time>
      </trkpt>
      <trkpt lat="43.65215" lon="1.3804">
        <ele>145</ele>
        <time>2023-07-02T09:21:20Z</time>
      </trkpt>
      <trkpt lat="43.65217" lon="1.38043">
        <ele>145</ele>
        <time>2023-07-02T09:21:21Z</time>
      </trkpt>
      <trkpt lat="43.65218" lon="1.38046">
        <ele>145</ele>
        <time>2023-07-02T09:21:22Z</time>
      </trkpt>
      <trkpt lat="43.65219" lon="1.38049">
        <ele>145</ele>
        <time>2023-07-02T09:21:23Z</time>
      </trkpt>
      <trkpt lat="43.6522" lon="1.38053">
        <ele>145</ele>
        <time>2023-07-02T09:21:24Z</time>
      </trkpt>
      <trkpt lat="43.65223" lon="1.38061">
        <ele>145</ele>
        <time>2023-07-02T09:21:26Z</time>
      </trkpt>
      <trkpt lat="43.65223" lon="1.38063">
        <ele>145</ele>
        <time>2023-07-02T09:21:27Z</time>
      </trkpt>
      <trkpt lat="43.65224" lon="1.38066">
        <ele>145</ele>
        <time>2023-07-02T09:21:28Z</time>
      </trkpt>
      <trkpt lat="43.65224" lon="1.38066">
        <ele>145</ele>
        <time>2023-07-02T09:21:29Z</time>
      </trkpt>
      <trkpt lat="43.65226" lon="1.38072">
        <ele>144</ele>
        <time>2023-07-02T09:21:30Z</time>
      </trkpt>
      <trkpt lat="43.65227" lon="1.38075">
        <ele>144</ele>
        <time>2023-07-02T09:21:31Z</time>
      </trkpt>
      <trkpt lat="43.65229" lon="1.38078">
        <ele>144</ele>
        <time>2023-07-02T09:21:32Z</time>
      </trkpt>
      <trkpt lat="43.6523" lon="1.38081">
        <ele>145</ele>
        <time>2023-07-02T09:21:34Z</time>
      </trkpt>
      <trkpt lat="43.65231" lon="1.38087">
        <ele>145</ele>
        <time>2023-07-02T09:21:35Z</time>
      </trkpt>
      <trkpt lat="43.65232" lon="1.3809">
        <ele>145</ele>
        <time>2023-07-02T09:21:36Z</time>
      </trkpt>
      <trkpt lat="43.65233" lon="1.38093">
        <ele>145</ele>
        <time>2023-07-02T09:21:37Z</time>
      </trkpt>
      <trkpt lat="43.65234" lon="1.38096">
        <ele>145</ele>
        <time>2023-07-02T09:21:38Z</time>
      </trkpt>
      <trkpt lat="43.65235" lon="1.38099">
        <ele>144</ele>
        <time>2023-07-02T09:21:39Z</time>
      </trkpt>
      <trkpt lat="43.65236" lon="1.38102">
        <ele>144</ele>
        <time>2023-07-02T09:21:40Z</time>
      </trkpt>
      <trkpt lat="43.65237" lon="1.38106">
        <ele>144</ele>
        <time>2023-07-02T09:21:41Z</time>
      </trkpt>
      <trkpt lat="43.65239" lon="1.38109">
        <ele>144</ele>
        <time>2023-07-02T09:21:42Z</time>
      </trkpt>
      <trkpt lat="43.6524" lon="1.38112">
        <ele>144</ele>
        <time>2023-07-02T09:21:43Z</time>
      </trkpt>
      <trkpt lat="43.65241" lon="1.38115">
        <ele>144</ele>
        <time>2023-07-02T09:21:44Z</time>
      </trkpt>
      <trkpt lat="43.65243" lon="1.38121">
        <ele>144</ele>
        <time>2023-07-02T09:21:46Z</time>
      </trkpt>
      <trkpt lat="43.65244" lon="1.38125">
        <ele>144</ele>
        <time>2023-07-02T09:21:47Z</time>
      </trkpt>
      <trkpt lat="43.65242" lon="1.38128">
        <ele>144</ele>
        <time>2023-07-02T09:21:48Z</time>
      </trkpt>
      <trkpt lat="43.65241" lon="1.38131">
        <ele>144</ele>
        <time>2023-07-02T09:21:49Z</time>
      </trkpt>
      <trkpt lat="43.65239" lon="1.38134">
        <ele>144</ele>
        <time>2023-07-02T09:21:50Z</time>
      </trkpt>
      <trkpt lat="43.65237" lon="1.38136">
        <ele>144</ele>
        <time>2023-07-02T09:21:51Z</time>
      </trkpt>
      <trkpt lat="43.65232" lon="1.38139">
        <ele>144</ele>
        <time>2023-07-02T09:21:53Z</time>
      </trkpt>
      <trkpt lat="43.6523" lon="1.3814">
        <ele>144</ele>
        <time>2023-07-02T09:21:54Z</time>
      </trkpt>
      <trkpt lat="43.65228" lon="1.38141">
        <ele>144</ele>
        <time>2023-07-02T09:21:55Z</time>
      </trkpt>
      <trkpt lat="43.65225" lon="1.38143">
        <ele>144</ele>
        <time>2023-07-02T09:21:56Z</time>
      </trkpt>
      <trkpt lat="43.65223" lon="1.38144">
        <ele>144</ele>
        <time>2023-07-02T09:21:57Z</time>
      </trkpt>
      <trkpt lat="43.65221" lon="1.38145">
        <ele>144</ele>
        <time>2023-07-02T09:21:58Z</time>
      </trkpt>
      <trkpt lat="43.65218" lon="1.38147">
        <ele>144</ele>
        <time>2023-07-02T09:21:59Z</time>
      </trkpt>
      <trkpt lat="43.65216" lon="1.38148">
        <ele>143</ele>
        <time>2023-07-02T09:22:00Z</time>
      </trkpt>
      <trkpt lat="43.65214" lon="1.3815">
        <ele>143</ele>
        <time>2023-07-02T09:22:01Z</time>
      </trkpt>
      <trkpt lat="43.65211" lon="1.38151">
        <ele>143</ele>
        <time>2023-07-02T09:22:02Z</time>
      </trkpt>
      <trkpt lat="43.65209" lon="1.38153">
        <ele>143</ele>
        <time>2023-07-02T09:22:03Z</time>
      </trkpt>
      <trkpt lat="43.65207" lon="1.38154">
        <ele>143</ele>
        <time>2023-07-02T09:22:04Z</time>
      </trkpt>
      <trkpt lat="43.65202" lon="1.38158">
        <ele>144</ele>
        <time>2023-07-02T09:22:06Z</time>
      </trkpt>
      <trkpt lat="43.652" lon="1.3816">
        <ele>144</ele>
        <time>2023-07-02T09:22:07Z</time>
      </trkpt>
      <trkpt lat="43.65198" lon="1.38162">
        <ele>143</ele>
        <time>2023-07-02T09:22:08Z</time>
      </trkpt>
      <trkpt lat="43.65196" lon="1.38165">
        <ele>143</ele>
        <time>2023-07-02T09:22:09Z</time>
      </trkpt>
      <trkpt lat="43.65193" lon="1.38167">
        <ele>143</ele>
        <time>2023-07-02T09:22:10Z</time>
      </trkpt>
      <trkpt lat="43.65191" lon="1.3817">
        <ele>143</ele>
        <time>2023-07-02T09:22:12Z</time>
      </trkpt>
      <trkpt lat="43.65187" lon="1.38175">
        <ele>143</ele>
        <time>2023-07-02T09:22:13Z</time>
      </trkpt>
      <trkpt lat="43.65185" lon="1.38177">
        <ele>143</ele>
        <time>2023-07-02T09:22:14Z</time>
      </trkpt>
      <trkpt lat="43.65182" lon="1.38179">
        <ele>143</ele>
        <time>2023-07-02T09:22:15Z</time>
      </trkpt>
      <trkpt lat="43.6518" lon="1.38182">
        <ele>143</ele>
        <time>2023-07-02T09:22:16Z</time>
      </trkpt>
      <trkpt lat="43.65178" lon="1.38184">
        <ele>143</ele>
        <time>2023-07-02T09:22:17Z</time>
      </trkpt>
      <trkpt lat="43.65176" lon="1.38186">
        <ele>143</ele>
        <time>2023-07-02T09:22:18Z</time>
      </trkpt>
      <trkpt lat="43.65174" lon="1.38188">
        <ele>143</ele>
        <time>2023-07-02T09:22:19Z</time>
      </trkpt>
      <trkpt lat="43.65172" lon="1.3819">
        <ele>143</ele>
        <time>2023-07-02T09:22:20Z</time>
      </trkpt>
      <trkpt lat="43.6517" lon="1.38192">
        <ele>143</ele>
        <time>2023-07-02T09:22:21Z</time>
      </trkpt>
      <trkpt lat="43.65168" lon="1.38195">
        <ele>143</ele>
        <time>2023-07-02T09:22:22Z</time>
      </trkpt>
      <trkpt lat="43.65164" lon="1.382">
        <ele>143</ele>
        <time>2023-07-02T09:22:24Z</time>
      </trkpt>
      <trkpt lat="43.65163" lon="1.38204">
        <ele>143</ele>
        <time>2023-07-02T09:22:25Z</time>
      </trkpt>
      <trkpt lat="43.65162" lon="1.38207">
        <ele>143</ele>
        <time>2023-07-02T09:22:26Z</time>
      </trkpt>
      <trkpt lat="43.65162" lon="1.38211">
        <ele>143</ele>
        <time>2023-07-02T09:22:27Z</time>
      </trkpt>
      <trkpt lat="43.65162" lon="1.38215">
        <ele>143</ele>
        <time>2023-07-02T09:22:28Z</time>
      </trkpt>
      <trkpt lat="43.65162" lon="1.38218">
        <ele>143</ele>
        <time>2023-07-02T09:22:29Z</time>
      </trkpt>
      <trkpt lat="43.65162" lon="1.38226">
        <ele>143</ele>
        <time>2023-07-02T09:22:31Z</time>
      </trkpt>
      <trkpt lat="43.65163" lon="1.38229">
        <ele>143</ele>
        <time>2023-07-02T09:22:32Z</time>
      </trkpt>
      <trkpt lat="43.65163" lon="1.38233">
        <ele>143</ele>
        <time>2023-07-02T09:22:33Z</time>
      </trkpt>
      <trkpt lat="43.65163" lon="1.38237">
        <ele>142</ele>
        <time>2023-07-02T09:22:34Z</time>
      </trkpt>
      <trkpt lat="43.65164" lon="1.3824">
        <ele>142</ele>
        <time>2023-07-02T09:22:35Z</time>
      </trkpt>
      <trkpt lat="43.65164" lon="1.38243">
        <ele>142</ele>
        <time>2023-07-02T09:22:36Z</time>
      </trkpt>
      <trkpt lat="43.65165" lon="1.38247">
        <ele>143</ele>
        <time>2023-07-02T09:22:37Z</time>
      </trkpt>
      <trkpt lat="43.65165" lon="1.38251">
        <ele>143</ele>
        <time>2023-07-02T09:22:38Z</time>
      </trkpt>
      <trkpt lat="43.65166" lon="1.38254">
        <ele>143</ele>
        <time>2023-07-02T09:22:39Z</time>
      </trkpt>
      <trkpt lat="43.65167" lon="1.38258">
        <ele>143</ele>
        <time>2023-07-02T09:22:40Z</time>
      </trkpt>
      <trkpt lat="43.65167" lon="1.38261">
        <ele>143</ele>
        <time>2023-07-02T09:22:41Z</time>
      </trkpt>
      <trkpt lat="43.65168" lon="1.38268">
        <ele>143</ele>
        <time>2023-07-02T09:22:43Z</time>
      </trkpt>
      <trkpt lat="43.65169" lon="1.38271">
        <ele>143</ele>
        <time>2023-07-02T09:22:44Z</time>
      </trkpt>
      <trkpt lat="43.6517" lon="1.38274">
        <ele>143</ele>
        <time>2023-07-02T09:22:45Z</time>
      </trkpt>
      <trkpt lat="43.65171" lon="1.38278">
        <ele>142</ele>
        <time>2023-07-02T09:22:46Z</time>
      </trkpt>
      <trkpt lat="43.65171" lon="1.38281">
        <ele>142</ele>
        <time>2023-07-02T09:22:47Z</time>
      </trkpt>
      <trkpt lat="43.65172" lon="1.38285">
        <ele>142</ele>
        <time>2023-07-02T09:22:48Z</time>
      </trkpt>
      <trkpt lat="43.65174" lon="1.38291">
        <ele>142</ele>
        <time>2023-07-02T09:22:50Z</time>
      </trkpt>
      <trkpt lat="43.65175" lon="1.38294">
        <ele>142</ele>
        <time>2023-07-02T09:22:51Z</time>
      </trkpt>
      <trkpt lat="43.65176" lon="1.38298">
        <ele>142</ele>
        <time>2023-07-02T09:22:52Z</time>
      </trkpt>
      <trkpt lat="43.65176" lon="1.38301">
        <ele>142</ele>
        <time>2023-07-02T09:22:53Z</time>
      </trkpt>
      <trkpt lat="43.65177" lon="1.38305">
        <ele>142</ele>
        <time>2023-07-02T09:22:54Z</time>
      </trkpt>
      <trkpt lat="43.65177" lon="1.38308">
        <ele>142</ele>
        <time>2023-07-02T09:22:55Z</time>
      </trkpt>
      <trkpt lat="43.65178" lon="1.38311">
        <ele>142</ele>
        <time>2023-07-02T09:22:56Z</time>
      </trkpt>
      <trkpt lat="43.65178" lon="1.38315">
        <ele>142</ele>
        <time>2023-07-02T09:22:57Z</time>
      </trkpt>
      <trkpt lat="43.65178" lon="1.38318">
        <ele>142</ele>
        <time>2023-07-02T09:22:58Z</time>
      </trkpt>
      <trkpt lat="43.65178" lon="1.38322">
        <ele>142</ele>
        <time>2023-07-02T09:22:59Z</time>
      </trkpt>
      <trkpt lat="43.65179" lon="1.38325">
        <ele>142</ele>
        <time>2023-07-02T09:23:00Z</time>
      </trkpt>
      <trkpt lat="43.65179" lon="1.38328">
        <ele>142</ele>
        <time>2023-07-02T09:23:01Z</time>
      </trkpt>
      <trkpt lat="43.6518" lon="1.38335">
        <ele>142</ele>
        <time>2023-07-02T09:23:03Z</time>
      </trkpt>
      <trkpt lat="43.65181" lon="1.38338">
        <ele>142</ele>
        <time>2023-07-02T09:23:04Z</time>
      </trkpt>
      <trkpt lat="43.65181" lon="1.38342">
        <ele>142</ele>
        <time>2023-07-02T09:23:05Z</time>
      </trkpt>
      <trkpt lat="43.65182" lon="1.38345">
        <ele>142</ele>
        <time>2023-07-02T09:23:06Z</time>
      </trkpt>
      <trkpt lat="43.65183" lon="1.38349">
        <ele>142</ele>
        <time>2023-07-02T09:23:07Z</time>
      </trkpt>
      <trkpt lat="43.65184" lon="1.38355">
        <ele>143</ele>
        <time>2023-07-02T09:23:09Z</time>
      </trkpt>
      <trkpt lat="43.65184" lon="1.38359">
        <ele>143</ele>
        <time>2023-07-02T09:23:10Z</time>
      </trkpt>
      <trkpt lat="43.65184" lon="1.38362">
        <ele>143</ele>
        <time>2023-07-02T09:23:11Z</time>
      </trkpt>
      <trkpt lat="43.65185" lon="1.38366">
        <ele>143</ele>
        <time>2023-07-02T09:23:12Z</time>
      </trkpt>
      <trkpt lat="43.65185" lon="1.38369">
        <ele>143</ele>
        <time>2023-07-02T09:23:13Z</time>
      </trkpt>
      <trkpt lat="43.65185" lon="1.38373">
        <ele>143</ele>
        <time>2023-07-02T09:23:14Z</time>
      </trkpt>
      <trkpt lat="43.65186" lon="1.38376">
        <ele>143</ele>
        <time>2023-07-02T09:23:15Z</time>
      </trkpt>
      <trkpt lat="43.65187" lon="1.3838">
        <ele>143</ele>
        <time>2023-07-02T09:23:16Z</time>
      </trkpt>
      <trkpt lat="43.65187" lon="1.38383">
        <ele>143</ele>
        <time>2023-07-02T09:23:17Z</time>
      </trkpt>
      <trkpt lat="43.65188" lon="1.38387">
        <ele>143</ele>
        <time>2023-07-02T09:23:18Z</time>
      </trkpt>
      <trkpt lat="43.65189" lon="1.3839">
        <ele>143</ele>
        <time>2023-07-02T09:23:19Z</time>
      </trkpt>
      <trkpt lat="43.6519" lon="1.38394">
        <ele>143</ele>
        <time>2023-07-02T09:23:20Z</time>
      </trkpt>
      <trkpt lat="43.65192" lon="1.38397">
        <ele>142</ele>
        <time>2023-07-02T09:23:21Z</time>
      </trkpt>
      <trkpt lat="43.65195" lon="1.38402">
        <ele>142</ele>
        <time>2023-07-02T09:23:23Z</time>
      </trkpt>
      <trkpt lat="43.65197" lon="1.38405">
        <ele>142</ele>
        <time>2023-07-02T09:23:24Z</time>
      </trkpt>
      <trkpt lat="43.65199" lon="1.38408">
        <ele>141</ele>
        <time>2023-07-02T09:23:25Z</time>
      </trkpt>
      <trkpt lat="43.65201" lon="1.3841">
        <ele>141</ele>
        <time>2023-07-02T09:23:26Z</time>
      </trkpt>
      <trkpt lat="43.65204" lon="1.38415">
        <ele>141</ele>
        <time>2023-07-02T09:23:28Z</time>
      </trkpt>
      <trkpt lat="43.65206" lon="1.38418">
        <ele>141</ele>
        <time>2023-07-02T09:23:29Z</time>
      </trkpt>
      <trkpt lat="43.65207" lon="1.38421">
        <ele>141</ele>
        <time>2023-07-02T09:23:30Z</time>
      </trkpt>
      <trkpt lat="43.65209" lon="1.38424">
        <ele>141</ele>
        <time>2023-07-02T09:23:31Z</time>
      </trkpt>
      <trkpt lat="43.6521" lon="1.38427">
        <ele>141</ele>
        <time>2023-07-02T09:23:32Z</time>
      </trkpt>
      <trkpt lat="43.65211" lon="1.3843">
        <ele>141</ele>
        <time>2023-07-02T09:23:33Z</time>
      </trkpt>
      <trkpt lat="43.65213" lon="1.38433">
        <ele>141</ele>
        <time>2023-07-02T09:23:34Z</time>
      </trkpt>
      <trkpt lat="43.65214" lon="1.38436">
        <ele>140</ele>
        <time>2023-07-02T09:23:35Z</time>
      </trkpt>
      <trkpt lat="43.65215" lon="1.38439">
        <ele>140</ele>
        <time>2023-07-02T09:23:36Z</time>
      </trkpt>
      <trkpt lat="43.65215" lon="1.38442">
        <ele>140</ele>
        <time>2023-07-02T09:23:37Z</time>
      </trkpt>
      <trkpt lat="43.65216" lon="1.38445">
        <ele>139</ele>
        <time>2023-07-02T09:23:38Z</time>
      </trkpt>
      <trkpt lat="43.65217" lon="1.38447">
        <ele>139</ele>
        <time>2023-07-02T09:23:39Z</time>
      </trkpt>
      <trkpt lat="43.65218" lon="1.3845">
        <ele>139</ele>
        <time>2023-07-02T09:23:40Z</time>
      </trkpt>
      <trkpt lat="43.65219" lon="1.38453">
        <ele>139</ele>
        <time>2023-07-02T09:23:41Z</time>
      </trkpt>
      <trkpt lat="43.6522" lon="1.38455">
        <ele>139</ele>
        <time>2023-07-02T09:23:43Z</time>
      </trkpt>
      <trkpt lat="43.65222" lon="1.38459">
        <ele>139</ele>
        <time>2023-07-02T09:23:44Z</time>
      </trkpt>
      <trkpt lat="43.65222" lon="1.38461">
        <ele>139</ele>
        <time>2023-07-02T09:23:45Z</time>
      </trkpt>
      <trkpt lat="43.65223" lon="1.38464">
        <ele>139</ele>
        <time>2023-07-02T09:23:47Z</time>
      </trkpt>
      <trkpt lat="43.65223" lon="1.38471">
        <ele>139</ele>
        <time>2023-07-02T09:23:48Z</time>
      </trkpt>
      <trkpt lat="43.65224" lon="1.38474">
        <ele>139</ele>
        <time>2023-07-02T09:23:49Z</time>
      </trkpt>
      <trkpt lat="43.65225" lon="1.38477">
        <ele>139</ele>
        <time>2023-07-02T09:23:50Z</time>
      </trkpt>
      <trkpt lat="43.65226" lon="1.3848">
        <ele>139</ele>
        <time>2023-07-02T09:23:51Z</time>
      </trkpt>
      <trkpt lat="43.65227" lon="1.38482">
        <ele>139</ele>
        <time>2023-07-02T09:23:52Z</time>
      </trkpt>
      <trkpt lat="43.65227" lon="1.38486">
        <ele>139</ele>
        <time>2023-07-02T09:23:53Z</time>
      </trkpt>
      <trkpt lat="43.65227" lon="1.38489">
        <ele>139</ele>
        <time>2023-07-02T09:23:54Z</time>
      </trkpt>
      <trkpt lat="43.65227" lon="1.38492">
        <ele>139</ele>
        <time>2023-07-02T09:23:55Z</time>
      </trkpt>
      <trkpt lat="43.65228" lon="1.38495">
        <ele>139</ele>
        <time>2023-07-02T09:23:56Z</time>
      </trkpt>
      <trkpt lat="43.65228" lon="1.38498">
        <ele>138</ele>
        <time>2023-07-02T09:23:57Z</time>
      </trkpt>
      <trkpt lat="43.65229" lon="1.38502">
        <ele>138</ele>
        <time>2023-07-02T09:23:58Z</time>
      </trkpt>
      <trkpt lat="43.6523" lon="1.38505">
        <ele>138</ele>
        <time>2023-07-02T09:23:59Z</time>
      </trkpt>
      <trkpt lat="43.6523" lon="1.38508">
        <ele>139</ele>
        <time>2023-07-02T09:24:00Z</time>
      </trkpt>
      <trkpt lat="43.65231" lon="1.38511">
        <ele>139</ele>
        <time>2023-07-02T09:24:01Z</time>
      </trkpt>
      <trkpt lat="43.65233" lon="1.38514">
        <ele>139</ele>
        <time>2023-07-02T09:24:02Z</time>
      </trkpt>
      <trkpt lat="43.65234" lon="1.38518">
        <ele>139</ele>
        <time>2023-07-02T09:24:03Z</time>
      </trkpt>
      <trkpt lat="43.65234" lon="1.38521">
        <ele>139</ele>
        <time>2023-07-02T09:24:05Z</time>
      </trkpt>
      <trkpt lat="43.65237" lon="1.38527">
        <ele>139</ele>
        <time>2023-07-02T09:24:06Z</time>
      </trkpt>
      <trkpt lat="43.65238" lon="1.3853">
        <ele>139</ele>
        <time>2023-07-02T09:24:07Z</time>
      </trkpt>
      <trkpt lat="43.65239" lon="1.38533">
        <ele>139</ele>
        <time>2023-07-02T09:24:08Z</time>
      </trkpt>
      <trkpt lat="43.65239" lon="1.38536">
        <ele>139</ele>
        <time>2023-07-02T09:24:09Z</time>
      </trkpt>
      <trkpt lat="43.6524" lon="1.38539">
        <ele>138</ele>
        <time>2023-07-02T09:24:10Z</time>
      </trkpt>
      <trkpt lat="43.65241" lon="1.38543">
        <ele>138</ele>
        <time>2023-07-02T09:24:11Z</time>
      </trkpt>
      <trkpt lat="43.65243" lon="1.38546">
        <ele>138</ele>
        <time>2023-07-02T09:24:12Z</time>
      </trkpt>
      <trkpt lat="43.65243" lon="1.3855">
        <ele>138</ele>
        <time>2023-07-02T09:24:13Z</time>
      </trkpt>
      <trkpt lat="43.65244" lon="1.38553">
        <ele>138</ele>
        <time>2023-07-02T09:24:14Z</time>
      </trkpt>
      <trkpt lat="43.65244" lon="1.38557">
        <ele>138</ele>
        <time>2023-07-02T09:24:15Z</time>
      </trkpt>
      <trkpt lat="43.65245" lon="1.38559">
        <ele>138</ele>
        <time>2023-07-02T09:24:16Z</time>
      </trkpt>
      <trkpt lat="43.65247" lon="1.38562">
        <ele>138</ele>
        <time>2023-07-02T09:24:17Z</time>
      </trkpt>
      <trkpt lat="43.65248" lon="1.38564">
        <ele>138</ele>
        <time>2023-07-02T09:24:18Z</time>
      </trkpt>
      <trkpt lat="43.65248" lon="1.38567">
        <ele>138</ele>
        <time>2023-07-02T09:24:19Z</time>
      </trkpt>
      <trkpt lat="43.65249" lon="1.3857">
        <ele>138</ele>
        <time>2023-07-02T09:24:20Z</time>
      </trkpt>
      <trkpt lat="43.6525" lon="1.38574">
        <ele>138</ele>
        <time>2023-07-02T09:24:21Z</time>
      </trkpt>
      <trkpt lat="43.65252" lon="1.38577">
        <ele>138</ele>
        <time>2023-07-02T09:24:22Z</time>
      </trkpt>
      <trkpt lat="43.65253" lon="1.3858">
        <ele>138</ele>
        <time>2023-07-02T09:24:23Z</time>
      </trkpt>
      <trkpt lat="43.65254" lon="1.38583">
        <ele>138</ele>
        <time>2023-07-02T09:24:25Z</time>
      </trkpt>
      <trkpt lat="43.65256" lon="1.3859">
        <ele>138</ele>
        <time>2023-07-02T09:24:26Z</time>
      </trkpt>
      <trkpt lat="43.65258" lon="1.38593">
        <ele>138</ele>
        <time>2023-07-02T09:24:27Z</time>
      </trkpt>
      <trkpt lat="43.65259" lon="1.38596">
        <ele>138</ele>
        <time>2023-07-02T09:24:28Z</time>
      </trkpt>
      <trkpt lat="43.6526" lon="1.38598">
        <ele>139</ele>
        <time>2023-07-02T09:24:29Z</time>
      </trkpt>
      <trkpt lat="43.65262" lon="1.38601">
        <ele>139</ele>
        <time>2023-07-02T09:24:30Z</time>
      </trkpt>
      <trkpt lat="43.65263" lon="1.38603">
        <ele>138</ele>
        <time>2023-07-02T09:24:31Z</time>
      </trkpt>
      <trkpt lat="43.65263" lon="1.38603">
        <ele>138</ele>
        <time>2023-07-02T09:24:32Z</time>
      </trkpt>
      <trkpt lat="43.65265" lon="1.38607">
        <ele>138</ele>
        <time>2023-07-02T09:24:33Z</time>
      </trkpt>
      <trkpt lat="43.65265" lon="1.3861">
        <ele>139</ele>
        <time>2023-07-02T09:24:34Z</time>
      </trkpt>
      <trkpt lat="43.65266" lon="1.38613">
        <ele>139</ele>
        <time>2023-07-02T09:24:35Z</time>
      </trkpt>
      <trkpt lat="43.65268" lon="1.38616">
        <ele>139</ele>
        <time>2023-07-02T09:24:36Z</time>
      </trkpt>
      <trkpt lat="43.6527" lon="1.38619">
        <ele>139</ele>
        <time>2023-07-02T09:24:37Z</time>
      </trkpt>
      <trkpt lat="43.65271" lon="1.38621">
        <ele>139</ele>
        <time>2023-07-02T09:24:38Z</time>
      </trkpt>
      <trkpt lat="43.65272" lon="1.38623">
        <ele>139</ele>
        <time>2023-07-02T09:24:39Z</time>
      </trkpt>
      <trkpt lat="43.65274" lon="1.38626">
        <ele>139</ele>
        <time>2023-07-02T09:24:40Z</time>
      </trkpt>
      <trkpt lat="43.65275" lon="1.38628">
        <ele>139</ele>
        <time>2023-07-02T09:24:41Z</time>
      </trkpt>
      <trkpt lat="43.65277" lon="1.3863">
        <ele>139</ele>
        <time>2023-07-02T09:24:42Z</time>
      </trkpt>
      <trkpt lat="43.65278" lon="1.38633">
        <ele>139</ele>
        <time>2023-07-02T09:24:44Z</time>
      </trkpt>
      <trkpt lat="43.65281" lon="1.38639">
        <ele>140</ele>
        <time>2023-07-02T09:24:45Z</time>
      </trkpt>
      <trkpt lat="43.65283" lon="1.38645">
        <ele>139</ele>
        <time>2023-07-02T09:24:47Z</time>
      </trkpt>
      <trkpt lat="43.65284" lon="1.38648">
        <ele>139</ele>
        <time>2023-07-02T09:24:48Z</time>
      </trkpt>
      <trkpt lat="43.65285" lon="1.38652">
        <ele>139</ele>
        <time>2023-07-02T09:24:49Z</time>
      </trkpt>
      <trkpt lat="43.65286" lon="1.38655">
        <ele>139</ele>
        <time>2023-07-02T09:24:50Z</time>
      </trkpt>
      <trkpt lat="43.65287" lon="1.38659">
        <ele>138</ele>
        <time>2023-07-02T09:24:51Z</time>
      </trkpt>
      <trkpt lat="43.65288" lon="1.38662">
        <ele>138</ele>
        <time>2023-07-02T09:24:52Z</time>
      </trkpt>
      <trkpt lat="43.65289" lon="1.38666">
        <ele>139</ele>
        <time>2023-07-02T09:24:53Z</time>
      </trkpt>
      <trkpt lat="43.65291" lon="1.38669">
        <ele>139</ele>
        <time>2023-07-02T09:24:54Z</time>
      </trkpt>
      <trkpt lat="43.65292" lon="1.38672">
        <ele>139</ele>
        <time>2023-07-02T09:24:55Z</time>
      </trkpt>
      <trkpt lat="43.65293" lon="1.38674">
        <ele>139</ele>
        <time>2023-07-02T09:24:56Z</time>
      </trkpt>
      <trkpt lat="43.65295" lon="1.38677">
        <ele>139</ele>
        <time>2023-07-02T09:24:57Z</time>
      </trkpt>
      <trkpt lat="43.65296" lon="1.3868">
        <ele>138</ele>
        <time>2023-07-02T09:24:58Z</time>
      </trkpt>
      <trkpt lat="43.65297" lon="1.38683">
        <ele>139</ele>
        <time>2023-07-02T09:24:59Z</time>
      </trkpt>
      <trkpt lat="43.65298" lon="1.38686">
        <ele>138</ele>
        <time>2023-07-02T09:25:00Z</time>
      </trkpt>
      <trkpt lat="43.65298" lon="1.38689">
        <ele>139</ele>
        <time>2023-07-02T09:25:01Z</time>
      </trkpt>
      <trkpt lat="43.653" lon="1.38695">
        <ele>139</ele>
        <time>2023-07-02T09:25:03Z</time>
      </trkpt>
      <trkpt lat="43.653" lon="1.38698">
        <ele>139</ele>
        <time>2023-07-02T09:25:04Z</time>
      </trkpt>
      <trkpt lat="43.653" lon="1.38701">
        <ele>138</ele>
        <time>2023-07-02T09:25:05Z</time>
      </trkpt>
      <trkpt lat="43.65302" lon="1.38707">
        <ele>138</ele>
        <time>2023-07-02T09:25:07Z</time>
      </trkpt>
      <trkpt lat="43.65302" lon="1.3871">
        <ele>138</ele>
        <time>2023-07-02T09:25:08Z</time>
      </trkpt>
      <trkpt lat="43.65303" lon="1.38714">
        <ele>138</ele>
        <time>2023-07-02T09:25:09Z</time>
      </trkpt>
      <trkpt lat="43.65304" lon="1.38717">
        <ele>138</ele>
        <time>2023-07-02T09:25:10Z</time>
      </trkpt>
      <trkpt lat="43.65306" lon="1.38721">
        <ele>139</ele>
        <time>2023-07-02T09:25:11Z</time>
      </trkpt>
      <trkpt lat="43.65307" lon="1.38724">
        <ele>139</ele>
        <time>2023-07-02T09:25:12Z</time>
      </trkpt>
      <trkpt lat="43.65309" lon="1.38728">
        <ele>139</ele>
        <time>2023-07-02T09:25:13Z</time>
      </trkpt>
      <trkpt lat="43.6531" lon="1.38732">
        <ele>139</ele>
        <time>2023-07-02T09:25:14Z</time>
      </trkpt>
      <trkpt lat="43.65311" lon="1.38735">
        <ele>139</ele>
        <time>2023-07-02T09:25:15Z</time>
      </trkpt>
      <trkpt lat="43.65312" lon="1.38739">
        <ele>139</ele>
        <time>2023-07-02T09:25:16Z</time>
      </trkpt>
      <trkpt lat="43.65313" lon="1.38742">
        <ele>139</ele>
        <time>2023-07-02T09:25:17Z</time>
      </trkpt>
      <trkpt lat="43.65315" lon="1.38746">
        <ele>139</ele>
        <time>2023-07-02T09:25:18Z</time>
      </trkpt>
      <trkpt lat="43.65316" lon="1.3875">
        <ele>139</ele>
        <time>2023-07-02T09:25:19Z</time>
      </trkpt>
      <trkpt lat="43.65317" lon="1.38753">
        <ele>139</ele>
        <time>2023-07-02T09:25:20Z</time>
      </trkpt>
      <trkpt lat="43.65318" lon="1.38761">
        <ele>139</ele>
        <time>2023-07-02T09:25:22Z</time>
      </trkpt>
      <trkpt lat="43.65318" lon="1.38764">
        <ele>139</ele>
        <time>2023-07-02T09:25:23Z</time>
      </trkpt>
      <trkpt lat="43.6532" lon="1.3877">
        <ele>140</ele>
        <time>2023-07-02T09:25:25Z</time>
      </trkpt>
      <trkpt lat="43.6532" lon="1.38773">
        <ele>140</ele>
        <time>2023-07-02T09:25:26Z</time>
      </trkpt>
      <trkpt lat="43.65321" lon="1.38776">
        <ele>140</ele>
        <time>2023-07-02T09:25:27Z</time>
      </trkpt>
      <trkpt lat="43.65322" lon="1.3878">
        <ele>140</ele>
        <time>2023-07-02T09:25:28Z</time>
      </trkpt>
      <trkpt lat="43.65324" lon="1.38783">
        <ele>141</ele>
        <time>2023-07-02T09:25:29Z</time>
      </trkpt>
      <trkpt lat="43.65325" lon="1.38785">
        <ele>141</ele>
        <time>2023-07-02T09:25:30Z</time>
      </trkpt>
      <trkpt lat="43.65326" lon="1.38788">
        <ele>141</ele>
        <time>2023-07-02T09:25:31Z</time>
      </trkpt>
      <trkpt lat="43.65328" lon="1.38791">
        <ele>141</ele>
        <time>2023-07-02T09:25:32Z</time>
      </trkpt>
      <trkpt lat="43.65329" lon="1.38794">
        <ele>141</ele>
        <time>2023-07-02T09:25:33Z</time>
      </trkpt>
      <trkpt lat="43.6533" lon="1.38797">
        <ele>141</ele>
        <time>2023-07-02T09:25:34Z</time>
      </trkpt>
      <trkpt lat="43.65331" lon="1.38801">
        <ele>141</ele>
        <time>2023-07-02T09:25:35Z</time>
      </trkpt>
      <trkpt lat="43.65333" lon="1.38804">
        <ele>141</ele>
        <time>2023-07-02T09:25:36Z</time>
      </trkpt>
      <trkpt lat="43.65334" lon="1.38808">
        <ele>141</ele>
        <time>2023-07-02T09:25:37Z</time>
      </trkpt>
      <trkpt lat="43.65335" lon="1.38811">
        <ele>141</ele>
        <time>2023-07-02T09:25:38Z</time>
      </trkpt>
      <trkpt lat="43.65337" lon="1.38814">
        <ele>141</ele>
        <time>2023-07-02T09:25:39Z</time>
      </trkpt>
      <trkpt lat="43.6534" lon="1.38819">
        <ele>140</ele>
        <time>2023-07-02T09:25:41Z</time>
      </trkpt>
      <trkpt lat="43.65341" lon="1.38822">
        <ele>140</ele>
        <time>2023-07-02T09:25:42Z</time>
      </trkpt>
      <trkpt lat="43.65342" lon="1.38826">
        <ele>140</ele>
        <time>2023-07-02T09:25:43Z</time>
      </trkpt>
      <trkpt lat="43.65344" lon="1.38831">
        <ele>140</ele>
        <time>2023-07-02T09:25:45Z</time>
      </trkpt>
      <trkpt lat="43.65345" lon="1.38832">
        <ele>140</ele>
        <time>2023-07-02T09:25:46Z</time>
      </trkpt>
      <trkpt lat="43.65345" lon="1.38832">
        <ele>140</ele>
        <time>2023-07-02T09:25:47Z</time>
      </trkpt>
      <trkpt lat="43.65347" lon="1.38836">
        <ele>140</ele>
        <time>2023-07-02T09:25:48Z</time>
      </trkpt>
      <trkpt lat="43.65349" lon="1.38837">
        <ele>140</ele>
        <time>2023-07-02T09:25:49Z</time>
      </trkpt>
      <trkpt lat="43.65351" lon="1.3884">
        <ele>140</ele>
        <time>2023-07-02T09:25:50Z</time>
      </trkpt>
      <trkpt lat="43.65352" lon="1.38842">
        <ele>140</ele>
        <time>2023-07-02T09:25:51Z</time>
      </trkpt>
      <trkpt lat="43.65355" lon="1.38843">
        <ele>140</ele>
        <time>2023-07-02T09:25:52Z</time>
      </trkpt>
      <trkpt lat="43.65357" lon="1.38845">
        <ele>140</ele>
        <time>2023-07-02T09:25:53Z</time>
      </trkpt>
      <trkpt lat="43.65359" lon="1.38845">
        <ele>140</ele>
        <time>2023-07-02T09:25:54Z</time>
      </trkpt>
      <trkpt lat="43.65361" lon="1.38846">
        <ele>139</ele>
        <time>2023-07-02T09:25:55Z</time>
      </trkpt>
      <trkpt lat="43.65361" lon="1.38846">
        <ele>139</ele>
        <time>2023-07-02T09:25:56Z</time>
      </trkpt>
      <trkpt lat="43.65361" lon="1.38846">
        <ele>139</ele>
        <time>2023-07-02T09:25:57Z</time>
      </trkpt>
      <trkpt lat="43.65361" lon="1.38846">
        <ele>138</ele>
        <time>2023-07-02T09:25:58Z</time>
      </trkpt>
      <trkpt lat="43.65372" lon="1.38848">
        <ele>138</ele>
        <time>2023-07-02T09:26:00Z</time>
      </trkpt>
      <trkpt lat="43.65375" lon="1.38849">
        <ele>138</ele>
        <time>2023-07-02T09:26:01Z</time>
      </trkpt>
      <trkpt lat="43.65377" lon="1.3885">
        <ele>138</ele>
        <time>2023-07-02T09:26:02Z</time>
      </trkpt>
      <trkpt lat="43.6538" lon="1.3885">
        <ele>138</ele>
        <time>2023-07-02T09:26:03Z</time>
      </trkpt>
      <trkpt lat="43.65382" lon="1.3885">
        <ele>138</ele>
        <time>2023-07-02T09:26:04Z</time>
      </trkpt>
      <trkpt lat="43.65385" lon="1.3885">
        <ele>138</ele>
        <time>2023-07-02T09:26:05Z</time>
      </trkpt>
      <trkpt lat="43.65389" lon="1.38849">
        <ele>138</ele>
        <time>2023-07-02T09:26:07Z</time>
      </trkpt>
      <trkpt lat="43.65391" lon="1.3885">
        <ele>138</ele>
        <time>2023-07-02T09:26:08Z</time>
      </trkpt>
      <trkpt lat="43.65394" lon="1.38852">
        <ele>138</ele>
        <time>2023-07-02T09:26:09Z</time>
      </trkpt>
      <trkpt lat="43.65395" lon="1.38855">
        <ele>138</ele>
        <time>2023-07-02T09:26:10Z</time>
      </trkpt>
      <trkpt lat="43.65397" lon="1.38858">
        <ele>138</ele>
        <time>2023-07-02T09:26:11Z</time>
      </trkpt>
      <trkpt lat="43.65398" lon="1.38862">
        <ele>137</ele>
        <time>2023-07-02T09:26:12Z</time>
      </trkpt>
      <trkpt lat="43.65398" lon="1.38866">
        <ele>137</ele>
        <time>2023-07-02T09:26:13Z</time>
      </trkpt>
      <trkpt lat="43.654" lon="1.3887">
        <ele>137</ele>
        <time>2023-07-02T09:26:14Z</time>
      </trkpt>
      <trkpt lat="43.65401" lon="1.38874">
        <ele>137</ele>
        <time>2023-07-02T09:26:15Z</time>
      </trkpt>
      <trkpt lat="43.65401" lon="1.38878">
        <ele>137</ele>
        <time>2023-07-02T09:26:16Z</time>
      </trkpt>
      <trkpt lat="43.65401" lon="1.3888">
        <ele>137</ele>
        <time>2023-07-02T09:26:17Z</time>
      </trkpt>
      <trkpt lat="43.65402" lon="1.38884">
        <ele>136</ele>
        <time>2023-07-02T09:26:19Z</time>
      </trkpt>
      <trkpt lat="43.65404" lon="1.38888">
        <ele>136</ele>
        <time>2023-07-02T09:26:20Z</time>
      </trkpt>
      <trkpt lat="43.65405" lon="1.38892">
        <ele>135</ele>
        <time>2023-07-02T09:26:21Z</time>
      </trkpt>
      <trkpt lat="43.65407" lon="1.38896">
        <ele>135</ele>
        <time>2023-07-02T09:26:22Z</time>
      </trkpt>
      <trkpt lat="43.65409" lon="1.38901">
        <ele>135</ele>
        <time>2023-07-02T09:26:23Z</time>
      </trkpt>
      <trkpt lat="43.65411" lon="1.38904">
        <ele>135</ele>
        <time>2023-07-02T09:26:24Z</time>
      </trkpt>
      <trkpt lat="43.65415" lon="1.38909">
        <ele>135</ele>
        <time>2023-07-02T09:26:26Z</time>
      </trkpt>
      <trkpt lat="43.65417" lon="1.38912">
        <ele>135</ele>
        <time>2023-07-02T09:26:27Z</time>
      </trkpt>
      <trkpt lat="43.65419" lon="1.38915">
        <ele>135</ele>
        <time>2023-07-02T09:26:28Z</time>
      </trkpt>
      <trkpt lat="43.6542" lon="1.38917">
        <ele>134</ele>
        <time>2023-07-02T09:26:29Z</time>
      </trkpt>
      <trkpt lat="43.65422" lon="1.3892">
        <ele>134</ele>
        <time>2023-07-02T09:26:30Z</time>
      </trkpt>
      <trkpt lat="43.65423" lon="1.38922">
        <ele>134</ele>
        <time>2023-07-02T09:26:31Z</time>
      </trkpt>
      <trkpt lat="43.65425" lon="1.38924">
        <ele>134</ele>
        <time>2023-07-02T09:26:32Z</time>
      </trkpt>
      <trkpt lat="43.65426" lon="1.38927">
        <ele>133</ele>
        <time>2023-07-02T09:26:33Z</time>
      </trkpt>
      <trkpt lat="43.65428" lon="1.38929">
        <ele>132</ele>
        <time>2023-07-02T09:26:34Z</time>
      </trkpt>
      <trkpt lat="43.6543" lon="1.38933">
        <ele>132</ele>
        <time>2023-07-02T09:26:35Z</time>
      </trkpt>
      <trkpt lat="43.65432" lon="1.38936">
        <ele>131</ele>
        <time>2023-07-02T09:26:36Z</time>
      </trkpt>
      <trkpt lat="43.65436" lon="1.38943">
        <ele>130</ele>
        <time>2023-07-02T09:26:38Z</time>
      </trkpt>
      <trkpt lat="43.65439" lon="1.38947">
        <ele>130</ele>
        <time>2023-07-02T09:26:39Z</time>
      </trkpt>
      <trkpt lat="43.6544" lon="1.38952">
        <ele>129</ele>
        <time>2023-07-02T09:26:40Z</time>
      </trkpt>
      <trkpt lat="43.65442" lon="1.38956">
        <ele>129</ele>
        <time>2023-07-02T09:26:41Z</time>
      </trkpt>
      <trkpt lat="43.65444" lon="1.38964">
        <ele>128</ele>
        <time>2023-07-02T09:26:43Z</time>
      </trkpt>
      <trkpt lat="43.65445" lon="1.38968">
        <ele>128</ele>
        <time>2023-07-02T09:26:44Z</time>
      </trkpt>
      <trkpt lat="43.65446" lon="1.38972">
        <ele>128</ele>
        <time>2023-07-02T09:26:45Z</time>
      </trkpt>
      <trkpt lat="43.65448" lon="1.38976">
        <ele>128</ele>
        <time>2023-07-02T09:26:46Z</time>
      </trkpt>
      <trkpt lat="43.65449" lon="1.3898">
        <ele>127</ele>
        <time>2023-07-02T09:26:47Z</time>
      </trkpt>
      <trkpt lat="43.65451" lon="1.38984">
        <ele>127</ele>
        <time>2023-07-02T09:26:48Z</time>
      </trkpt>
      <trkpt lat="43.65452" lon="1.38988">
        <ele>127</ele>
        <time>2023-07-02T09:26:49Z</time>
      </trkpt>
      <trkpt lat="43.65454" lon="1.3899">
        <ele>127</ele>
        <time>2023-07-02T09:26:50Z</time>
      </trkpt>
      <trkpt lat="43.65456" lon="1.38993">
        <ele>127</ele>
        <time>2023-07-02T09:26:51Z</time>
      </trkpt>
      <trkpt lat="43.65458" lon="1.38995">
        <ele>127</ele>
        <time>2023-07-02T09:26:52Z</time>
      </trkpt>
      <trkpt lat="43.6546" lon="1.38997">
        <ele>127</ele>
        <time>2023-07-02T09:26:53Z</time>
      </trkpt>
      <trkpt lat="43.65463" lon="1.38999">
        <ele>127</ele>
        <time>2023-07-02T09:26:54Z</time>
      </trkpt>
      <trkpt lat="43.65465" lon="1.39">
        <ele>127</ele>
        <time>2023-07-02T09:26:55Z</time>
      </trkpt>
      <trkpt lat="43.65469" lon="1.39004">
        <ele>127</ele>
        <time>2023-07-02T09:26:57Z</time>
      </trkpt>
      <trkpt lat="43.65472" lon="1.39006">
        <ele>127</ele>
        <time>2023-07-02T09:26:58Z</time>
      </trkpt>
      <trkpt lat="43.65476" lon="1.3901">
        <ele>127</ele>
        <time>2023-07-02T09:27:00Z</time>
      </trkpt>
      <trkpt lat="43.65478" lon="1.39012">
        <ele>127</ele>
        <time>2023-07-02T09:27:01Z</time>
      </trkpt>
      <trkpt lat="43.65481" lon="1.39014">
        <ele>126</ele>
        <time>2023-07-02T09:27:02Z</time>
      </trkpt>
      <trkpt lat="43.65483" lon="1.39015">
        <ele>126</ele>
        <time>2023-07-02T09:27:03Z</time>
      </trkpt>
      <trkpt lat="43.65485" lon="1.39016">
        <ele>126</ele>
        <time>2023-07-02T09:27:04Z</time>
      </trkpt>
      <trkpt lat="43.65488" lon="1.39017">
        <ele>126</ele>
        <time>2023-07-02T09:27:05Z</time>
      </trkpt>
      <trkpt lat="43.6549" lon="1.39018">
        <ele>126</ele>
        <time>2023-07-02T09:27:06Z</time>
      </trkpt>
      <trkpt lat="43.65493" lon="1.39019">
        <ele>126</ele>
        <time>2023-07-02T09:27:07Z</time>
      </trkpt>
      <trkpt lat="43.65495" lon="1.3902">
        <ele>126</ele>
        <time>2023-07-02T09:27:08Z</time>
      </trkpt>
      <trkpt lat="43.65498" lon="1.39021">
        <ele>126</ele>
        <time>2023-07-02T09:27:09Z</time>
      </trkpt>
      <trkpt lat="43.65501" lon="1.39023">
        <ele>126</ele>
        <time>2023-07-02T09:27:10Z</time>
      </trkpt>
      <trkpt lat="43.65504" lon="1.39024">
        <ele>126</ele>
        <time>2023-07-02T09:27:11Z</time>
      </trkpt>
      <trkpt lat="43.65506" lon="1.39027">
        <ele>126</ele>
        <time>2023-07-02T09:27:12Z</time>
      </trkpt>
      <trkpt lat="43.65508" lon="1.39029">
        <ele>126</ele>
        <time>2023-07-02T09:27:13Z</time>
      </trkpt>
      <trkpt lat="43.6551" lon="1.3903">
        <ele>126</ele>
        <time>2023-07-02T09:27:14Z</time>
      </trkpt>
      <trkpt lat="43.65512" lon="1.39032">
        <ele>126</ele>
        <time>2023-07-02T09:27:16Z</time>
      </trkpt>
      <trkpt lat="43.65517" lon="1.39035">
        <ele>126</ele>
        <time>2023-07-02T09:27:17Z</time>
      </trkpt>
      <trkpt lat="43.65522" lon="1.39038">
        <ele>126</ele>
        <time>2023-07-02T09:27:19Z</time>
      </trkpt>
      <trkpt lat="43.65525" lon="1.39039">
        <ele>126</ele>
        <time>2023-07-02T09:27:20Z</time>
      </trkpt>
      <trkpt lat="43.65527" lon="1.3904">
        <ele>125</ele>
        <time>2023-07-02T09:27:21Z</time>
      </trkpt>
      <trkpt lat="43.6553" lon="1.39041">
        <ele>125</ele>
        <time>2023-07-02T09:27:22Z</time>
      </trkpt>
      <trkpt lat="43.65533" lon="1.39043">
        <ele>125</ele>
        <time>2023-07-02T09:27:23Z</time>
      </trkpt>
      <trkpt lat="43.65535" lon="1.39044">
        <ele>126</ele>
        <time>2023-07-02T09:27:24Z</time>
      </trkpt>
      <trkpt lat="43.65537" lon="1.39046">
        <ele>126</ele>
        <time>2023-07-02T09:27:25Z</time>
      </trkpt>
      <trkpt lat="43.65539" lon="1.39047">
        <ele>126</ele>
        <time>2023-07-02T09:27:26Z</time>
      </trkpt>
      <trkpt lat="43.65541" lon="1.39049">
        <ele>126</ele>
        <time>2023-07-02T09:27:27Z</time>
      </trkpt>
      <trkpt lat="43.65544" lon="1.39051">
        <ele>126</ele>
        <time>2023-07-02T09:27:28Z</time>
      </trkpt>
      <trkpt lat="43.65546" lon="1.39052">
        <ele>125</ele>
        <time>2023-07-02T09:27:29Z</time>
      </trkpt>
      <trkpt lat="43.65549" lon="1.39054">
        <ele>125</ele>
        <time>2023-07-02T09:27:30Z</time>
      </trkpt>
      <trkpt lat="43.65551" lon="1.39056">
        <ele>125</ele>
        <time>2023-07-02T09:27:31Z</time>
      </trkpt>
      <trkpt lat="43.65553" lon="1.39058">
        <ele>125</ele>
        <time>2023-07-02T09:27:32Z</time>
      </trkpt>
      <trkpt lat="43.65556" lon="1.3906">
        <ele>125</ele>
        <time>2023-07-02T09:27:33Z</time>
      </trkpt>
      <trkpt lat="43.6556" lon="1.39063">
        <ele>125</ele>
        <time>2023-07-02T09:27:35Z</time>
      </trkpt>
      <trkpt lat="43.65562" lon="1.39065">
        <ele>125</ele>
        <time>2023-07-02T09:27:36Z</time>
      </trkpt>
      <trkpt lat="43.65567" lon="1.39069">
        <ele>125</ele>
        <time>2023-07-02T09:27:38Z</time>
      </trkpt>
      <trkpt lat="43.6557" lon="1.39071">
        <ele>125</ele>
        <time>2023-07-02T09:27:39Z</time>
      </trkpt>
      <trkpt lat="43.65573" lon="1.39072">
        <ele>125</ele>
        <time>2023-07-02T09:27:40Z</time>
      </trkpt>
      <trkpt lat="43.65575" lon="1.39073">
        <ele>125</ele>
        <time>2023-07-02T09:27:41Z</time>
      </trkpt>
      <trkpt lat="43.65578" lon="1.39074">
        <ele>125</ele>
        <time>2023-07-02T09:27:42Z</time>
      </trkpt>
      <trkpt lat="43.6558" lon="1.39075">
        <ele>125</ele>
        <time>2023-07-02T09:27:43Z</time>
      </trkpt>
      <trkpt lat="43.65583" lon="1.39076">
        <ele>126</ele>
        <time>2023-07-02T09:27:44Z</time>
      </trkpt>
      <trkpt lat="43.65585" lon="1.39077">
        <ele>126</ele>
        <time>2023-07-02T09:27:45Z</time>
      </trkpt>
      <trkpt lat="43.65587" lon="1.39078">
        <ele>126</ele>
        <time>2023-07-02T09:27:46Z</time>
      </trkpt>
      <trkpt lat="43.65589" lon="1.39078">
        <ele>126</ele>
        <time>2023-07-02T09:27:47Z</time>
      </trkpt>
      <trkpt lat="43.65592" lon="1.39079">
        <ele>126</ele>
        <time>2023-07-02T09:27:48Z</time>
      </trkpt>
      <trkpt lat="43.65594" lon="1.39081">
        <ele>126</ele>
        <time>2023-07-02T09:27:49Z</time>
      </trkpt>
      <trkpt lat="43.65596" lon="1.39082">
        <ele>126</ele>
        <time>2023-07-02T09:27:50Z</time>
      </trkpt>
      <trkpt lat="43.65598" lon="1.39084">
        <ele>125</ele>
        <time>2023-07-02T09:27:51Z</time>
      </trkpt>
      <trkpt lat="43.656" lon="1.39085">
        <ele>125</ele>
        <time>2023-07-02T09:27:52Z</time>
      </trkpt>
      <trkpt lat="43.65604" lon="1.39088">
        <ele>125</ele>
        <time>2023-07-02T09:27:54Z</time>
      </trkpt>
      <trkpt lat="43.65607" lon="1.39089">
        <ele>125</ele>
        <time>2023-07-02T09:27:55Z</time>
      </trkpt>
      <trkpt lat="43.65609" lon="1.39091">
        <ele>125</ele>
        <time>2023-07-02T09:27:56Z</time>
      </trkpt>
      <trkpt lat="43.65614" lon="1.39094">
        <ele>125</ele>
        <time>2023-07-02T09:27:58Z</time>
      </trkpt>
      <trkpt lat="43.65616" lon="1.39096">
        <ele>125</ele>
        <time>2023-07-02T09:27:59Z</time>
      </trkpt>
      <trkpt lat="43.65619" lon="1.39097">
        <ele>125</ele>
        <time>2023-07-02T09:28:00Z</time>
      </trkpt>
      <trkpt lat="43.65622" lon="1.39099">
        <ele>125</ele>
        <time>2023-07-02T09:28:01Z</time>
      </trkpt>
      <trkpt lat="43.65623" lon="1.391">
        <ele>125</ele>
        <time>2023-07-02T09:28:02Z</time>
      </trkpt>
      <trkpt lat="43.65623" lon="1.391">
        <ele>125</ele>
        <time>2023-07-02T09:28:03Z</time>
      </trkpt>
      <trkpt lat="43.65627" lon="1.39102">
        <ele>125</ele>
        <time>2023-07-02T09:28:04Z</time>
      </trkpt>
      <trkpt lat="43.65629" lon="1.39102">
        <ele>125</ele>
        <time>2023-07-02T09:28:05Z</time>
      </trkpt>
      <trkpt lat="43.65631" lon="1.39104">
        <ele>126</ele>
        <time>2023-07-02T09:28:06Z</time>
      </trkpt>
      <trkpt lat="43.65633" lon="1.39106">
        <ele>126</ele>
        <time>2023-07-02T09:28:07Z</time>
      </trkpt>
      <trkpt lat="43.65638" lon="1.39111">
        <ele>126</ele>
        <time>2023-07-02T09:28:09Z</time>
      </trkpt>
      <trkpt lat="43.6564" lon="1.39114">
        <ele>126</ele>
        <time>2023-07-02T09:28:10Z</time>
      </trkpt>
      <trkpt lat="43.65642" lon="1.39116">
        <ele>125</ele>
        <time>2023-07-02T09:28:11Z</time>
      </trkpt>
      <trkpt lat="43.65647" lon="1.39119">
        <ele>125</ele>
        <time>2023-07-02T09:28:13Z</time>
      </trkpt>
      <trkpt lat="43.65649" lon="1.3912">
        <ele>125</ele>
        <time>2023-07-02T09:28:14Z</time>
      </trkpt>
      <trkpt lat="43.65652" lon="1.39122">
        <ele>125</ele>
        <time>2023-07-02T09:28:15Z</time>
      </trkpt>
      <trkpt lat="43.65656" lon="1.39126">
        <ele>124</ele>
        <time>2023-07-02T09:28:17Z</time>
      </trkpt>
      <trkpt lat="43.65658" lon="1.39128">
        <ele>124</ele>
        <time>2023-07-02T09:28:18Z</time>
      </trkpt>
      <trkpt lat="43.6566" lon="1.3913">
        <ele>124</ele>
        <time>2023-07-02T09:28:19Z</time>
      </trkpt>
      <trkpt lat="43.65664" lon="1.3913">
        <ele>124</ele>
        <time>2023-07-02T09:28:20Z</time>
      </trkpt>
      <trkpt lat="43.65667" lon="1.39131">
        <ele>124</ele>
        <time>2023-07-02T09:28:21Z</time>
      </trkpt>
      <trkpt lat="43.65669" lon="1.39133">
        <ele>124</ele>
        <time>2023-07-02T09:28:22Z</time>
      </trkpt>
      <trkpt lat="43.65671" lon="1.39134">
        <ele>124</ele>
        <time>2023-07-02T09:28:23Z</time>
      </trkpt>
      <trkpt lat="43.65674" lon="1.39135">
        <ele>124</ele>
        <time>2023-07-02T09:28:24Z</time>
      </trkpt>
      <trkpt lat="43.65675" lon="1.39136">
        <ele>124</ele>
        <time>2023-07-02T09:28:25Z</time>
      </trkpt>
      <trkpt lat="43.65675" lon="1.39136">
        <ele>124</ele>
        <time>2023-07-02T09:28:26Z</time>
      </trkpt>
      <trkpt lat="43.65679" lon="1.39139">
        <ele>124</ele>
        <time>2023-07-02T09:28:27Z</time>
      </trkpt>
      <trkpt lat="43.65682" lon="1.39141">
        <ele>124</ele>
        <time>2023-07-02T09:28:28Z</time>
      </trkpt>
      <trkpt lat="43.65685" lon="1.39143">
        <ele>124</ele>
        <time>2023-07-02T09:28:29Z</time>
      </trkpt>
      <trkpt lat="43.65687" lon="1.39145">
        <ele>124</ele>
        <time>2023-07-02T09:28:30Z</time>
      </trkpt>
      <trkpt lat="43.65692" lon="1.39151">
        <ele>124</ele>
        <time>2023-07-02T09:28:32Z</time>
      </trkpt>
      <trkpt lat="43.65694" lon="1.39153">
        <ele>124</ele>
        <time>2023-07-02T09:28:33Z</time>
      </trkpt>
      <trkpt lat="43.65696" lon="1.39155">
        <ele>124</ele>
        <time>2023-07-02T09:28:34Z</time>
      </trkpt>
      <trkpt lat="43.657" lon="1.39159">
        <ele>124</ele>
        <time>2023-07-02T09:28:36Z</time>
      </trkpt>
      <trkpt lat="43.65703" lon="1.3916">
        <ele>124</ele>
        <time>2023-07-02T09:28:37Z</time>
      </trkpt>
      <trkpt lat="43.65704" lon="1.39161">
        <ele>124</ele>
        <time>2023-07-02T09:28:38Z</time>
      </trkpt>
      <trkpt lat="43.65707" lon="1.39163">
        <ele>124</ele>
        <time>2023-07-02T09:28:39Z</time>
      </trkpt>
      <trkpt lat="43.65709" lon="1.39165">
        <ele>124</ele>
        <time>2023-07-02T09:28:40Z</time>
      </trkpt>
      <trkpt lat="43.65712" lon="1.39167">
        <ele>124</ele>
        <time>2023-07-02T09:28:41Z</time>
      </trkpt>
      <trkpt lat="43.65715" lon="1.39168">
        <ele>125</ele>
        <time>2023-07-02T09:28:42Z</time>
      </trkpt>
      <trkpt lat="43.65718" lon="1.39169">
        <ele>125</ele>
        <time>2023-07-02T09:28:43Z</time>
      </trkpt>
      <trkpt lat="43.6572" lon="1.39171">
        <ele>125</ele>
        <time>2023-07-02T09:28:44Z</time>
      </trkpt>
      <trkpt lat="43.65722" lon="1.39171">
        <ele>125</ele>
        <time>2023-07-02T09:28:45Z</time>
      </trkpt>
      <trkpt lat="43.65724" lon="1.39172">
        <ele>125</ele>
        <time>2023-07-02T09:28:46Z</time>
      </trkpt>
      <trkpt lat="43.65726" lon="1.39173">
        <ele>125</ele>
        <time>2023-07-02T09:28:47Z</time>
      </trkpt>
      <trkpt lat="43.65726" lon="1.39173">
        <ele>125</ele>
        <time>2023-07-02T09:28:48Z</time>
      </trkpt>
      <trkpt lat="43.65726" lon="1.39173">
        <ele>125</ele>
        <time>2023-07-02T09:28:49Z</time>
      </trkpt>
      <trkpt lat="43.65734" lon="1.39178">
        <ele>125</ele>
        <time>2023-07-02T09:28:51Z</time>
      </trkpt>
      <trkpt lat="43.65737" lon="1.39178">
        <ele>125</ele>
        <time>2023-07-02T09:28:52Z</time>
      </trkpt>
      <trkpt lat="43.6574" lon="1.3918">
        <ele>126</ele>
        <time>2023-07-02T09:28:53Z</time>
      </trkpt>
      <trkpt lat="43.65742" lon="1.39181">
        <ele>126</ele>
        <time>2023-07-02T09:28:54Z</time>
      </trkpt>
      <trkpt lat="43.65749" lon="1.39186">
        <ele>126</ele>
        <time>2023-07-02T09:28:56Z</time>
      </trkpt>
      <trkpt lat="43.65751" lon="1.3919">
        <ele>126</ele>
        <time>2023-07-02T09:28:57Z</time>
      </trkpt>
      <trkpt lat="43.65753" lon="1.39193">
        <ele>126</ele>
        <time>2023-07-02T09:28:58Z</time>
      </trkpt>
      <trkpt lat="43.65754" lon="1.39196">
        <ele>126</ele>
        <time>2023-07-02T09:28:59Z</time>
      </trkpt>
      <trkpt lat="43.65756" lon="1.39198">
        <ele>125</ele>
        <time>2023-07-02T09:29:00Z</time>
      </trkpt>
      <trkpt lat="43.65758" lon="1.392">
        <ele>125</ele>
        <time>2023-07-02T09:29:01Z</time>
      </trkpt>
      <trkpt lat="43.65761" lon="1.39203">
        <ele>126</ele>
        <time>2023-07-02T09:29:02Z</time>
      </trkpt>
      <trkpt lat="43.65763" lon="1.39205">
        <ele>126</ele>
        <time>2023-07-02T09:29:03Z</time>
      </trkpt>
      <trkpt lat="43.65765" lon="1.39207">
        <ele>126</ele>
        <time>2023-07-02T09:29:04Z</time>
      </trkpt>
      <trkpt lat="43.65767" lon="1.3921">
        <ele>126</ele>
        <time>2023-07-02T09:29:05Z</time>
      </trkpt>
      <trkpt lat="43.6577" lon="1.39211">
        <ele>126</ele>
        <time>2023-07-02T09:29:06Z</time>
      </trkpt>
      <trkpt lat="43.65773" lon="1.39212">
        <ele>126</ele>
        <time>2023-07-02T09:29:07Z</time>
      </trkpt>
      <trkpt lat="43.65776" lon="1.39212">
        <ele>126</ele>
        <time>2023-07-02T09:29:08Z</time>
      </trkpt>
      <trkpt lat="43.65782" lon="1.39212">
        <ele>125</ele>
        <time>2023-07-02T09:29:10Z</time>
      </trkpt>
      <trkpt lat="43.65788" lon="1.39213">
        <ele>124</ele>
        <time>2023-07-02T09:29:12Z</time>
      </trkpt>
      <trkpt lat="43.65791" lon="1.39216">
        <ele>124</ele>
        <time>2023-07-02T09:29:13Z</time>
      </trkpt>
      <trkpt lat="43.65793" lon="1.39218">
        <ele>124</ele>
        <time>2023-07-02T09:29:14Z</time>
      </trkpt>
      <trkpt lat="43.65795" lon="1.39219">
        <ele>124</ele>
        <time>2023-07-02T09:29:15Z</time>
      </trkpt>
      <trkpt lat="43.65797" lon="1.3922">
        <ele>124</ele>
        <time>2023-07-02T09:29:16Z</time>
      </trkpt>
      <trkpt lat="43.658" lon="1.39222">
        <ele>124</ele>
        <time>2023-07-02T09:29:17Z</time>
      </trkpt>
      <trkpt lat="43.65802" lon="1.39222">
        <ele>124</ele>
        <time>2023-07-02T09:29:18Z</time>
      </trkpt>
      <trkpt lat="43.65804" lon="1.39223">
        <ele>124</ele>
        <time>2023-07-02T09:29:19Z</time>
      </trkpt>
      <trkpt lat="43.65804" lon="1.39223">
        <ele>125</ele>
        <time>2023-07-02T09:29:20Z</time>
      </trkpt>
      <trkpt lat="43.65808" lon="1.39224">
        <ele>125</ele>
        <time>2023-07-02T09:29:21Z</time>
      </trkpt>
      <trkpt lat="43.6581" lon="1.39224">
        <ele>125</ele>
        <time>2023-07-02T09:29:22Z</time>
      </trkpt>
      <trkpt lat="43.65812" lon="1.39225">
        <ele>125</ele>
        <time>2023-07-02T09:29:23Z</time>
      </trkpt>
      <trkpt lat="43.65814" lon="1.39225">
        <ele>125</ele>
        <time>2023-07-02T09:29:24Z</time>
      </trkpt>
      <trkpt lat="43.65816" lon="1.39226">
        <ele>125</ele>
        <time>2023-07-02T09:29:25Z</time>
      </trkpt>
      <trkpt lat="43.65816" lon="1.39226">
        <ele>125</ele>
        <time>2023-07-02T09:29:26Z</time>
      </trkpt>
      <trkpt lat="43.65818" lon="1.39228">
        <ele>125</ele>
        <time>2023-07-02T09:29:27Z</time>
      </trkpt>
      <trkpt lat="43.65821" lon="1.3923">
        <ele>124</ele>
        <time>2023-07-02T09:29:29Z</time>
      </trkpt>
      <trkpt lat="43.65823" lon="1.39231">
        <ele>124</ele>
        <time>2023-07-02T09:29:30Z</time>
      </trkpt>
      <trkpt lat="43.65825" lon="1.39233">
        <ele>124</ele>
        <time>2023-07-02T09:29:31Z</time>
      </trkpt>
      <trkpt lat="43.65825" lon="1.39233">
        <ele>124</ele>
        <time>2023-07-02T09:29:32Z</time>
      </trkpt>
      <trkpt lat="43.65825" lon="1.39233">
        <ele>124</ele>
        <time>2023-07-02T09:29:33Z</time>
      </trkpt>
      <trkpt lat="43.65833" lon="1.3924">
        <ele>124</ele>
        <time>2023-07-02T09:29:34Z</time>
      </trkpt>
      <trkpt lat="43.65833" lon="1.3924">
        <ele>124</ele>
        <time>2023-07-02T09:29:36Z</time>
      </trkpt>
      <trkpt lat="43.65836" lon="1.39242">
        <ele>124</ele>
        <time>2023-07-02T09:29:37Z</time>
      </trkpt>
      <trkpt lat="43.65839" lon="1.39244">
        <ele>124</ele>
        <time>2023-07-02T09:29:38Z</time>
      </trkpt>
      <trkpt lat="43.65843" lon="1.39247">
        <ele>124</ele>
        <time>2023-07-02T09:29:39Z</time>
      </trkpt>
      <trkpt lat="43.65846" lon="1.39246">
        <ele>124</ele>
        <time>2023-07-02T09:29:40Z</time>
      </trkpt>
      <trkpt lat="43.6585" lon="1.39245">
        <ele>124</ele>
        <time>2023-07-02T09:29:41Z</time>
      </trkpt>
      <trkpt lat="43.65854" lon="1.39244">
        <ele>124</ele>
        <time>2023-07-02T09:29:42Z</time>
      </trkpt>
      <trkpt lat="43.65858" lon="1.39243">
        <ele>124</ele>
        <time>2023-07-02T09:29:43Z</time>
      </trkpt>
      <trkpt lat="43.65862" lon="1.39243">
        <ele>124</ele>
        <time>2023-07-02T09:29:44Z</time>
      </trkpt>
      <trkpt lat="43.65865" lon="1.39242">
        <ele>124</ele>
        <time>2023-07-02T09:29:45Z</time>
      </trkpt>
      <trkpt lat="43.65865" lon="1.39242">
        <ele>124</ele>
        <time>2023-07-02T09:29:46Z</time>
      </trkpt>
      <trkpt lat="43.65874" lon="1.39243">
        <ele>124</ele>
        <time>2023-07-02T09:29:48Z</time>
      </trkpt>
      <trkpt lat="43.65874" lon="1.39243">
        <ele>124</ele>
        <time>2023-07-02T09:29:49Z</time>
      </trkpt>
      <trkpt lat="43.65874" lon="1.39243">
        <ele>124</ele>
        <time>2023-07-02T09:29:50Z</time>
      </trkpt>
      <trkpt lat="43.65874" lon="1.39243">
        <ele>124</ele>
        <time>2023-07-02T09:29:51Z</time>
      </trkpt>
      <trkpt lat="43.65884" lon="1.39245">
        <ele>124</ele>
        <time>2023-07-02T09:29:52Z</time>
      </trkpt>
      <trkpt lat="43.65884" lon="1.39245">
        <ele>124</ele>
        <time>2023-07-02T09:29:54Z</time>
      </trkpt>
      <trkpt lat="43.65887" lon="1.39246">
        <ele>124</ele>
        <time>2023-07-02T09:29:55Z</time>
      </trkpt>
      <trkpt lat="43.65889" lon="1.39247">
        <ele>124</ele>
        <time>2023-07-02T09:29:56Z</time>
      </trkpt>
      <trkpt lat="43.65892" lon="1.39247">
        <ele>124</ele>
        <time>2023-07-02T09:29:57Z</time>
      </trkpt>
      <trkpt lat="43.65894" lon="1.39248">
        <ele>124</ele>
        <time>2023-07-02T09:29:58Z</time>
      </trkpt>
      <trkpt lat="43.65896" lon="1.39248">
        <ele>124</ele>
        <time>2023-07-02T09:29:59Z</time>
      </trkpt>
      <trkpt lat="43.65899" lon="1.39249">
        <ele>124</ele>
        <time>2023-07-02T09:30:00Z</time>
      </trkpt>
      <trkpt lat="43.65901" lon="1.39249">
        <ele>124</ele>
        <time>2023-07-02T09:30:01Z</time>
      </trkpt>
      <trkpt lat="43.65903" lon="1.3925">
        <ele>124</ele>
        <time>2023-07-02T09:30:02Z</time>
      </trkpt>
      <trkpt lat="43.65906" lon="1.3925">
        <ele>124</ele>
        <time>2023-07-02T09:30:03Z</time>
      </trkpt>
      <trkpt lat="43.65906" lon="1.3925">
        <ele>124</ele>
        <time>2023-07-02T09:30:04Z</time>
      </trkpt>
      <trkpt lat="43.65906" lon="1.3925">
        <ele>124</ele>
        <time>2023-07-02T09:30:05Z</time>
      </trkpt>
      <trkpt lat="43.65915" lon="1.39253">
        <ele>124</ele>
        <time>2023-07-02T09:30:07Z</time>
      </trkpt>
      <trkpt lat="43.65915" lon="1.39253">
        <ele>124</ele>
        <time>2023-07-02T09:30:08Z</time>
      </trkpt>
      <trkpt lat="43.65915" lon="1.39253">
        <ele>124</ele>
        <time>2023-07-02T09:30:09Z</time>
      </trkpt>
      <trkpt lat="43.65915" lon="1.39253">
        <ele>124</ele>
        <time>2023-07-02T09:30:10Z</time>
      </trkpt>
      <trkpt lat="43.65927" lon="1.39251">
        <ele>124</ele>
        <time>2023-07-02T09:30:11Z</time>
      </trkpt>
      <trkpt lat="43.65927" lon="1.39251">
        <ele>124</ele>
        <time>2023-07-02T09:30:13Z</time>
      </trkpt>
      <trkpt lat="43.6593" lon="1.3925">
        <ele>124</ele>
        <time>2023-07-02T09:30:14Z</time>
      </trkpt>
      <trkpt lat="43.65933" lon="1.39249">
        <ele>124</ele>
        <time>2023-07-02T09:30:15Z</time>
      </trkpt>
      <trkpt lat="43.65937" lon="1.39248">
        <ele>124</ele>
        <time>2023-07-02T09:30:16Z</time>
      </trkpt>
      <trkpt lat="43.6594" lon="1.39247">
        <ele>124</ele>
        <time>2023-07-02T09:30:17Z</time>
      </trkpt>
      <trkpt lat="43.65943" lon="1.39246">
        <ele>124</ele>
        <time>2023-07-02T09:30:18Z</time>
      </trkpt>
      <trkpt lat="43.65946" lon="1.39244">
        <ele>124</ele>
        <time>2023-07-02T09:30:19Z</time>
      </trkpt>
      <trkpt lat="43.65948" lon="1.39244">
        <ele>124</ele>
        <time>2023-07-02T09:30:20Z</time>
      </trkpt>
      <trkpt lat="43.65951" lon="1.39243">
        <ele>124</ele>
        <time>2023-07-02T09:30:21Z</time>
      </trkpt>
      <trkpt lat="43.65954" lon="1.39242">
        <ele>124</ele>
        <time>2023-07-02T09:30:22Z</time>
      </trkpt>
      <trkpt lat="43.65957" lon="1.39242">
        <ele>124</ele>
        <time>2023-07-02T09:30:23Z</time>
      </trkpt>
      <trkpt lat="43.6596" lon="1.39241">
        <ele>124</ele>
        <time>2023-07-02T09:30:24Z</time>
      </trkpt>
      <trkpt lat="43.65964" lon="1.3924">
        <ele>124</ele>
        <time>2023-07-02T09:30:26Z</time>
      </trkpt>
      <trkpt lat="43.65967" lon="1.39239">
        <ele>124</ele>
        <time>2023-07-02T09:30:27Z</time>
      </trkpt>
      <trkpt lat="43.65967" lon="1.39239">
        <ele>124</ele>
        <time>2023-07-02T09:30:28Z</time>
      </trkpt>
      <trkpt lat="43.65976" lon="1.39233">
        <ele>124</ele>
        <time>2023-07-02T09:30:29Z</time>
      </trkpt>
      <trkpt lat="43.65976" lon="1.39233">
        <ele>124</ele>
        <time>2023-07-02T09:30:31Z</time>
      </trkpt>
      <trkpt lat="43.65979" lon="1.39231">
        <ele>124</ele>
        <time>2023-07-02T09:30:32Z</time>
      </trkpt>
      <trkpt lat="43.65983" lon="1.39229">
        <ele>124</ele>
        <time>2023-07-02T09:30:33Z</time>
      </trkpt>
      <trkpt lat="43.65986" lon="1.39227">
        <ele>124</ele>
        <time>2023-07-02T09:30:34Z</time>
      </trkpt>
      <trkpt lat="43.65988" lon="1.39226">
        <ele>124</ele>
        <time>2023-07-02T09:30:35Z</time>
      </trkpt>
      <trkpt lat="43.6599" lon="1.39224">
        <ele>124</ele>
        <time>2023-07-02T09:30:36Z</time>
      </trkpt>
      <trkpt lat="43.65993" lon="1.39223">
        <ele>124</ele>
        <time>2023-07-02T09:30:37Z</time>
      </trkpt>
      <trkpt lat="43.65995" lon="1.39221">
        <ele>124</ele>
        <time>2023-07-02T09:30:38Z</time>
      </trkpt>
      <trkpt lat="43.65997" lon="1.3922">
        <ele>124</ele>
        <time>2023-07-02T09:30:39Z</time>
      </trkpt>
      <trkpt lat="43.66" lon="1.39219">
        <ele>124</ele>
        <time>2023-07-02T09:30:40Z</time>
      </trkpt>
      <trkpt lat="43.66002" lon="1.39217">
        <ele>124</ele>
        <time>2023-07-02T09:30:41Z</time>
      </trkpt>
      <trkpt lat="43.66005" lon="1.39216">
        <ele>124</ele>
        <time>2023-07-02T09:30:42Z</time>
      </trkpt>
      <trkpt lat="43.66008" lon="1.39215">
        <ele>124</ele>
        <time>2023-07-02T09:30:43Z</time>
      </trkpt>
      <trkpt lat="43.66012" lon="1.39213">
        <ele>124</ele>
        <time>2023-07-02T09:30:45Z</time>
      </trkpt>
      <trkpt lat="43.66016" lon="1.39212">
        <ele>124</ele>
        <time>2023-07-02T09:30:46Z</time>
      </trkpt>
      <trkpt lat="43.66016" lon="1.39212">
        <ele>124</ele>
        <time>2023-07-02T09:30:47Z</time>
      </trkpt>
      <trkpt lat="43.66016" lon="1.39212">
        <ele>124</ele>
        <time>2023-07-02T09:30:48Z</time>
      </trkpt>
      <trkpt lat="43.66025" lon="1.39211">
        <ele>124</ele>
        <time>2023-07-02T09:30:49Z</time>
      </trkpt>
      <trkpt lat="43.66025" lon="1.39211">
        <ele>124</ele>
        <time>2023-07-02T09:30:51Z</time>
      </trkpt>
      <trkpt lat="43.66029" lon="1.3921">
        <ele>124</ele>
        <time>2023-07-02T09:30:52Z</time>
      </trkpt>
      <trkpt lat="43.66032" lon="1.3921">
        <ele>124</ele>
        <time>2023-07-02T09:30:53Z</time>
      </trkpt>
      <trkpt lat="43.66036" lon="1.39209">
        <ele>124</ele>
        <time>2023-07-02T09:30:54Z</time>
      </trkpt>
      <trkpt lat="43.66038" lon="1.39209">
        <ele>124</ele>
        <time>2023-07-02T09:30:55Z</time>
      </trkpt>
      <trkpt lat="43.6604" lon="1.39209">
        <ele>124</ele>
        <time>2023-07-02T09:30:56Z</time>
      </trkpt>
      <trkpt lat="43.66043" lon="1.39209">
        <ele>123</ele>
        <time>2023-07-02T09:30:57Z</time>
      </trkpt>
      <trkpt lat="43.66045" lon="1.39209">
        <ele>123</ele>
        <time>2023-07-02T09:30:58Z</time>
      </trkpt>
      <trkpt lat="43.66048" lon="1.39209">
        <ele>124</ele>
        <time>2023-07-02T09:30:59Z</time>
      </trkpt>
      <trkpt lat="43.66051" lon="1.39208">
        <ele>124</ele>
        <time>2023-07-02T09:31:00Z</time>
      </trkpt>
      <trkpt lat="43.66054" lon="1.39207">
        <ele>124</ele>
        <time>2023-07-02T09:31:01Z</time>
      </trkpt>
      <trkpt lat="43.66056" lon="1.39207">
        <ele>124</ele>
        <time>2023-07-02T09:31:02Z</time>
      </trkpt>
      <trkpt lat="43.6606" lon="1.39205">
        <ele>124</ele>
        <time>2023-07-02T09:31:04Z</time>
      </trkpt>
      <trkpt lat="43.66063" lon="1.39204">
        <ele>124</ele>
        <time>2023-07-02T09:31:05Z</time>
      </trkpt>
      <trkpt lat="43.66066" lon="1.39203">
        <ele>124</ele>
        <time>2023-07-02T09:31:06Z</time>
      </trkpt>
      <trkpt lat="43.66066" lon="1.39203">
        <ele>124</ele>
        <time>2023-07-02T09:31:07Z</time>
      </trkpt>
      <trkpt lat="43.66066" lon="1.39203">
        <ele>124</ele>
        <time>2023-07-02T09:31:08Z</time>
      </trkpt>
      <trkpt lat="43.66066" lon="1.39203">
        <ele>124</ele>
        <time>2023-07-02T09:31:09Z</time>
      </trkpt>
      <trkpt lat="43.66076" lon="1.39198">
        <ele>124</ele>
        <time>2023-07-02T09:31:10Z</time>
      </trkpt>
      <trkpt lat="43.66076" lon="1.39198">
        <ele>124</ele>
        <time>2023-07-02T09:31:12Z</time>
      </trkpt>
      <trkpt lat="43.66079" lon="1.39197">
        <ele>124</ele>
        <time>2023-07-02T09:31:13Z</time>
      </trkpt>
      <trkpt lat="43.66082" lon="1.39196">
        <ele>124</ele>
        <time>2023-07-02T09:31:14Z</time>
      </trkpt>
      <trkpt lat="43.66085" lon="1.39195">
        <ele>124</ele>
        <time>2023-07-02T09:31:15Z</time>
      </trkpt>
      <trkpt lat="43.66088" lon="1.39195">
        <ele>124</ele>
        <time>2023-07-02T09:31:16Z</time>
      </trkpt>
      <trkpt lat="43.6609" lon="1.39194">
        <ele>124</ele>
        <time>2023-07-02T09:31:17Z</time>
      </trkpt>
      <trkpt lat="43.66092" lon="1.39193">
        <ele>124</ele>
        <time>2023-07-02T09:31:18Z</time>
      </trkpt>
      <trkpt lat="43.66094" lon="1.39193">
        <ele>123</ele>
        <time>2023-07-02T09:31:19Z</time>
      </trkpt>
      <trkpt lat="43.66094" lon="1.39193">
        <ele>123</ele>
        <time>2023-07-02T09:31:20Z</time>
      </trkpt>
      <trkpt lat="43.66094" lon="1.39193">
        <ele>123</ele>
        <time>2023-07-02T09:31:21Z</time>
      </trkpt>
      <trkpt lat="43.66104" lon="1.39189">
        <ele>123</ele>
        <time>2023-07-02T09:31:23Z</time>
      </trkpt>
      <trkpt lat="43.66106" lon="1.39188">
        <ele>123</ele>
        <time>2023-07-02T09:31:24Z</time>
      </trkpt>
      <trkpt lat="43.66109" lon="1.39187">
        <ele>123</ele>
        <time>2023-07-02T09:31:25Z</time>
      </trkpt>
      <trkpt lat="43.66112" lon="1.39185">
        <ele>124</ele>
        <time>2023-07-02T09:31:26Z</time>
      </trkpt>
      <trkpt lat="43.66114" lon="1.39184">
        <ele>124</ele>
        <time>2023-07-02T09:31:27Z</time>
      </trkpt>
      <trkpt lat="43.66114" lon="1.39184">
        <ele>124</ele>
        <time>2023-07-02T09:31:28Z</time>
      </trkpt>
      <trkpt lat="43.66114" lon="1.39184">
        <ele>124</ele>
        <time>2023-07-02T09:31:29Z</time>
      </trkpt>
      <trkpt lat="43.66123" lon="1.39177">
        <ele>124</ele>
        <time>2023-07-02T09:31:30Z</time>
      </trkpt>
      <trkpt lat="43.66123" lon="1.39177">
        <ele>124</ele>
        <time>2023-07-02T09:31:32Z</time>
      </trkpt>
      <trkpt lat="43.66131" lon="1.39171">
        <ele>124</ele>
        <time>2023-07-02T09:31:33Z</time>
      </trkpt>
      <trkpt lat="43.66131" lon="1.39171">
        <ele>124</ele>
        <time>2023-07-02T09:31:34Z</time>
      </trkpt>
      <trkpt lat="43.66133" lon="1.39171">
        <ele>124</ele>
        <time>2023-07-02T09:31:35Z</time>
      </trkpt>
      <trkpt lat="43.66136" lon="1.3917">
        <ele>124</ele>
        <time>2023-07-02T09:31:36Z</time>
      </trkpt>
      <trkpt lat="43.66139" lon="1.3917">
        <ele>124</ele>
        <time>2023-07-02T09:31:37Z</time>
      </trkpt>
      <trkpt lat="43.66141" lon="1.39169">
        <ele>124</ele>
        <time>2023-07-02T09:31:38Z</time>
      </trkpt>
      <trkpt lat="43.66141" lon="1.39169">
        <ele>124</ele>
        <time>2023-07-02T09:31:39Z</time>
      </trkpt>
      <trkpt lat="43.66141" lon="1.39169">
        <ele>124</ele>
        <time>2023-07-02T09:31:40Z</time>
      </trkpt>
      <trkpt lat="43.66152" lon="1.39164">
        <ele>124</ele>
        <time>2023-07-02T09:31:42Z</time>
      </trkpt>
      <trkpt lat="43.66155" lon="1.39163">
        <ele>124</ele>
        <time>2023-07-02T09:31:43Z</time>
      </trkpt>
      <trkpt lat="43.66157" lon="1.39162">
        <ele>124</ele>
        <time>2023-07-02T09:31:44Z</time>
      </trkpt>
      <trkpt lat="43.6616" lon="1.3916">
        <ele>123</ele>
        <time>2023-07-02T09:31:45Z</time>
      </trkpt>
      <trkpt lat="43.66162" lon="1.39159">
        <ele>123</ele>
        <time>2023-07-02T09:31:46Z</time>
      </trkpt>
      <trkpt lat="43.66162" lon="1.39159">
        <ele>124</ele>
        <time>2023-07-02T09:31:47Z</time>
      </trkpt>
      <trkpt lat="43.66162" lon="1.39159">
        <ele>124</ele>
        <time>2023-07-02T09:31:48Z</time>
      </trkpt>
      <trkpt lat="43.66172" lon="1.3915">
        <ele>124</ele>
        <time>2023-07-02T09:31:49Z</time>
      </trkpt>
      <trkpt lat="43.66172" lon="1.3915">
        <ele>124</ele>
        <time>2023-07-02T09:31:51Z</time>
      </trkpt>
      <trkpt lat="43.6618" lon="1.39143">
        <ele>123</ele>
        <time>2023-07-02T09:31:52Z</time>
      </trkpt>
      <trkpt lat="43.6618" lon="1.39143">
        <ele>123</ele>
        <time>2023-07-02T09:31:53Z</time>
      </trkpt>
      <trkpt lat="43.66182" lon="1.39142">
        <ele>123</ele>
        <time>2023-07-02T09:31:54Z</time>
      </trkpt>
      <trkpt lat="43.66184" lon="1.39141">
        <ele>123</ele>
        <time>2023-07-02T09:31:55Z</time>
      </trkpt>
      <trkpt lat="43.66187" lon="1.3914">
        <ele>123</ele>
        <time>2023-07-02T09:31:56Z</time>
      </trkpt>
      <trkpt lat="43.66189" lon="1.39138">
        <ele>123</ele>
        <time>2023-07-02T09:31:57Z</time>
      </trkpt>
      <trkpt lat="43.66189" lon="1.39138">
        <ele>123</ele>
        <time>2023-07-02T09:31:58Z</time>
      </trkpt>
      <trkpt lat="43.66199" lon="1.39141">
        <ele>124</ele>
        <time>2023-07-02T09:31:59Z</time>
      </trkpt>
      <trkpt lat="43.66199" lon="1.39141">
        <ele>124</ele>
        <time>2023-07-02T09:32:01Z</time>
      </trkpt>
      <trkpt lat="43.66207" lon="1.39149">
        <ele>124</ele>
        <time>2023-07-02T09:32:02Z</time>
      </trkpt>
      <trkpt lat="43.66211" lon="1.39154">
        <ele>124</ele>
        <time>2023-07-02T09:32:04Z</time>
      </trkpt>
      <trkpt lat="43.66214" lon="1.39157">
        <ele>124</ele>
        <time>2023-07-02T09:32:05Z</time>
      </trkpt>
      <trkpt lat="43.66217" lon="1.3916">
        <ele>124</ele>
        <time>2023-07-02T09:32:06Z</time>
      </trkpt>
      <trkpt lat="43.66217" lon="1.3916">
        <ele>124</ele>
        <time>2023-07-02T09:32:07Z</time>
      </trkpt>
      <trkpt lat="43.6622" lon="1.39163">
        <ele>124</ele>
        <time>2023-07-02T09:32:08Z</time>
      </trkpt>
      <trkpt lat="43.66222" lon="1.39165">
        <ele>124</ele>
        <time>2023-07-02T09:32:09Z</time>
      </trkpt>
      <trkpt lat="43.66225" lon="1.39168">
        <ele>124</ele>
        <time>2023-07-02T09:32:10Z</time>
      </trkpt>
      <trkpt lat="43.66227" lon="1.39169">
        <ele>124</ele>
        <time>2023-07-02T09:32:11Z</time>
      </trkpt>
      <trkpt lat="43.66227" lon="1.39169">
        <ele>124</ele>
        <time>2023-07-02T09:32:12Z</time>
      </trkpt>
      <trkpt lat="43.6623" lon="1.39168">
        <ele>124</ele>
        <time>2023-07-02T09:32:13Z</time>
      </trkpt>
      <trkpt lat="43.66232" lon="1.39166">
        <ele>124</ele>
        <time>2023-07-02T09:32:14Z</time>
      </trkpt>
      <trkpt lat="43.66234" lon="1.39165">
        <ele>124</ele>
        <time>2023-07-02T09:32:15Z</time>
      </trkpt>
      <trkpt lat="43.66236" lon="1.39163">
        <ele>124</ele>
        <time>2023-07-02T09:32:16Z</time>
      </trkpt>
      <trkpt lat="43.6624" lon="1.39158">
        <ele>124</ele>
        <time>2023-07-02T09:32:17Z</time>
      </trkpt>
      <trkpt lat="43.6624" lon="1.39158">
        <ele>124</ele>
        <time>2023-07-02T09:32:18Z</time>
      </trkpt>
      <trkpt lat="43.6624" lon="1.39154">
        <ele>124</ele>
        <time>2023-07-02T09:32:20Z</time>
      </trkpt>
      <trkpt lat="43.66241" lon="1.3915">
        <ele>124</ele>
        <time>2023-07-02T09:32:21Z</time>
      </trkpt>
      <trkpt lat="43.66242" lon="1.39146">
        <ele>124</ele>
        <time>2023-07-02T09:32:22Z</time>
      </trkpt>
      <trkpt lat="43.66242" lon="1.39146">
        <ele>124</ele>
        <time>2023-07-02T09:32:23Z</time>
      </trkpt>
      <trkpt lat="43.66242" lon="1.39138">
        <ele>124</ele>
        <time>2023-07-02T09:32:24Z</time>
      </trkpt>
      <trkpt lat="43.6624" lon="1.3913">
        <ele>124</ele>
        <time>2023-07-02T09:32:26Z</time>
      </trkpt>
      <trkpt lat="43.6624" lon="1.39126">
        <ele>124</ele>
        <time>2023-07-02T09:32:27Z</time>
      </trkpt>
      <trkpt lat="43.6624" lon="1.39122">
        <ele>124</ele>
        <time>2023-07-02T09:32:28Z</time>
      </trkpt>
      <trkpt lat="43.66241" lon="1.39117">
        <ele>124</ele>
        <time>2023-07-02T09:32:29Z</time>
      </trkpt>
      <trkpt lat="43.66241" lon="1.39113">
        <ele>124</ele>
        <time>2023-07-02T09:32:30Z</time>
      </trkpt>
      <trkpt lat="43.66242" lon="1.39109">
        <ele>124</ele>
        <time>2023-07-02T09:32:31Z</time>
      </trkpt>
      <trkpt lat="43.66243" lon="1.39107">
        <ele>123</ele>
        <time>2023-07-02T09:32:32Z</time>
      </trkpt>
      <trkpt lat="43.66243" lon="1.39107">
        <ele>123</ele>
        <time>2023-07-02T09:32:33Z</time>
      </trkpt>
      <trkpt lat="43.66245" lon="1.39103">
        <ele>123</ele>
        <time>2023-07-02T09:32:34Z</time>
      </trkpt>
      <trkpt lat="43.66247" lon="1.391">
        <ele>123</ele>
        <time>2023-07-02T09:32:35Z</time>
      </trkpt>
      <trkpt lat="43.66249" lon="1.39097">
        <ele>123</ele>
        <time>2023-07-02T09:32:36Z</time>
      </trkpt>
      <trkpt lat="43.6625" lon="1.39094">
        <ele>122</ele>
        <time>2023-07-02T09:32:37Z</time>
      </trkpt>
      <trkpt lat="43.6625" lon="1.39094">
        <ele>122</ele>
        <time>2023-07-02T09:32:39Z</time>
      </trkpt>
      <trkpt lat="43.66255" lon="1.39082">
        <ele>122</ele>
        <time>2023-07-02T09:32:40Z</time>
      </trkpt>
      <trkpt lat="43.66255" lon="1.39082">
        <ele>122</ele>
        <time>2023-07-02T09:32:42Z</time>
      </trkpt>
      <trkpt lat="43.66257" lon="1.39077">
        <ele>122</ele>
        <time>2023-07-02T09:32:43Z</time>
      </trkpt>
      <trkpt lat="43.66258" lon="1.39073">
        <ele>122</ele>
        <time>2023-07-02T09:32:44Z</time>
      </trkpt>
      <trkpt lat="43.6626" lon="1.39069">
        <ele>121</ele>
        <time>2023-07-02T09:32:45Z</time>
      </trkpt>
      <trkpt lat="43.6626" lon="1.39066">
        <ele>121</ele>
        <time>2023-07-02T09:32:46Z</time>
      </trkpt>
      <trkpt lat="43.6626" lon="1.39063">
        <ele>122</ele>
        <time>2023-07-02T09:32:47Z</time>
      </trkpt>
      <trkpt lat="43.6626" lon="1.3906">
        <ele>122</ele>
        <time>2023-07-02T09:32:48Z</time>
      </trkpt>
      <trkpt lat="43.6626" lon="1.39057">
        <ele>122</ele>
        <time>2023-07-02T09:32:49Z</time>
      </trkpt>
      <trkpt lat="43.6626" lon="1.39054">
        <ele>122</ele>
        <time>2023-07-02T09:32:50Z</time>
      </trkpt>
      <trkpt lat="43.66262" lon="1.39051">
        <ele>122</ele>
        <time>2023-07-02T09:32:51Z</time>
      </trkpt>
      <trkpt lat="43.66263" lon="1.39047">
        <ele>122</ele>
        <time>2023-07-02T09:32:52Z</time>
      </trkpt>
      <trkpt lat="43.66264" lon="1.39043">
        <ele>122</ele>
        <time>2023-07-02T09:32:53Z</time>
      </trkpt>
      <trkpt lat="43.66265" lon="1.39039">
        <ele>122</ele>
        <time>2023-07-02T09:32:54Z</time>
      </trkpt>
      <trkpt lat="43.66266" lon="1.39038">
        <ele>122</ele>
        <time>2023-07-02T09:32:55Z</time>
      </trkpt>
      <trkpt lat="43.66269" lon="1.39033">
        <ele>122</ele>
        <time>2023-07-02T09:32:56Z</time>
      </trkpt>
      <trkpt lat="43.66271" lon="1.39029">
        <ele>122</ele>
        <time>2023-07-02T09:32:58Z</time>
      </trkpt>
      <trkpt lat="43.66274" lon="1.39024">
        <ele>122</ele>
        <time>2023-07-02T09:32:59Z</time>
      </trkpt>
      <trkpt lat="43.66275" lon="1.39023">
        <ele>121</ele>
        <time>2023-07-02T09:33:00Z</time>
      </trkpt>
      <trkpt lat="43.66275" lon="1.39023">
        <ele>121</ele>
        <time>2023-07-02T09:33:01Z</time>
      </trkpt>
      <trkpt lat="43.66275" lon="1.39023">
        <ele>121</ele>
        <time>2023-07-02T09:33:02Z</time>
      </trkpt>
      <trkpt lat="43.66281" lon="1.39011">
        <ele>121</ele>
        <time>2023-07-02T09:33:03Z</time>
      </trkpt>
      <trkpt lat="43.66284" lon="1.39006">
        <ele>122</ele>
        <time>2023-07-02T09:33:05Z</time>
      </trkpt>
      <trkpt lat="43.66286" lon="1.39003">
        <ele>122</ele>
        <time>2023-07-02T09:33:06Z</time>
      </trkpt>
      <trkpt lat="43.66286" lon="1.39003">
        <ele>122</ele>
        <time>2023-07-02T09:33:07Z</time>
      </trkpt>
      <trkpt lat="43.66288" lon="1.38998">
        <ele>122</ele>
        <time>2023-07-02T09:33:08Z</time>
      </trkpt>
      <trkpt lat="43.6629" lon="1.38994">
        <ele>122</ele>
        <time>2023-07-02T09:33:09Z</time>
      </trkpt>
      <trkpt lat="43.66293" lon="1.3899">
        <ele>122</ele>
        <time>2023-07-02T09:33:10Z</time>
      </trkpt>
      <trkpt lat="43.66294" lon="1.38986">
        <ele>122</ele>
        <time>2023-07-02T09:33:11Z</time>
      </trkpt>
      <trkpt lat="43.66296" lon="1.38983">
        <ele>122</ele>
        <time>2023-07-02T09:33:12Z</time>
      </trkpt>
      <trkpt lat="43.66298" lon="1.3898">
        <ele>122</ele>
        <time>2023-07-02T09:33:13Z</time>
      </trkpt>
      <trkpt lat="43.663" lon="1.38977">
        <ele>122</ele>
        <time>2023-07-02T09:33:14Z</time>
      </trkpt>
      <trkpt lat="43.66302" lon="1.38974">
        <ele>122</ele>
        <time>2023-07-02T09:33:15Z</time>
      </trkpt>
      <trkpt lat="43.66303" lon="1.38972">
        <ele>122</ele>
        <time>2023-07-02T09:33:17Z</time>
      </trkpt>
      <trkpt lat="43.66303" lon="1.38972">
        <ele>122</ele>
        <time>2023-07-02T09:33:18Z</time>
      </trkpt>
      <trkpt lat="43.66303" lon="1.38972">
        <ele>122</ele>
        <time>2023-07-02T09:33:19Z</time>
      </trkpt>
      <trkpt lat="43.66311" lon="1.38961">
        <ele>122</ele>
        <time>2023-07-02T09:33:20Z</time>
      </trkpt>
      <trkpt lat="43.66316" lon="1.38958">
        <ele>121</ele>
        <time>2023-07-02T09:33:22Z</time>
      </trkpt>
      <trkpt lat="43.66316" lon="1.38958">
        <ele>122</ele>
        <time>2023-07-02T09:33:23Z</time>
      </trkpt>
      <trkpt lat="43.66321" lon="1.38953">
        <ele>122</ele>
        <time>2023-07-02T09:33:24Z</time>
      </trkpt>
      <trkpt lat="43.66321" lon="1.38952">
        <ele>122</ele>
        <time>2023-07-02T09:33:25Z</time>
      </trkpt>
      <trkpt lat="43.66321" lon="1.38952">
        <ele>122</ele>
        <time>2023-07-02T09:33:26Z</time>
      </trkpt>
      <trkpt lat="43.66323" lon="1.3895">
        <ele>122</ele>
        <time>2023-07-02T09:33:27Z</time>
      </trkpt>
      <trkpt lat="43.66325" lon="1.38948">
        <ele>123</ele>
        <time>2023-07-02T09:33:28Z</time>
      </trkpt>
      <trkpt lat="43.66326" lon="1.38946">
        <ele>123</ele>
        <time>2023-07-02T09:33:29Z</time>
      </trkpt>
      <trkpt lat="43.66328" lon="1.38943">
        <ele>123</ele>
        <time>2023-07-02T09:33:30Z</time>
      </trkpt>
      <trkpt lat="43.6633" lon="1.38939">
        <ele>123</ele>
        <time>2023-07-02T09:33:31Z</time>
      </trkpt>
      <trkpt lat="43.66333" lon="1.38935">
        <ele>123</ele>
        <time>2023-07-02T09:33:32Z</time>
      </trkpt>
      <trkpt lat="43.66335" lon="1.38931">
        <ele>122</ele>
        <time>2023-07-02T09:33:33Z</time>
      </trkpt>
      <trkpt lat="43.66338" lon="1.38927">
        <ele>122</ele>
        <time>2023-07-02T09:33:34Z</time>
      </trkpt>
      <trkpt lat="43.66343" lon="1.38919">
        <ele>122</ele>
        <time>2023-07-02T09:33:36Z</time>
      </trkpt>
      <trkpt lat="43.66344" lon="1.38918">
        <ele>122</ele>
        <time>2023-07-02T09:33:37Z</time>
      </trkpt>
      <trkpt lat="43.66348" lon="1.38912">
        <ele>122</ele>
        <time>2023-07-02T09:33:39Z</time>
      </trkpt>
      <trkpt lat="43.6635" lon="1.3891">
        <ele>122</ele>
        <time>2023-07-02T09:33:40Z</time>
      </trkpt>
      <trkpt lat="43.6635" lon="1.3891">
        <ele>122</ele>
        <time>2023-07-02T09:33:41Z</time>
      </trkpt>
      <trkpt lat="43.66352" lon="1.38907">
        <ele>122</ele>
        <time>2023-07-02T09:33:42Z</time>
      </trkpt>
      <trkpt lat="43.66354" lon="1.38905">
        <ele>122</ele>
        <time>2023-07-02T09:33:43Z</time>
      </trkpt>
      <trkpt lat="43.66355" lon="1.38902">
        <ele>122</ele>
        <time>2023-07-02T09:33:44Z</time>
      </trkpt>
      <trkpt lat="43.66357" lon="1.38899">
        <ele>121</ele>
        <time>2023-07-02T09:33:45Z</time>
      </trkpt>
      <trkpt lat="43.66358" lon="1.38897">
        <ele>121</ele>
        <time>2023-07-02T09:33:46Z</time>
      </trkpt>
      <trkpt lat="43.6636" lon="1.38895">
        <ele>121</ele>
        <time>2023-07-02T09:33:47Z</time>
      </trkpt>
      <trkpt lat="43.66361" lon="1.38893">
        <ele>122</ele>
        <time>2023-07-02T09:33:48Z</time>
      </trkpt>
      <trkpt lat="43.66362" lon="1.38891">
        <ele>122</ele>
        <time>2023-07-02T09:33:49Z</time>
      </trkpt>
      <trkpt lat="43.66368" lon="1.38884">
        <ele>122</ele>
        <time>2023-07-02T09:33:50Z</time>
      </trkpt>
      <trkpt lat="43.66368" lon="1.38884">
        <ele>122</ele>
        <time>2023-07-02T09:33:51Z</time>
      </trkpt>
      <trkpt lat="43.66368" lon="1.38884">
        <ele>122</ele>
        <time>2023-07-02T09:33:52Z</time>
      </trkpt>
      <trkpt lat="43.66368" lon="1.38884">
        <ele>122</ele>
        <time>2023-07-02T09:33:53Z</time>
      </trkpt>
      <trkpt lat="43.66374" lon="1.38874">
        <ele>122</ele>
        <time>2023-07-02T09:33:55Z</time>
      </trkpt>
      <trkpt lat="43.66377" lon="1.38872">
        <ele>122</ele>
        <time>2023-07-02T09:33:56Z</time>
      </trkpt>
      <trkpt lat="43.66377" lon="1.38872">
        <ele>122</ele>
        <time>2023-07-02T09:33:57Z</time>
      </trkpt>
      <trkpt lat="43.66377" lon="1.38872">
        <ele>121</ele>
        <time>2023-07-02T09:33:58Z</time>
      </trkpt>
      <trkpt lat="43.66385" lon="1.38862">
        <ele>121</ele>
        <time>2023-07-02T09:33:59Z</time>
      </trkpt>
      <trkpt lat="43.66387" lon="1.38859">
        <ele>120</ele>
        <time>2023-07-02T09:34:01Z</time>
      </trkpt>
      <trkpt lat="43.6639" lon="1.38855">
        <ele>121</ele>
        <time>2023-07-02T09:34:02Z</time>
      </trkpt>
      <trkpt lat="43.6639" lon="1.38855">
        <ele>121</ele>
        <time>2023-07-02T09:34:03Z</time>
      </trkpt>
      <trkpt lat="43.66395" lon="1.38851">
        <ele>121</ele>
        <time>2023-07-02T09:34:04Z</time>
      </trkpt>
      <trkpt lat="43.66395" lon="1.38851">
        <ele>121</ele>
        <time>2023-07-02T09:34:05Z</time>
      </trkpt>
      <trkpt lat="43.66398" lon="1.38849">
        <ele>121</ele>
        <time>2023-07-02T09:34:06Z</time>
      </trkpt>
      <trkpt lat="43.664" lon="1.38847">
        <ele>121</ele>
        <time>2023-07-02T09:34:07Z</time>
      </trkpt>
      <trkpt lat="43.66403" lon="1.38845">
        <ele>122</ele>
        <time>2023-07-02T09:34:08Z</time>
      </trkpt>
      <trkpt lat="43.66408" lon="1.38841">
        <ele>122</ele>
        <time>2023-07-02T09:34:09Z</time>
      </trkpt>
      <trkpt lat="43.66408" lon="1.38841">
        <ele>123</ele>
        <time>2023-07-02T09:34:10Z</time>
      </trkpt>
      <trkpt lat="43.66412" lon="1.38838">
        <ele>123</ele>
        <time>2023-07-02T09:34:11Z</time>
      </trkpt>
      <trkpt lat="43.66414" lon="1.38837">
        <ele>122</ele>
        <time>2023-07-02T09:34:12Z</time>
      </trkpt>
      <trkpt lat="43.66416" lon="1.38835">
        <ele>122</ele>
        <time>2023-07-02T09:34:14Z</time>
      </trkpt>
      <trkpt lat="43.6642" lon="1.38831">
        <ele>122</ele>
        <time>2023-07-02T09:34:15Z</time>
      </trkpt>
      <trkpt lat="43.66423" lon="1.3883">
        <ele>122</ele>
        <time>2023-07-02T09:34:17Z</time>
      </trkpt>
      <trkpt lat="43.66427" lon="1.38826">
        <ele>122</ele>
        <time>2023-07-02T09:34:18Z</time>
      </trkpt>
      <trkpt lat="43.6643" lon="1.38824">
        <ele>122</ele>
        <time>2023-07-02T09:34:19Z</time>
      </trkpt>
      <trkpt lat="43.66432" lon="1.38822">
        <ele>122</ele>
        <time>2023-07-02T09:34:20Z</time>
      </trkpt>
      <trkpt lat="43.66434" lon="1.38821">
        <ele>122</ele>
        <time>2023-07-02T09:34:21Z</time>
      </trkpt>
      <trkpt lat="43.66434" lon="1.38821">
        <ele>122</ele>
        <time>2023-07-02T09:34:22Z</time>
      </trkpt>
      <trkpt lat="43.66435" lon="1.3882">
        <ele>122</ele>
        <time>2023-07-02T09:34:23Z</time>
      </trkpt>
      <trkpt lat="43.66436" lon="1.3882">
        <ele>122</ele>
        <time>2023-07-02T09:34:24Z</time>
      </trkpt>
      <trkpt lat="43.66437" lon="1.38819">
        <ele>122</ele>
        <time>2023-07-02T09:34:25Z</time>
      </trkpt>
      <trkpt lat="43.66438" lon="1.38818">
        <ele>122</ele>
        <time>2023-07-02T09:34:26Z</time>
      </trkpt>
      <trkpt lat="43.66439" lon="1.38818">
        <ele>122</ele>
        <time>2023-07-02T09:34:27Z</time>
      </trkpt>
      <trkpt lat="43.66445" lon="1.38813">
        <ele>122</ele>
        <time>2023-07-02T09:34:28Z</time>
      </trkpt>
      <trkpt lat="43.66448" lon="1.3881">
        <ele>122</ele>
        <time>2023-07-02T09:34:29Z</time>
      </trkpt>
      <trkpt lat="43.6645" lon="1.38808">
        <ele>122</ele>
        <time>2023-07-02T09:34:30Z</time>
      </trkpt>
      <trkpt lat="43.66452" lon="1.38806">
        <ele>122</ele>
        <time>2023-07-02T09:34:31Z</time>
      </trkpt>
      <trkpt lat="43.66452" lon="1.38806">
        <ele>122</ele>
        <time>2023-07-02T09:34:33Z</time>
      </trkpt>
      <trkpt lat="43.66463" lon="1.38799">
        <ele>122</ele>
        <time>2023-07-02T09:34:34Z</time>
      </trkpt>
      <trkpt lat="43.66463" lon="1.38799">
        <ele>122</ele>
        <time>2023-07-02T09:34:36Z</time>
      </trkpt>
      <trkpt lat="43.66465" lon="1.38796">
        <ele>122</ele>
        <time>2023-07-02T09:34:37Z</time>
      </trkpt>
      <trkpt lat="43.66467" lon="1.38793">
        <ele>122</ele>
        <time>2023-07-02T09:34:38Z</time>
      </trkpt>
      <trkpt lat="43.6647" lon="1.3879">
        <ele>122</ele>
        <time>2023-07-02T09:34:39Z</time>
      </trkpt>
      <trkpt lat="43.66472" lon="1.38788">
        <ele>122</ele>
        <time>2023-07-02T09:34:40Z</time>
      </trkpt>
      <trkpt lat="43.66475" lon="1.38786">
        <ele>122</ele>
        <time>2023-07-02T09:34:41Z</time>
      </trkpt>
      <trkpt lat="43.66477" lon="1.38783">
        <ele>122</ele>
        <time>2023-07-02T09:34:42Z</time>
      </trkpt>
      <trkpt lat="43.66479" lon="1.38781">
        <ele>122</ele>
        <time>2023-07-02T09:34:43Z</time>
      </trkpt>
      <trkpt lat="43.66482" lon="1.38778">
        <ele>122</ele>
        <time>2023-07-02T09:34:44Z</time>
      </trkpt>
      <trkpt lat="43.66485" lon="1.38776">
        <ele>122</ele>
        <time>2023-07-02T09:34:45Z</time>
      </trkpt>
      <trkpt lat="43.66488" lon="1.38773">
        <ele>122</ele>
        <time>2023-07-02T09:34:46Z</time>
      </trkpt>
      <trkpt lat="43.66491" lon="1.3877">
        <ele>122</ele>
        <time>2023-07-02T09:34:47Z</time>
      </trkpt>
      <trkpt lat="43.66493" lon="1.38767">
        <ele>122</ele>
        <time>2023-07-02T09:34:48Z</time>
      </trkpt>
      <trkpt lat="43.66495" lon="1.38765">
        <ele>121</ele>
        <time>2023-07-02T09:34:49Z</time>
      </trkpt>
      <trkpt lat="43.66495" lon="1.38765">
        <ele>121</ele>
        <time>2023-07-02T09:34:50Z</time>
      </trkpt>
      <trkpt lat="43.66497" lon="1.3876">
        <ele>121</ele>
        <time>2023-07-02T09:34:51Z</time>
      </trkpt>
      <trkpt lat="43.66498" lon="1.38759">
        <ele>121</ele>
        <time>2023-07-02T09:34:52Z</time>
      </trkpt>
      <trkpt lat="43.66501" lon="1.38753">
        <ele>121</ele>
        <time>2023-07-02T09:34:53Z</time>
      </trkpt>
      <trkpt lat="43.66506" lon="1.38749">
        <ele>122</ele>
        <time>2023-07-02T09:34:55Z</time>
      </trkpt>
      <trkpt lat="43.66508" lon="1.38747">
        <ele>122</ele>
        <time>2023-07-02T09:34:56Z</time>
      </trkpt>
      <trkpt lat="43.66508" lon="1.38747">
        <ele>121</ele>
        <time>2023-07-02T09:34:57Z</time>
      </trkpt>
      <trkpt lat="43.6651" lon="1.38746">
        <ele>122</ele>
        <time>2023-07-02T09:34:58Z</time>
      </trkpt>
      <trkpt lat="43.66513" lon="1.38742">
        <ele>122</ele>
        <time>2023-07-02T09:34:59Z</time>
      </trkpt>
      <trkpt lat="43.66513" lon="1.38742">
        <ele>122</ele>
        <time>2023-07-02T09:35:00Z</time>
      </trkpt>
      <trkpt lat="43.66517" lon="1.38738">
        <ele>122</ele>
        <time>2023-07-02T09:35:01Z</time>
      </trkpt>
      <trkpt lat="43.66517" lon="1.38738">
        <ele>122</ele>
        <time>2023-07-02T09:35:02Z</time>
      </trkpt>
      <trkpt lat="43.66522" lon="1.38734">
        <ele>122</ele>
        <time>2023-07-02T09:35:03Z</time>
      </trkpt>
      <trkpt lat="43.66524" lon="1.38732">
        <ele>122</ele>
        <time>2023-07-02T09:35:04Z</time>
      </trkpt>
      <trkpt lat="43.66527" lon="1.3873">
        <ele>122</ele>
        <time>2023-07-02T09:35:05Z</time>
      </trkpt>
      <trkpt lat="43.66527" lon="1.3873">
        <ele>122</ele>
        <time>2023-07-02T09:35:06Z</time>
      </trkpt>
      <trkpt lat="43.66531" lon="1.38727">
        <ele>122</ele>
        <time>2023-07-02T09:35:07Z</time>
      </trkpt>
      <trkpt lat="43.66534" lon="1.38725">
        <ele>122</ele>
        <time>2023-07-02T09:35:08Z</time>
      </trkpt>
      <trkpt lat="43.66534" lon="1.38725">
        <ele>122</ele>
        <time>2023-07-02T09:35:09Z</time>
      </trkpt>
      <trkpt lat="43.66538" lon="1.38722">
        <ele>122</ele>
        <time>2023-07-02T09:35:10Z</time>
      </trkpt>
      <trkpt lat="43.66539" lon="1.38721">
        <ele>122</ele>
        <time>2023-07-02T09:35:11Z</time>
      </trkpt>
      <trkpt lat="43.66544" lon="1.38718">
        <ele>122</ele>
        <time>2023-07-02T09:35:12Z</time>
      </trkpt>
      <trkpt lat="43.66545" lon="1.38718">
        <ele>122</ele>
        <time>2023-07-02T09:35:13Z</time>
      </trkpt>
      <trkpt lat="43.66551" lon="1.38719">
        <ele>122</ele>
        <time>2023-07-02T09:35:14Z</time>
      </trkpt>
      <trkpt lat="43.66554" lon="1.38719">
        <ele>122</ele>
        <time>2023-07-02T09:35:15Z</time>
      </trkpt>
      <trkpt lat="43.66557" lon="1.3872">
        <ele>122</ele>
        <time>2023-07-02T09:35:16Z</time>
      </trkpt>
      <trkpt lat="43.66559" lon="1.38721">
        <ele>121</ele>
        <time>2023-07-02T09:35:17Z</time>
      </trkpt>
      <trkpt lat="43.66562" lon="1.38723">
        <ele>121</ele>
        <time>2023-07-02T09:35:18Z</time>
      </trkpt>
      <trkpt lat="43.66564" lon="1.38725">
        <ele>121</ele>
        <time>2023-07-02T09:35:19Z</time>
      </trkpt>
      <trkpt lat="43.66566" lon="1.38728">
        <ele>121</ele>
        <time>2023-07-02T09:35:20Z</time>
      </trkpt>
      <trkpt lat="43.66568" lon="1.38731">
        <ele>121</ele>
        <time>2023-07-02T09:35:21Z</time>
      </trkpt>
      <trkpt lat="43.6657" lon="1.38734">
        <ele>120</ele>
        <time>2023-07-02T09:35:22Z</time>
      </trkpt>
      <trkpt lat="43.66571" lon="1.38737">
        <ele>121</ele>
        <time>2023-07-02T09:35:23Z</time>
      </trkpt>
      <trkpt lat="43.66573" lon="1.38739">
        <ele>121</ele>
        <time>2023-07-02T09:35:24Z</time>
      </trkpt>
      <trkpt lat="43.66575" lon="1.38742">
        <ele>121</ele>
        <time>2023-07-02T09:35:25Z</time>
      </trkpt>
      <trkpt lat="43.66577" lon="1.38744">
        <ele>121</ele>
        <time>2023-07-02T09:35:26Z</time>
      </trkpt>
      <trkpt lat="43.66579" lon="1.38747">
        <ele>121</ele>
        <time>2023-07-02T09:35:27Z</time>
      </trkpt>
      <trkpt lat="43.66581" lon="1.3875">
        <ele>121</ele>
        <time>2023-07-02T09:35:28Z</time>
      </trkpt>
      <trkpt lat="43.66585" lon="1.38755">
        <ele>121</ele>
        <time>2023-07-02T09:35:30Z</time>
      </trkpt>
      <trkpt lat="43.66586" lon="1.38758">
        <ele>121</ele>
        <time>2023-07-02T09:35:31Z</time>
      </trkpt>
      <trkpt lat="43.66588" lon="1.38761">
        <ele>121</ele>
        <time>2023-07-02T09:35:32Z</time>
      </trkpt>
      <trkpt lat="43.66588" lon="1.38761">
        <ele>121</ele>
        <time>2023-07-02T09:35:33Z</time>
      </trkpt>
      <trkpt lat="43.6659" lon="1.38767">
        <ele>121</ele>
        <time>2023-07-02T09:35:34Z</time>
      </trkpt>
      <trkpt lat="43.66591" lon="1.3877">
        <ele>121</ele>
        <time>2023-07-02T09:35:35Z</time>
      </trkpt>
      <trkpt lat="43.66593" lon="1.38773">
        <ele>121</ele>
        <time>2023-07-02T09:35:36Z</time>
      </trkpt>
      <trkpt lat="43.66595" lon="1.38776">
        <ele>121</ele>
        <time>2023-07-02T09:35:37Z</time>
      </trkpt>
      <trkpt lat="43.66596" lon="1.38779">
        <ele>121</ele>
        <time>2023-07-02T09:35:39Z</time>
      </trkpt>
      <trkpt lat="43.66598" lon="1.38786">
        <ele>121</ele>
        <time>2023-07-02T09:35:40Z</time>
      </trkpt>
      <trkpt lat="43.66598" lon="1.3879">
        <ele>121</ele>
        <time>2023-07-02T09:35:41Z</time>
      </trkpt>
      <trkpt lat="43.66599" lon="1.38793">
        <ele>121</ele>
        <time>2023-07-02T09:35:42Z</time>
      </trkpt>
      <trkpt lat="43.666" lon="1.38796">
        <ele>121</ele>
        <time>2023-07-02T09:35:43Z</time>
      </trkpt>
      <trkpt lat="43.66601" lon="1.388">
        <ele>121</ele>
        <time>2023-07-02T09:35:44Z</time>
      </trkpt>
      <trkpt lat="43.66602" lon="1.38804">
        <ele>121</ele>
        <time>2023-07-02T09:35:45Z</time>
      </trkpt>
      <trkpt lat="43.66602" lon="1.38804">
        <ele>121</ele>
        <time>2023-07-02T09:35:46Z</time>
      </trkpt>
      <trkpt lat="43.66605" lon="1.38811">
        <ele>121</ele>
        <time>2023-07-02T09:35:47Z</time>
      </trkpt>
      <trkpt lat="43.66606" lon="1.38818">
        <ele>121</ele>
        <time>2023-07-02T09:35:49Z</time>
      </trkpt>
      <trkpt lat="43.66606" lon="1.38822">
        <ele>121</ele>
        <time>2023-07-02T09:35:50Z</time>
      </trkpt>
      <trkpt lat="43.66607" lon="1.38825">
        <ele>123</ele>
        <time>2023-07-02T09:35:51Z</time>
      </trkpt>
      <trkpt lat="43.66607" lon="1.38825">
        <ele>123</ele>
        <time>2023-07-02T09:35:52Z</time>
      </trkpt>
      <trkpt lat="43.66608" lon="1.38831">
        <ele>123</ele>
        <time>2023-07-02T09:35:53Z</time>
      </trkpt>
      <trkpt lat="43.66608" lon="1.38831">
        <ele>122</ele>
        <time>2023-07-02T09:35:54Z</time>
      </trkpt>
      <trkpt lat="43.6661" lon="1.38838">
        <ele>122</ele>
        <time>2023-07-02T09:35:55Z</time>
      </trkpt>
      <trkpt lat="43.66611" lon="1.38842">
        <ele>122</ele>
        <time>2023-07-02T09:35:56Z</time>
      </trkpt>
      <trkpt lat="43.66611" lon="1.38842">
        <ele>122</ele>
        <time>2023-07-02T09:35:57Z</time>
      </trkpt>
      <trkpt lat="43.66611" lon="1.38849">
        <ele>122</ele>
        <time>2023-07-02T09:35:58Z</time>
      </trkpt>
      <trkpt lat="43.66611" lon="1.38852">
        <ele>122</ele>
        <time>2023-07-02T09:35:59Z</time>
      </trkpt>
      <trkpt lat="43.66611" lon="1.38856">
        <ele>122</ele>
        <time>2023-07-02T09:36:00Z</time>
      </trkpt>
      <trkpt lat="43.66611" lon="1.3886">
        <ele>122</ele>
        <time>2023-07-02T09:36:01Z</time>
      </trkpt>
      <trkpt lat="43.66611" lon="1.38864">
        <ele>122</ele>
        <time>2023-07-02T09:36:02Z</time>
      </trkpt>
      <trkpt lat="43.66611" lon="1.38867">
        <ele>122</ele>
        <time>2023-07-02T09:36:03Z</time>
      </trkpt>
      <trkpt lat="43.66611" lon="1.38871">
        <ele>122</ele>
        <time>2023-07-02T09:36:04Z</time>
      </trkpt>
      <trkpt lat="43.6661" lon="1.38875">
        <ele>122</ele>
        <time>2023-07-02T09:36:05Z</time>
      </trkpt>
      <trkpt lat="43.6661" lon="1.38875">
        <ele>123</ele>
        <time>2023-07-02T09:36:06Z</time>
      </trkpt>
      <trkpt lat="43.66609" lon="1.38879">
        <ele>123</ele>
        <time>2023-07-02T09:36:07Z</time>
      </trkpt>
      <trkpt lat="43.66609" lon="1.38883">
        <ele>123</ele>
        <time>2023-07-02T09:36:08Z</time>
      </trkpt>
      <trkpt lat="43.66609" lon="1.3889">
        <ele>122</ele>
        <time>2023-07-02T09:36:09Z</time>
      </trkpt>
      <trkpt lat="43.66608" lon="1.38893">
        <ele>122</ele>
        <time>2023-07-02T09:36:10Z</time>
      </trkpt>
      <trkpt lat="43.66608" lon="1.38893">
        <ele>121</ele>
        <time>2023-07-02T09:36:11Z</time>
      </trkpt>
      <trkpt lat="43.66607" lon="1.389">
        <ele>121</ele>
        <time>2023-07-02T09:36:12Z</time>
      </trkpt>
      <trkpt lat="43.66607" lon="1.38904">
        <ele>121</ele>
        <time>2023-07-02T09:36:13Z</time>
      </trkpt>
      <trkpt lat="43.66607" lon="1.38904">
        <ele>121</ele>
        <time>2023-07-02T09:36:14Z</time>
      </trkpt>
      <trkpt lat="43.66606" lon="1.3891">
        <ele>121</ele>
        <time>2023-07-02T09:36:15Z</time>
      </trkpt>
      <trkpt lat="43.66606" lon="1.3891">
        <ele>122</ele>
        <time>2023-07-02T09:36:16Z</time>
      </trkpt>
      <trkpt lat="43.66606" lon="1.38916">
        <ele>122</ele>
        <time>2023-07-02T09:36:17Z</time>
      </trkpt>
      <trkpt lat="43.66606" lon="1.3892">
        <ele>122</ele>
        <time>2023-07-02T09:36:18Z</time>
      </trkpt>
      <trkpt lat="43.66606" lon="1.38924">
        <ele>122</ele>
        <time>2023-07-02T09:36:19Z</time>
      </trkpt>
      <trkpt lat="43.66606" lon="1.38927">
        <ele>122</ele>
        <time>2023-07-02T09:36:20Z</time>
      </trkpt>
      <trkpt lat="43.66606" lon="1.38927">
        <ele>122</ele>
        <time>2023-07-02T09:36:21Z</time>
      </trkpt>
      <trkpt lat="43.66606" lon="1.38933">
        <ele>122</ele>
        <time>2023-07-02T09:36:22Z</time>
      </trkpt>
      <trkpt lat="43.66606" lon="1.38936">
        <ele>122</ele>
        <time>2023-07-02T09:36:23Z</time>
      </trkpt>
      <trkpt lat="43.66607" lon="1.38939">
        <ele>122</ele>
        <time>2023-07-02T09:36:24Z</time>
      </trkpt>
      <trkpt lat="43.66606" lon="1.38943">
        <ele>122</ele>
        <time>2023-07-02T09:36:25Z</time>
      </trkpt>
      <trkpt lat="43.66606" lon="1.38946">
        <ele>122</ele>
        <time>2023-07-02T09:36:27Z</time>
      </trkpt>
      <trkpt lat="43.66605" lon="1.38951">
        <ele>122</ele>
        <time>2023-07-02T09:36:28Z</time>
      </trkpt>
      <trkpt lat="43.66605" lon="1.38953">
        <ele>122</ele>
        <time>2023-07-02T09:36:29Z</time>
      </trkpt>
      <trkpt lat="43.66604" lon="1.3896">
        <ele>122</ele>
        <time>2023-07-02T09:36:30Z</time>
      </trkpt>
      <trkpt lat="43.66604" lon="1.38963">
        <ele>122</ele>
        <time>2023-07-02T09:36:31Z</time>
      </trkpt>
      <trkpt lat="43.66604" lon="1.38966">
        <ele>122</ele>
        <time>2023-07-02T09:36:32Z</time>
      </trkpt>
      <trkpt lat="43.66604" lon="1.3897">
        <ele>122</ele>
        <time>2023-07-02T09:36:33Z</time>
      </trkpt>
      <trkpt lat="43.66604" lon="1.38973">
        <ele>122</ele>
        <time>2023-07-02T09:36:34Z</time>
      </trkpt>
      <trkpt lat="43.66603" lon="1.38977">
        <ele>122</ele>
        <time>2023-07-02T09:36:35Z</time>
      </trkpt>
      <trkpt lat="43.66603" lon="1.38977">
        <ele>122</ele>
        <time>2023-07-02T09:36:36Z</time>
      </trkpt>
      <trkpt lat="43.66603" lon="1.38984">
        <ele>122</ele>
        <time>2023-07-02T09:36:37Z</time>
      </trkpt>
      <trkpt lat="43.66603" lon="1.38987">
        <ele>122</ele>
        <time>2023-07-02T09:36:38Z</time>
      </trkpt>
      <trkpt lat="43.66603" lon="1.38991">
        <ele>122</ele>
        <time>2023-07-02T09:36:39Z</time>
      </trkpt>
      <trkpt lat="43.66602" lon="1.38995">
        <ele>122</ele>
        <time>2023-07-02T09:36:40Z</time>
      </trkpt>
      <trkpt lat="43.66601" lon="1.38998">
        <ele>122</ele>
        <time>2023-07-02T09:36:41Z</time>
      </trkpt>
      <trkpt lat="43.66601" lon="1.39002">
        <ele>123</ele>
        <time>2023-07-02T09:36:42Z</time>
      </trkpt>
      <trkpt lat="43.66601" lon="1.39002">
        <ele>123</ele>
        <time>2023-07-02T09:36:43Z</time>
      </trkpt>
      <trkpt lat="43.66599" lon="1.39009">
        <ele>123</ele>
        <time>2023-07-02T09:36:44Z</time>
      </trkpt>
      <trkpt lat="43.66597" lon="1.39016">
        <ele>123</ele>
        <time>2023-07-02T09:36:46Z</time>
      </trkpt>
      <trkpt lat="43.66596" lon="1.39025">
        <ele>123</ele>
        <time>2023-07-02T09:36:48Z</time>
      </trkpt>
      <trkpt lat="43.66595" lon="1.39029">
        <ele>123</ele>
        <time>2023-07-02T09:36:49Z</time>
      </trkpt>
      <trkpt lat="43.66595" lon="1.39029">
        <ele>123</ele>
        <time>2023-07-02T09:36:50Z</time>
      </trkpt>
      <trkpt lat="43.66595" lon="1.39037">
        <ele>123</ele>
        <time>2023-07-02T09:36:51Z</time>
      </trkpt>
      <trkpt lat="43.66595" lon="1.3904">
        <ele>123</ele>
        <time>2023-07-02T09:36:52Z</time>
      </trkpt>
      <trkpt lat="43.66595" lon="1.3904">
        <ele>123</ele>
        <time>2023-07-02T09:36:53Z</time>
      </trkpt>
      <trkpt lat="43.66593" lon="1.39048">
        <ele>123</ele>
        <time>2023-07-02T09:36:54Z</time>
      </trkpt>
      <trkpt lat="43.66593" lon="1.39048">
        <ele>123</ele>
        <time>2023-07-02T09:36:55Z</time>
      </trkpt>
      <trkpt lat="43.66591" lon="1.39054">
        <ele>123</ele>
        <time>2023-07-02T09:36:56Z</time>
      </trkpt>
      <trkpt lat="43.66591" lon="1.39057">
        <ele>123</ele>
        <time>2023-07-02T09:36:57Z</time>
      </trkpt>
      <trkpt lat="43.66591" lon="1.3906">
        <ele>123</ele>
        <time>2023-07-02T09:36:58Z</time>
      </trkpt>
      <trkpt lat="43.66592" lon="1.39063">
        <ele>122</ele>
        <time>2023-07-02T09:36:59Z</time>
      </trkpt>
      <trkpt lat="43.66592" lon="1.39066">
        <ele>122</ele>
        <time>2023-07-02T09:37:00Z</time>
      </trkpt>
      <trkpt lat="43.66592" lon="1.3907">
        <ele>122</ele>
        <time>2023-07-02T09:37:01Z</time>
      </trkpt>
      <trkpt lat="43.66592" lon="1.3907">
        <ele>123</ele>
        <time>2023-07-02T09:37:02Z</time>
      </trkpt>
      <trkpt lat="43.66591" lon="1.39077">
        <ele>123</ele>
        <time>2023-07-02T09:37:03Z</time>
      </trkpt>
      <trkpt lat="43.66592" lon="1.39084">
        <ele>123</ele>
        <time>2023-07-02T09:37:05Z</time>
      </trkpt>
      <trkpt lat="43.66592" lon="1.39088">
        <ele>123</ele>
        <time>2023-07-02T09:37:07Z</time>
      </trkpt>
      <trkpt lat="43.66591" lon="1.39094">
        <ele>123</ele>
        <time>2023-07-02T09:37:08Z</time>
      </trkpt>
      <trkpt lat="43.66591" lon="1.39094">
        <ele>122</ele>
        <time>2023-07-02T09:37:09Z</time>
      </trkpt>
      <trkpt lat="43.66591" lon="1.39101">
        <ele>122</ele>
        <time>2023-07-02T09:37:10Z</time>
      </trkpt>
      <trkpt lat="43.66591" lon="1.39104">
        <ele>122</ele>
        <time>2023-07-02T09:37:11Z</time>
      </trkpt>
      <trkpt lat="43.66591" lon="1.39104">
        <ele>122</ele>
        <time>2023-07-02T09:37:12Z</time>
      </trkpt>
      <trkpt lat="43.6659" lon="1.39112">
        <ele>122</ele>
        <time>2023-07-02T09:37:13Z</time>
      </trkpt>
      <trkpt lat="43.66589" lon="1.39115">
        <ele>123</ele>
        <time>2023-07-02T09:37:14Z</time>
      </trkpt>
      <trkpt lat="43.66588" lon="1.39119">
        <ele>123</ele>
        <time>2023-07-02T09:37:15Z</time>
      </trkpt>
      <trkpt lat="43.66588" lon="1.39119">
        <ele>123</ele>
        <time>2023-07-02T09:37:16Z</time>
      </trkpt>
      <trkpt lat="43.66588" lon="1.39126">
        <ele>123</ele>
        <time>2023-07-02T09:37:17Z</time>
      </trkpt>
      <trkpt lat="43.66588" lon="1.39129">
        <ele>122</ele>
        <time>2023-07-02T09:37:18Z</time>
      </trkpt>
      <trkpt lat="43.66588" lon="1.39129">
        <ele>122</ele>
        <time>2023-07-02T09:37:19Z</time>
      </trkpt>
      <trkpt lat="43.66588" lon="1.39136">
        <ele>122</ele>
        <time>2023-07-02T09:37:20Z</time>
      </trkpt>
      <trkpt lat="43.66588" lon="1.39136">
        <ele>123</ele>
        <time>2023-07-02T09:37:21Z</time>
      </trkpt>
      <trkpt lat="43.66587" lon="1.3914">
        <ele>123</ele>
        <time>2023-07-02T09:37:22Z</time>
      </trkpt>
      <trkpt lat="43.66586" lon="1.39147">
        <ele>123</ele>
        <time>2023-07-02T09:37:23Z</time>
      </trkpt>
      <trkpt lat="43.66586" lon="1.3915">
        <ele>124</ele>
        <time>2023-07-02T09:37:24Z</time>
      </trkpt>
      <trkpt lat="43.66585" lon="1.39154">
        <ele>124</ele>
        <time>2023-07-02T09:37:25Z</time>
      </trkpt>
      <trkpt lat="43.66584" lon="1.39161">
        <ele>124</ele>
        <time>2023-07-02T09:37:27Z</time>
      </trkpt>
      <trkpt lat="43.66584" lon="1.39165">
        <ele>124</ele>
        <time>2023-07-02T09:37:28Z</time>
      </trkpt>
      <trkpt lat="43.66584" lon="1.39165">
        <ele>124</ele>
        <time>2023-07-02T09:37:29Z</time>
      </trkpt>
      <trkpt lat="43.66584" lon="1.39172">
        <ele>124</ele>
        <time>2023-07-02T09:37:30Z</time>
      </trkpt>
      <trkpt lat="43.66584" lon="1.39176">
        <ele>124</ele>
        <time>2023-07-02T09:37:31Z</time>
      </trkpt>
      <trkpt lat="43.66584" lon="1.39176">
        <ele>124</ele>
        <time>2023-07-02T09:37:32Z</time>
      </trkpt>
      <trkpt lat="43.66584" lon="1.39183">
        <ele>124</ele>
        <time>2023-07-02T09:37:33Z</time>
      </trkpt>
      <trkpt lat="43.66584" lon="1.39186">
        <ele>123</ele>
        <time>2023-07-02T09:37:34Z</time>
      </trkpt>
      <trkpt lat="43.66583" lon="1.3919">
        <ele>123</ele>
        <time>2023-07-02T09:37:35Z</time>
      </trkpt>
      <trkpt lat="43.66583" lon="1.3919">
        <ele>123</ele>
        <time>2023-07-02T09:37:36Z</time>
      </trkpt>
      <trkpt lat="43.66583" lon="1.39196">
        <ele>123</ele>
        <time>2023-07-02T09:37:37Z</time>
      </trkpt>
      <trkpt lat="43.66583" lon="1.392">
        <ele>123</ele>
        <time>2023-07-02T09:37:38Z</time>
      </trkpt>
      <trkpt lat="43.66583" lon="1.392">
        <ele>123</ele>
        <time>2023-07-02T09:37:39Z</time>
      </trkpt>
      <trkpt lat="43.66583" lon="1.39204">
        <ele>123</ele>
        <time>2023-07-02T09:37:40Z</time>
      </trkpt>
      <trkpt lat="43.66582" lon="1.39208">
        <ele>123</ele>
        <time>2023-07-02T09:37:41Z</time>
      </trkpt>
      <trkpt lat="43.66581" lon="1.39212">
        <ele>123</ele>
        <time>2023-07-02T09:37:42Z</time>
      </trkpt>
      <trkpt lat="43.6658" lon="1.39214">
        <ele>123</ele>
        <time>2023-07-02T09:37:43Z</time>
      </trkpt>
      <trkpt lat="43.66579" lon="1.39222">
        <ele>123</ele>
        <time>2023-07-02T09:37:44Z</time>
      </trkpt>
      <trkpt lat="43.66579" lon="1.39225">
        <ele>124</ele>
        <time>2023-07-02T09:37:46Z</time>
      </trkpt>
      <trkpt lat="43.66579" lon="1.39231">
        <ele>124</ele>
        <time>2023-07-02T09:37:47Z</time>
      </trkpt>
      <trkpt lat="43.66579" lon="1.39231">
        <ele>124</ele>
        <time>2023-07-02T09:37:48Z</time>
      </trkpt>
      <trkpt lat="43.66577" lon="1.39237">
        <ele>124</ele>
        <time>2023-07-02T09:37:49Z</time>
      </trkpt>
      <trkpt lat="43.66576" lon="1.39241">
        <ele>124</ele>
        <time>2023-07-02T09:37:50Z</time>
      </trkpt>
      <trkpt lat="43.66576" lon="1.39245">
        <ele>124</ele>
        <time>2023-07-02T09:37:51Z</time>
      </trkpt>
      <trkpt lat="43.66576" lon="1.39249">
        <ele>124</ele>
        <time>2023-07-02T09:37:52Z</time>
      </trkpt>
      <trkpt lat="43.66576" lon="1.39249">
        <ele>124</ele>
        <time>2023-07-02T09:37:53Z</time>
      </trkpt>
      <trkpt lat="43.66574" lon="1.39257">
        <ele>123</ele>
        <time>2023-07-02T09:37:54Z</time>
      </trkpt>
      <trkpt lat="43.66574" lon="1.39257">
        <ele>123</ele>
        <time>2023-07-02T09:37:55Z</time>
      </trkpt>
      <trkpt lat="43.66571" lon="1.39264">
        <ele>123</ele>
        <time>2023-07-02T09:37:56Z</time>
      </trkpt>
      <trkpt lat="43.66568" lon="1.39266">
        <ele>123</ele>
        <time>2023-07-02T09:37:57Z</time>
      </trkpt>
      <trkpt lat="43.66565" lon="1.39267">
        <ele>123</ele>
        <time>2023-07-02T09:37:58Z</time>
      </trkpt>
      <trkpt lat="43.66562" lon="1.39268">
        <ele>123</ele>
        <time>2023-07-02T09:37:59Z</time>
      </trkpt>
      <trkpt lat="43.66559" lon="1.39268">
        <ele>123</ele>
        <time>2023-07-02T09:38:00Z</time>
      </trkpt>
      <trkpt lat="43.66556" lon="1.39268">
        <ele>123</ele>
        <time>2023-07-02T09:38:02Z</time>
      </trkpt>
      <trkpt lat="43.6655" lon="1.3927">
        <ele>123</ele>
        <time>2023-07-02T09:38:03Z</time>
      </trkpt>
      <trkpt lat="43.66548" lon="1.39271">
        <ele>123</ele>
        <time>2023-07-02T09:38:04Z</time>
      </trkpt>
      <trkpt lat="43.66545" lon="1.39273">
        <ele>123</ele>
        <time>2023-07-02T09:38:05Z</time>
      </trkpt>
      <trkpt lat="43.66543" lon="1.39275">
        <ele>123</ele>
        <time>2023-07-02T09:38:06Z</time>
      </trkpt>
      <trkpt lat="43.66541" lon="1.39277">
        <ele>122</ele>
        <time>2023-07-02T09:38:07Z</time>
      </trkpt>
      <trkpt lat="43.66538" lon="1.39278">
        <ele>122</ele>
        <time>2023-07-02T09:38:08Z</time>
      </trkpt>
      <trkpt lat="43.66538" lon="1.39278">
        <ele>122</ele>
        <time>2023-07-02T09:38:09Z</time>
      </trkpt>
      <trkpt lat="43.66533" lon="1.39277">
        <ele>122</ele>
        <time>2023-07-02T09:38:10Z</time>
      </trkpt>
      <trkpt lat="43.66533" lon="1.39277">
        <ele>122</ele>
        <time>2023-07-02T09:38:11Z</time>
      </trkpt>
      <trkpt lat="43.66528" lon="1.39275">
        <ele>122</ele>
        <time>2023-07-02T09:38:12Z</time>
      </trkpt>
      <trkpt lat="43.66525" lon="1.39274">
        <ele>122</ele>
        <time>2023-07-02T09:38:13Z</time>
      </trkpt>
      <trkpt lat="43.66523" lon="1.39273">
        <ele>122</ele>
        <time>2023-07-02T09:38:14Z</time>
      </trkpt>
      <trkpt lat="43.66521" lon="1.39272">
        <ele>122</ele>
        <time>2023-07-02T09:38:15Z</time>
      </trkpt>
      <trkpt lat="43.66521" lon="1.39272">
        <ele>122</ele>
        <time>2023-07-02T09:38:16Z</time>
      </trkpt>
      <trkpt lat="43.66517" lon="1.39271">
        <ele>121</ele>
        <time>2023-07-02T09:38:17Z</time>
      </trkpt>
      <trkpt lat="43.66517" lon="1.39271">
        <ele>122</ele>
        <time>2023-07-02T09:38:18Z</time>
      </trkpt>
      <trkpt lat="43.66514" lon="1.39275">
        <ele>122</ele>
        <time>2023-07-02T09:38:19Z</time>
      </trkpt>
      <trkpt lat="43.66511" lon="1.3928">
        <ele>122</ele>
        <time>2023-07-02T09:38:21Z</time>
      </trkpt>
      <trkpt lat="43.6651" lon="1.39283">
        <ele>122</ele>
        <time>2023-07-02T09:38:23Z</time>
      </trkpt>
      <trkpt lat="43.66508" lon="1.3929">
        <ele>122</ele>
        <time>2023-07-02T09:38:24Z</time>
      </trkpt>
      <trkpt lat="43.66508" lon="1.3929">
        <ele>122</ele>
        <time>2023-07-02T09:38:25Z</time>
      </trkpt>
      <trkpt lat="43.66505" lon="1.39297">
        <ele>122</ele>
        <time>2023-07-02T09:38:26Z</time>
      </trkpt>
      <trkpt lat="43.66503" lon="1.393">
        <ele>122</ele>
        <time>2023-07-02T09:38:27Z</time>
      </trkpt>
      <trkpt lat="43.66502" lon="1.39303">
        <ele>122</ele>
        <time>2023-07-02T09:38:28Z</time>
      </trkpt>
      <trkpt lat="43.66501" lon="1.39305">
        <ele>123</ele>
        <time>2023-07-02T09:38:29Z</time>
      </trkpt>
      <trkpt lat="43.66501" lon="1.39305">
        <ele>123</ele>
        <time>2023-07-02T09:38:30Z</time>
      </trkpt>
      <trkpt lat="43.66497" lon="1.3931">
        <ele>122</ele>
        <time>2023-07-02T09:38:31Z</time>
      </trkpt>
      <trkpt lat="43.66496" lon="1.39312">
        <ele>122</ele>
        <time>2023-07-02T09:38:32Z</time>
      </trkpt>
      <trkpt lat="43.66494" lon="1.39314">
        <ele>122</ele>
        <time>2023-07-02T09:38:33Z</time>
      </trkpt>
      <trkpt lat="43.66491" lon="1.39316">
        <ele>123</ele>
        <time>2023-07-02T09:38:34Z</time>
      </trkpt>
      <trkpt lat="43.66489" lon="1.39318">
        <ele>123</ele>
        <time>2023-07-02T09:38:35Z</time>
      </trkpt>
      <trkpt lat="43.66487" lon="1.39319">
        <ele>123</ele>
        <time>2023-07-02T09:38:36Z</time>
      </trkpt>
      <trkpt lat="43.66487" lon="1.39319">
        <ele>123</ele>
        <time>2023-07-02T09:38:37Z</time>
      </trkpt>
      <trkpt lat="43.66482" lon="1.39323">
        <ele>123</ele>
        <time>2023-07-02T09:38:38Z</time>
      </trkpt>
      <trkpt lat="43.66477" lon="1.39324">
        <ele>123</ele>
        <time>2023-07-02T09:38:40Z</time>
      </trkpt>
      <trkpt lat="43.66474" lon="1.39324">
        <ele>123</ele>
        <time>2023-07-02T09:38:41Z</time>
      </trkpt>
      <trkpt lat="43.66471" lon="1.39324">
        <ele>123</ele>
        <time>2023-07-02T09:38:43Z</time>
      </trkpt>
      <trkpt lat="43.66466" lon="1.39323">
        <ele>123</ele>
        <time>2023-07-02T09:38:44Z</time>
      </trkpt>
      <trkpt lat="43.66463" lon="1.39323">
        <ele>123</ele>
        <time>2023-07-02T09:38:45Z</time>
      </trkpt>
      <trkpt lat="43.66461" lon="1.39324">
        <ele>124</ele>
        <time>2023-07-02T09:38:46Z</time>
      </trkpt>
      <trkpt lat="43.66458" lon="1.39325">
        <ele>124</ele>
        <time>2023-07-02T09:38:47Z</time>
      </trkpt>
      <trkpt lat="43.66458" lon="1.39325">
        <ele>124</ele>
        <time>2023-07-02T09:38:48Z</time>
      </trkpt>
      <trkpt lat="43.66452" lon="1.39326">
        <ele>124</ele>
        <time>2023-07-02T09:38:49Z</time>
      </trkpt>
      <trkpt lat="43.66452" lon="1.39326">
        <ele>124</ele>
        <time>2023-07-02T09:38:50Z</time>
      </trkpt>
      <trkpt lat="43.66447" lon="1.39324">
        <ele>124</ele>
        <time>2023-07-02T09:38:51Z</time>
      </trkpt>
      <trkpt lat="43.66444" lon="1.39324">
        <ele>124</ele>
        <time>2023-07-02T09:38:52Z</time>
      </trkpt>
      <trkpt lat="43.66441" lon="1.39324">
        <ele>124</ele>
        <time>2023-07-02T09:38:53Z</time>
      </trkpt>
      <trkpt lat="43.66438" lon="1.39324">
        <ele>124</ele>
        <time>2023-07-02T09:38:54Z</time>
      </trkpt>
      <trkpt lat="43.66435" lon="1.39324">
        <ele>124</ele>
        <time>2023-07-02T09:38:55Z</time>
      </trkpt>
      <trkpt lat="43.66432" lon="1.39324">
        <ele>124</ele>
        <time>2023-07-02T09:38:56Z</time>
      </trkpt>
      <trkpt lat="43.66432" lon="1.39324">
        <ele>124</ele>
        <time>2023-07-02T09:38:57Z</time>
      </trkpt>
      <trkpt lat="43.6643" lon="1.39324">
        <ele>124</ele>
        <time>2023-07-02T09:38:58Z</time>
      </trkpt>
      <trkpt lat="43.66424" lon="1.39323">
        <ele>124</ele>
        <time>2023-07-02T09:38:59Z</time>
      </trkpt>
      <trkpt lat="43.66421" lon="1.39322">
        <ele>124</ele>
        <time>2023-07-02T09:39:01Z</time>
      </trkpt>
      <trkpt lat="43.66416" lon="1.39322">
        <ele>123</ele>
        <time>2023-07-02T09:39:02Z</time>
      </trkpt>
      <trkpt lat="43.66413" lon="1.39321">
        <ele>123</ele>
        <time>2023-07-02T09:39:03Z</time>
      </trkpt>
      <trkpt lat="43.66411" lon="1.39321">
        <ele>123</ele>
        <time>2023-07-02T09:39:04Z</time>
      </trkpt>
      <trkpt lat="43.66408" lon="1.39319">
        <ele>123</ele>
        <time>2023-07-02T09:39:05Z</time>
      </trkpt>
      <trkpt lat="43.66408" lon="1.39319">
        <ele>123</ele>
        <time>2023-07-02T09:39:06Z</time>
      </trkpt>
      <trkpt lat="43.66404" lon="1.39316">
        <ele>123</ele>
        <time>2023-07-02T09:39:07Z</time>
      </trkpt>
      <trkpt lat="43.66404" lon="1.39316">
        <ele>123</ele>
        <time>2023-07-02T09:39:08Z</time>
      </trkpt>
      <trkpt lat="43.66399" lon="1.39312">
        <ele>123</ele>
        <time>2023-07-02T09:39:09Z</time>
      </trkpt>
      <trkpt lat="43.66397" lon="1.3931">
        <ele>123</ele>
        <time>2023-07-02T09:39:10Z</time>
      </trkpt>
      <trkpt lat="43.66395" lon="1.39308">
        <ele>123</ele>
        <time>2023-07-02T09:39:11Z</time>
      </trkpt>
      <trkpt lat="43.66393" lon="1.39306">
        <ele>123</ele>
        <time>2023-07-02T09:39:12Z</time>
      </trkpt>
      <trkpt lat="43.66393" lon="1.39306">
        <ele>123</ele>
        <time>2023-07-02T09:39:13Z</time>
      </trkpt>
      <trkpt lat="43.66388" lon="1.39303">
        <ele>123</ele>
        <time>2023-07-02T09:39:14Z</time>
      </trkpt>
      <trkpt lat="43.66388" lon="1.39303">
        <ele>123</ele>
        <time>2023-07-02T09:39:15Z</time>
      </trkpt>
      <trkpt lat="43.66383" lon="1.393">
        <ele>123</ele>
        <time>2023-07-02T09:39:16Z</time>
      </trkpt>
      <trkpt lat="43.66381" lon="1.39299">
        <ele>123</ele>
        <time>2023-07-02T09:39:18Z</time>
      </trkpt>
      <trkpt lat="43.66376" lon="1.39295">
        <ele>123</ele>
        <time>2023-07-02T09:39:19Z</time>
      </trkpt>
      <trkpt lat="43.66374" lon="1.39294">
        <ele>124</ele>
        <time>2023-07-02T09:39:20Z</time>
      </trkpt>
      <trkpt lat="43.66374" lon="1.39294">
        <ele>124</ele>
        <time>2023-07-02T09:39:21Z</time>
      </trkpt>
      <trkpt lat="43.66368" lon="1.3929">
        <ele>124</ele>
        <time>2023-07-02T09:39:22Z</time>
      </trkpt>
      <trkpt lat="43.66365" lon="1.39288">
        <ele>123</ele>
        <time>2023-07-02T09:39:23Z</time>
      </trkpt>
      <trkpt lat="43.66363" lon="1.39286">
        <ele>123</ele>
        <time>2023-07-02T09:39:24Z</time>
      </trkpt>
      <trkpt lat="43.6636" lon="1.39285">
        <ele>123</ele>
        <time>2023-07-02T09:39:25Z</time>
      </trkpt>
      <trkpt lat="43.6636" lon="1.39285">
        <ele>124</ele>
        <time>2023-07-02T09:39:26Z</time>
      </trkpt>
      <trkpt lat="43.66356" lon="1.39284">
        <ele>124</ele>
        <time>2023-07-02T09:39:27Z</time>
      </trkpt>
      <trkpt lat="43.66356" lon="1.39284">
        <ele>123</ele>
        <time>2023-07-02T09:39:28Z</time>
      </trkpt>
      <trkpt lat="43.66351" lon="1.39286">
        <ele>123</ele>
        <time>2023-07-02T09:39:29Z</time>
      </trkpt>
      <trkpt lat="43.66349" lon="1.39286">
        <ele>123</ele>
        <time>2023-07-02T09:39:30Z</time>
      </trkpt>
      <trkpt lat="43.66349" lon="1.39286">
        <ele>123</ele>
        <time>2023-07-02T09:39:31Z</time>
      </trkpt>
      <trkpt lat="43.66346" lon="1.39289">
        <ele>123</ele>
        <time>2023-07-02T09:39:32Z</time>
      </trkpt>
      <trkpt lat="43.66346" lon="1.39289">
        <ele>123</ele>
        <time>2023-07-02T09:39:33Z</time>
      </trkpt>
      <trkpt lat="43.66342" lon="1.39291">
        <ele>123</ele>
        <time>2023-07-02T09:39:34Z</time>
      </trkpt>
      <trkpt lat="43.66342" lon="1.39291">
        <ele>123</ele>
        <time>2023-07-02T09:39:35Z</time>
      </trkpt>
      <trkpt lat="43.66338" lon="1.39293">
        <ele>123</ele>
        <time>2023-07-02T09:39:36Z</time>
      </trkpt>
      <trkpt lat="43.66337" lon="1.39294">
        <ele>123</ele>
        <time>2023-07-02T09:39:37Z</time>
      </trkpt>
      <trkpt lat="43.66333" lon="1.39296">
        <ele>123</ele>
        <time>2023-07-02T09:39:38Z</time>
      </trkpt>
      <trkpt lat="43.66331" lon="1.39297">
        <ele>123</ele>
        <time>2023-07-02T09:39:39Z</time>
      </trkpt>
      <trkpt lat="43.66328" lon="1.39297">
        <ele>123</ele>
        <time>2023-07-02T09:39:40Z</time>
      </trkpt>
      <trkpt lat="43.66328" lon="1.39297">
        <ele>123</ele>
        <time>2023-07-02T09:39:41Z</time>
      </trkpt>
      <trkpt lat="43.66321" lon="1.39295">
        <ele>123</ele>
        <time>2023-07-02T09:39:42Z</time>
      </trkpt>
      <trkpt lat="43.6632" lon="1.39294">
        <ele>123</ele>
        <time>2023-07-02T09:39:43Z</time>
      </trkpt>
      <trkpt lat="43.66317" lon="1.39292">
        <ele>123</ele>
        <time>2023-07-02T09:39:44Z</time>
      </trkpt>
      <trkpt lat="43.66317" lon="1.39292">
        <ele>123</ele>
        <time>2023-07-02T09:39:45Z</time>
      </trkpt>
      <trkpt lat="43.66314" lon="1.39291">
        <ele>123</ele>
        <time>2023-07-02T09:39:46Z</time>
      </trkpt>
      <trkpt lat="43.66309" lon="1.39288">
        <ele>124</ele>
        <time>2023-07-02T09:39:47Z</time>
      </trkpt>
      <trkpt lat="43.66309" lon="1.39288">
        <ele>124</ele>
        <time>2023-07-02T09:39:48Z</time>
      </trkpt>
      <trkpt lat="43.66304" lon="1.39283">
        <ele>124</ele>
        <time>2023-07-02T09:39:49Z</time>
      </trkpt>
      <trkpt lat="43.66304" lon="1.39283">
        <ele>124</ele>
        <time>2023-07-02T09:39:50Z</time>
      </trkpt>
      <trkpt lat="43.66302" lon="1.3928">
        <ele>124</ele>
        <time>2023-07-02T09:39:51Z</time>
      </trkpt>
      <trkpt lat="43.663" lon="1.39278">
        <ele>124</ele>
        <time>2023-07-02T09:39:52Z</time>
      </trkpt>
      <trkpt lat="43.66297" lon="1.39276">
        <ele>124</ele>
        <time>2023-07-02T09:39:53Z</time>
      </trkpt>
      <trkpt lat="43.66293" lon="1.39272">
        <ele>124</ele>
        <time>2023-07-02T09:39:54Z</time>
      </trkpt>
      <trkpt lat="43.6629" lon="1.39266">
        <ele>124</ele>
        <time>2023-07-02T09:39:56Z</time>
      </trkpt>
      <trkpt lat="43.66288" lon="1.39263">
        <ele>124</ele>
        <time>2023-07-02T09:39:58Z</time>
      </trkpt>
      <trkpt lat="43.66286" lon="1.39258">
        <ele>124</ele>
        <time>2023-07-02T09:39:59Z</time>
      </trkpt>
      <trkpt lat="43.66286" lon="1.39258">
        <ele>124</ele>
        <time>2023-07-02T09:40:00Z</time>
      </trkpt>
      <trkpt lat="43.66284" lon="1.39252">
        <ele>124</ele>
        <time>2023-07-02T09:40:01Z</time>
      </trkpt>
      <trkpt lat="43.66284" lon="1.39248">
        <ele>124</ele>
        <time>2023-07-02T09:40:02Z</time>
      </trkpt>
      <trkpt lat="43.66283" lon="1.39245">
        <ele>124</ele>
        <time>2023-07-02T09:40:03Z</time>
      </trkpt>
      <trkpt lat="43.66283" lon="1.39242">
        <ele>124</ele>
        <time>2023-07-02T09:40:04Z</time>
      </trkpt>
      <trkpt lat="43.66283" lon="1.39242">
        <ele>124</ele>
        <time>2023-07-02T09:40:05Z</time>
      </trkpt>
      <trkpt lat="43.66281" lon="1.39237">
        <ele>123</ele>
        <time>2023-07-02T09:40:06Z</time>
      </trkpt>
      <trkpt lat="43.66281" lon="1.39237">
        <ele>123</ele>
        <time>2023-07-02T09:40:07Z</time>
      </trkpt>
      <trkpt lat="43.66279" lon="1.3923">
        <ele>123</ele>
        <time>2023-07-02T09:40:08Z</time>
      </trkpt>
      <trkpt lat="43.66279" lon="1.3923">
        <ele>123</ele>
        <time>2023-07-02T09:40:09Z</time>
      </trkpt>
      <trkpt lat="43.66277" lon="1.39223">
        <ele>123</ele>
        <time>2023-07-02T09:40:10Z</time>
      </trkpt>
      <trkpt lat="43.66277" lon="1.39223">
        <ele>123</ele>
        <time>2023-07-02T09:40:11Z</time>
      </trkpt>
      <trkpt lat="43.66276" lon="1.39219">
        <ele>123</ele>
        <time>2023-07-02T09:40:12Z</time>
      </trkpt>
      <trkpt lat="43.66276" lon="1.3921">
        <ele>123</ele>
        <time>2023-07-02T09:40:13Z</time>
      </trkpt>
      <trkpt lat="43.66275" lon="1.39202">
        <ele>123</ele>
        <time>2023-07-02T09:40:15Z</time>
      </trkpt>
      <trkpt lat="43.66273" lon="1.39199">
        <ele>123</ele>
        <time>2023-07-02T09:40:17Z</time>
      </trkpt>
      <trkpt lat="43.6627" lon="1.39192">
        <ele>123</ele>
        <time>2023-07-02T09:40:18Z</time>
      </trkpt>
      <trkpt lat="43.66268" lon="1.39189">
        <ele>123</ele>
        <time>2023-07-02T09:40:19Z</time>
      </trkpt>
      <trkpt lat="43.66266" lon="1.39186">
        <ele>123</ele>
        <time>2023-07-02T09:40:20Z</time>
      </trkpt>
      <trkpt lat="43.66264" lon="1.39183">
        <ele>123</ele>
        <time>2023-07-02T09:40:21Z</time>
      </trkpt>
      <trkpt lat="43.66264" lon="1.39183">
        <ele>123</ele>
        <time>2023-07-02T09:40:22Z</time>
      </trkpt>
      <trkpt lat="43.66259" lon="1.39179">
        <ele>123</ele>
        <time>2023-07-02T09:40:23Z</time>
      </trkpt>
      <trkpt lat="43.66259" lon="1.39179">
        <ele>123</ele>
        <time>2023-07-02T09:40:24Z</time>
      </trkpt>
      <trkpt lat="43.66255" lon="1.39177">
        <ele>123</ele>
        <time>2023-07-02T09:40:25Z</time>
      </trkpt>
      <trkpt lat="43.66252" lon="1.39177">
        <ele>123</ele>
        <time>2023-07-02T09:40:26Z</time>
      </trkpt>
      <trkpt lat="43.6625" lon="1.39176">
        <ele>123</ele>
        <time>2023-07-02T09:40:27Z</time>
      </trkpt>
      <trkpt lat="43.66248" lon="1.39176">
        <ele>123</ele>
        <time>2023-07-02T09:40:28Z</time>
      </trkpt>
      <trkpt lat="43.66248" lon="1.39176">
        <ele>123</ele>
        <time>2023-07-02T09:40:29Z</time>
      </trkpt>
      <trkpt lat="43.66246" lon="1.39178">
        <ele>123</ele>
        <time>2023-07-02T09:40:30Z</time>
      </trkpt>
      <trkpt lat="43.66243" lon="1.39178">
        <ele>123</ele>
        <time>2023-07-02T09:40:31Z</time>
      </trkpt>
      <trkpt lat="43.66239" lon="1.39178">
        <ele>123</ele>
        <time>2023-07-02T09:40:32Z</time>
      </trkpt>
      <trkpt lat="43.66234" lon="1.39174">
        <ele>124</ele>
        <time>2023-07-02T09:40:34Z</time>
      </trkpt>
      <trkpt lat="43.6623" lon="1.39169">
        <ele>124</ele>
        <time>2023-07-02T09:40:36Z</time>
      </trkpt>
      <trkpt lat="43.66228" lon="1.39167">
        <ele>123</ele>
        <time>2023-07-02T09:40:37Z</time>
      </trkpt>
      <trkpt lat="43.66228" lon="1.39167">
        <ele>124</ele>
        <time>2023-07-02T09:40:38Z</time>
      </trkpt>
      <trkpt lat="43.66224" lon="1.39164">
        <ele>124</ele>
        <time>2023-07-02T09:40:39Z</time>
      </trkpt>
      <trkpt lat="43.66222" lon="1.39162">
        <ele>124</ele>
        <time>2023-07-02T09:40:40Z</time>
      </trkpt>
      <trkpt lat="43.6622" lon="1.39159">
        <ele>124</ele>
        <time>2023-07-02T09:40:41Z</time>
      </trkpt>
      <trkpt lat="43.66218" lon="1.39156">
        <ele>124</ele>
        <time>2023-07-02T09:40:42Z</time>
      </trkpt>
      <trkpt lat="43.66217" lon="1.39153">
        <ele>124</ele>
        <time>2023-07-02T09:40:43Z</time>
      </trkpt>
      <trkpt lat="43.66216" lon="1.3915">
        <ele>124</ele>
        <time>2023-07-02T09:40:44Z</time>
      </trkpt>
      <trkpt lat="43.66216" lon="1.3915">
        <ele>125</ele>
        <time>2023-07-02T09:40:45Z</time>
      </trkpt>
      <trkpt lat="43.66211" lon="1.39147">
        <ele>125</ele>
        <time>2023-07-02T09:40:46Z</time>
      </trkpt>
      <trkpt lat="43.66209" lon="1.39147">
        <ele>125</ele>
        <time>2023-07-02T09:40:47Z</time>
      </trkpt>
      <trkpt lat="43.66207" lon="1.39148">
        <ele>124</ele>
        <time>2023-07-02T09:40:48Z</time>
      </trkpt>
      <trkpt lat="43.66204" lon="1.39149">
        <ele>124</ele>
        <time>2023-07-02T09:40:49Z</time>
      </trkpt>
      <trkpt lat="43.66203" lon="1.3915">
        <ele>124</ele>
        <time>2023-07-02T09:40:50Z</time>
      </trkpt>
      <trkpt lat="43.66201" lon="1.39152">
        <ele>124</ele>
        <time>2023-07-02T09:40:51Z</time>
      </trkpt>
      <trkpt lat="43.66199" lon="1.39154">
        <ele>124</ele>
        <time>2023-07-02T09:40:53Z</time>
      </trkpt>
      <trkpt lat="43.66196" lon="1.39159">
        <ele>124</ele>
        <time>2023-07-02T09:40:54Z</time>
      </trkpt>
      <trkpt lat="43.66192" lon="1.39162">
        <ele>124</ele>
        <time>2023-07-02T09:40:56Z</time>
      </trkpt>
      <trkpt lat="43.66191" lon="1.39164">
        <ele>124</ele>
        <time>2023-07-02T09:40:57Z</time>
      </trkpt>
      <trkpt lat="43.66191" lon="1.39164">
        <ele>124</ele>
        <time>2023-07-02T09:40:58Z</time>
      </trkpt>
      <trkpt lat="43.66186" lon="1.39167">
        <ele>124</ele>
        <time>2023-07-02T09:40:59Z</time>
      </trkpt>
      <trkpt lat="43.66184" lon="1.39169">
        <ele>123</ele>
        <time>2023-07-02T09:41:00Z</time>
      </trkpt>
      <trkpt lat="43.66182" lon="1.3917">
        <ele>124</ele>
        <time>2023-07-02T09:41:01Z</time>
      </trkpt>
      <trkpt lat="43.66182" lon="1.3917">
        <ele>124</ele>
        <time>2023-07-02T09:41:02Z</time>
      </trkpt>
      <trkpt lat="43.66179" lon="1.39172">
        <ele>125</ele>
        <time>2023-07-02T09:41:03Z</time>
      </trkpt>
      <trkpt lat="43.66177" lon="1.39173">
        <ele>125</ele>
        <time>2023-07-02T09:41:04Z</time>
      </trkpt>
      <trkpt lat="43.66175" lon="1.39175">
        <ele>125</ele>
        <time>2023-07-02T09:41:05Z</time>
      </trkpt>
      <trkpt lat="43.66172" lon="1.39176">
        <ele>125</ele>
        <time>2023-07-02T09:41:06Z</time>
      </trkpt>
      <trkpt lat="43.66168" lon="1.39177">
        <ele>124</ele>
        <time>2023-07-02T09:41:07Z</time>
      </trkpt>
      <trkpt lat="43.66166" lon="1.39178">
        <ele>124</ele>
        <time>2023-07-02T09:41:08Z</time>
      </trkpt>
      <trkpt lat="43.66164" lon="1.39179">
        <ele>124</ele>
        <time>2023-07-02T09:41:09Z</time>
      </trkpt>
      <trkpt lat="43.66162" lon="1.39181">
        <ele>124</ele>
        <time>2023-07-02T09:41:10Z</time>
      </trkpt>
      <trkpt lat="43.6616" lon="1.39183">
        <ele>124</ele>
        <time>2023-07-02T09:41:12Z</time>
      </trkpt>
      <trkpt lat="43.66155" lon="1.39187">
        <ele>124</ele>
        <time>2023-07-02T09:41:13Z</time>
      </trkpt>
      <trkpt lat="43.66153" lon="1.39189">
        <ele>124</ele>
        <time>2023-07-02T09:41:14Z</time>
      </trkpt>
      <trkpt lat="43.6615" lon="1.3919">
        <ele>124</ele>
        <time>2023-07-02T09:41:15Z</time>
      </trkpt>
      <trkpt lat="43.66147" lon="1.39191">
        <ele>124</ele>
        <time>2023-07-02T09:41:17Z</time>
      </trkpt>
      <trkpt lat="43.66144" lon="1.39192">
        <ele>123</ele>
        <time>2023-07-02T09:41:18Z</time>
      </trkpt>
      <trkpt lat="43.6614" lon="1.39193">
        <ele>123</ele>
        <time>2023-07-02T09:41:19Z</time>
      </trkpt>
      <trkpt lat="43.66137" lon="1.39194">
        <ele>124</ele>
        <time>2023-07-02T09:41:20Z</time>
      </trkpt>
      <trkpt lat="43.66134" lon="1.39195">
        <ele>124</ele>
        <time>2023-07-02T09:41:21Z</time>
      </trkpt>
      <trkpt lat="43.66132" lon="1.39196">
        <ele>124</ele>
        <time>2023-07-02T09:41:22Z</time>
      </trkpt>
      <trkpt lat="43.66129" lon="1.39197">
        <ele>124</ele>
        <time>2023-07-02T09:41:23Z</time>
      </trkpt>
      <trkpt lat="43.66127" lon="1.39198">
        <ele>124</ele>
        <time>2023-07-02T09:41:24Z</time>
      </trkpt>
      <trkpt lat="43.6612" lon="1.39199">
        <ele>124</ele>
        <time>2023-07-02T09:41:25Z</time>
      </trkpt>
      <trkpt lat="43.6612" lon="1.39199">
        <ele>124</ele>
        <time>2023-07-02T09:41:26Z</time>
      </trkpt>
      <trkpt lat="43.66115" lon="1.392">
        <ele>124</ele>
        <time>2023-07-02T09:41:27Z</time>
      </trkpt>
      <trkpt lat="43.66112" lon="1.392">
        <ele>124</ele>
        <time>2023-07-02T09:41:28Z</time>
      </trkpt>
      <trkpt lat="43.6611" lon="1.39201">
        <ele>124</ele>
        <time>2023-07-02T09:41:29Z</time>
      </trkpt>
      <trkpt lat="43.66108" lon="1.39203">
        <ele>124</ele>
        <time>2023-07-02T09:41:31Z</time>
      </trkpt>
      <trkpt lat="43.66105" lon="1.39207">
        <ele>124</ele>
        <time>2023-07-02T09:41:32Z</time>
      </trkpt>
      <trkpt lat="43.661" lon="1.3921">
        <ele>124</ele>
        <time>2023-07-02T09:41:34Z</time>
      </trkpt>
      <trkpt lat="43.66098" lon="1.39212">
        <ele>124</ele>
        <time>2023-07-02T09:41:35Z</time>
      </trkpt>
      <trkpt lat="43.66096" lon="1.39213">
        <ele>124</ele>
        <time>2023-07-02T09:41:36Z</time>
      </trkpt>
      <trkpt lat="43.66094" lon="1.39215">
        <ele>124</ele>
        <time>2023-07-02T09:41:37Z</time>
      </trkpt>
      <trkpt lat="43.66091" lon="1.39216">
        <ele>124</ele>
        <time>2023-07-02T09:41:38Z</time>
      </trkpt>
      <trkpt lat="43.66088" lon="1.39218">
        <ele>124</ele>
        <time>2023-07-02T09:41:39Z</time>
      </trkpt>
      <trkpt lat="43.66085" lon="1.39219">
        <ele>124</ele>
        <time>2023-07-02T09:41:40Z</time>
      </trkpt>
      <trkpt lat="43.66085" lon="1.39219">
        <ele>124</ele>
        <time>2023-07-02T09:41:41Z</time>
      </trkpt>
      <trkpt lat="43.66081" lon="1.39221">
        <ele>124</ele>
        <time>2023-07-02T09:41:42Z</time>
      </trkpt>
      <trkpt lat="43.66077" lon="1.39222">
        <ele>124</ele>
        <time>2023-07-02T09:41:43Z</time>
      </trkpt>
      <trkpt lat="43.66073" lon="1.39223">
        <ele>124</ele>
        <time>2023-07-02T09:41:44Z</time>
      </trkpt>
      <trkpt lat="43.66073" lon="1.39223">
        <ele>124</ele>
        <time>2023-07-02T09:41:45Z</time>
      </trkpt>
      <trkpt lat="43.6607" lon="1.39224">
        <ele>124</ele>
        <time>2023-07-02T09:41:46Z</time>
      </trkpt>
      <trkpt lat="43.66067" lon="1.39224">
        <ele>124</ele>
        <time>2023-07-02T09:41:47Z</time>
      </trkpt>
      <trkpt lat="43.66064" lon="1.39225">
        <ele>124</ele>
        <time>2023-07-02T09:41:48Z</time>
      </trkpt>
      <trkpt lat="43.66055" lon="1.39224">
        <ele>124</ele>
        <time>2023-07-02T09:41:50Z</time>
      </trkpt>
      <trkpt lat="43.66054" lon="1.39224">
        <ele>124</ele>
        <time>2023-07-02T09:41:51Z</time>
      </trkpt>
      <trkpt lat="43.66048" lon="1.39225">
        <ele>124</ele>
        <time>2023-07-02T09:41:52Z</time>
      </trkpt>
      <trkpt lat="43.66044" lon="1.39225">
        <ele>124</ele>
        <time>2023-07-02T09:41:53Z</time>
      </trkpt>
      <trkpt lat="43.66041" lon="1.39225">
        <ele>124</ele>
        <time>2023-07-02T09:41:54Z</time>
      </trkpt>
      <trkpt lat="43.66041" lon="1.39225">
        <ele>124</ele>
        <time>2023-07-02T09:41:55Z</time>
      </trkpt>
      <trkpt lat="43.66038" lon="1.39226">
        <ele>124</ele>
        <time>2023-07-02T09:41:56Z</time>
      </trkpt>
      <trkpt lat="43.66033" lon="1.39226">
        <ele>124</ele>
        <time>2023-07-02T09:41:57Z</time>
      </trkpt>
      <trkpt lat="43.66033" lon="1.39226">
        <ele>124</ele>
        <time>2023-07-02T09:41:58Z</time>
      </trkpt>
      <trkpt lat="43.66029" lon="1.39227">
        <ele>124</ele>
        <time>2023-07-02T09:41:59Z</time>
      </trkpt>
      <trkpt lat="43.66026" lon="1.39228">
        <ele>124</ele>
        <time>2023-07-02T09:42:00Z</time>
      </trkpt>
      <trkpt lat="43.66024" lon="1.39229">
        <ele>124</ele>
        <time>2023-07-02T09:42:01Z</time>
      </trkpt>
      <trkpt lat="43.66022" lon="1.3923">
        <ele>124</ele>
        <time>2023-07-02T09:42:02Z</time>
      </trkpt>
      <trkpt lat="43.66022" lon="1.3923">
        <ele>124</ele>
        <time>2023-07-02T09:42:03Z</time>
      </trkpt>
      <trkpt lat="43.66017" lon="1.39233">
        <ele>124</ele>
        <time>2023-07-02T09:42:04Z</time>
      </trkpt>
      <trkpt lat="43.66017" lon="1.39233">
        <ele>125</ele>
        <time>2023-07-02T09:42:05Z</time>
      </trkpt>
      <trkpt lat="43.66013" lon="1.39236">
        <ele>125</ele>
        <time>2023-07-02T09:42:06Z</time>
      </trkpt>
      <trkpt lat="43.6601" lon="1.39238">
        <ele>125</ele>
        <time>2023-07-02T09:42:07Z</time>
      </trkpt>
      <trkpt lat="43.66008" lon="1.39239">
        <ele>125</ele>
        <time>2023-07-02T09:42:09Z</time>
      </trkpt>
      <trkpt lat="43.66006" lon="1.39241">
        <ele>125</ele>
        <time>2023-07-02T09:42:10Z</time>
      </trkpt>
      <trkpt lat="43.66" lon="1.39244">
        <ele>125</ele>
        <time>2023-07-02T09:42:11Z</time>
      </trkpt>
      <trkpt lat="43.66" lon="1.39244">
        <ele>125</ele>
        <time>2023-07-02T09:42:12Z</time>
      </trkpt>
      <trkpt lat="43.65995" lon="1.39246">
        <ele>125</ele>
        <time>2023-07-02T09:42:13Z</time>
      </trkpt>
      <trkpt lat="43.65992" lon="1.39246">
        <ele>125</ele>
        <time>2023-07-02T09:42:14Z</time>
      </trkpt>
      <trkpt lat="43.65989" lon="1.39246">
        <ele>125</ele>
        <time>2023-07-02T09:42:15Z</time>
      </trkpt>
      <trkpt lat="43.65986" lon="1.39246">
        <ele>124</ele>
        <time>2023-07-02T09:42:16Z</time>
      </trkpt>
      <trkpt lat="43.65984" lon="1.39246">
        <ele>124</ele>
        <time>2023-07-02T09:42:17Z</time>
      </trkpt>
      <trkpt lat="43.65982" lon="1.39246">
        <ele>124</ele>
        <time>2023-07-02T09:42:18Z</time>
      </trkpt>
      <trkpt lat="43.6598" lon="1.39247">
        <ele>125</ele>
        <time>2023-07-02T09:42:19Z</time>
      </trkpt>
      <trkpt lat="43.65978" lon="1.39249">
        <ele>125</ele>
        <time>2023-07-02T09:42:20Z</time>
      </trkpt>
      <trkpt lat="43.65978" lon="1.39249">
        <ele>124</ele>
        <time>2023-07-02T09:42:21Z</time>
      </trkpt>
      <trkpt lat="43.65972" lon="1.39251">
        <ele>125</ele>
        <time>2023-07-02T09:42:22Z</time>
      </trkpt>
      <trkpt lat="43.65969" lon="1.39252">
        <ele>125</ele>
        <time>2023-07-02T09:42:23Z</time>
      </trkpt>
      <trkpt lat="43.65969" lon="1.39252">
        <ele>125</ele>
        <time>2023-07-02T09:42:24Z</time>
      </trkpt>
      <trkpt lat="43.65965" lon="1.3925">
        <ele>125</ele>
        <time>2023-07-02T09:42:25Z</time>
      </trkpt>
      <trkpt lat="43.65963" lon="1.3925">
        <ele>125</ele>
        <time>2023-07-02T09:42:26Z</time>
      </trkpt>
      <trkpt lat="43.65961" lon="1.3925">
        <ele>125</ele>
        <time>2023-07-02T09:42:28Z</time>
      </trkpt>
      <trkpt lat="43.65959" lon="1.39249">
        <ele>125</ele>
        <time>2023-07-02T09:42:29Z</time>
      </trkpt>
      <trkpt lat="43.65954" lon="1.39248">
        <ele>124</ele>
        <time>2023-07-02T09:42:30Z</time>
      </trkpt>
      <trkpt lat="43.65954" lon="1.39248">
        <ele>124</ele>
        <time>2023-07-02T09:42:31Z</time>
      </trkpt>
      <trkpt lat="43.6595" lon="1.39245">
        <ele>125</ele>
        <time>2023-07-02T09:42:32Z</time>
      </trkpt>
      <trkpt lat="43.6595" lon="1.39245">
        <ele>125</ele>
        <time>2023-07-02T09:42:33Z</time>
      </trkpt>
      <trkpt lat="43.65947" lon="1.39244">
        <ele>125</ele>
        <time>2023-07-02T09:42:34Z</time>
      </trkpt>
      <trkpt lat="43.65943" lon="1.39243">
        <ele>125</ele>
        <time>2023-07-02T09:42:35Z</time>
      </trkpt>
      <trkpt lat="43.65943" lon="1.39243">
        <ele>125</ele>
        <time>2023-07-02T09:42:36Z</time>
      </trkpt>
      <trkpt lat="43.65937" lon="1.39244">
        <ele>125</ele>
        <time>2023-07-02T09:42:37Z</time>
      </trkpt>
      <trkpt lat="43.65937" lon="1.39244">
        <ele>125</ele>
        <time>2023-07-02T09:42:38Z</time>
      </trkpt>
      <trkpt lat="43.65932" lon="1.39245">
        <ele>125</ele>
        <time>2023-07-02T09:42:39Z</time>
      </trkpt>
      <trkpt lat="43.65932" lon="1.39245">
        <ele>125</ele>
        <time>2023-07-02T09:42:40Z</time>
      </trkpt>
      <trkpt lat="43.65927" lon="1.39245">
        <ele>125</ele>
        <time>2023-07-02T09:42:41Z</time>
      </trkpt>
      <trkpt lat="43.65924" lon="1.39245">
        <ele>125</ele>
        <time>2023-07-02T09:42:42Z</time>
      </trkpt>
      <trkpt lat="43.65924" lon="1.39245">
        <ele>125</ele>
        <time>2023-07-02T09:42:43Z</time>
      </trkpt>
      <trkpt lat="43.65919" lon="1.39245">
        <ele>125</ele>
        <time>2023-07-02T09:42:44Z</time>
      </trkpt>
      <trkpt lat="43.65919" lon="1.39245">
        <ele>125</ele>
        <time>2023-07-02T09:42:45Z</time>
      </trkpt>
      <trkpt lat="43.65916" lon="1.39245">
        <ele>125</ele>
        <time>2023-07-02T09:42:46Z</time>
      </trkpt>
      <trkpt lat="43.65913" lon="1.39245">
        <ele>125</ele>
        <time>2023-07-02T09:42:47Z</time>
      </trkpt>
      <trkpt lat="43.6591" lon="1.39245">
        <ele>125</ele>
        <time>2023-07-02T09:42:48Z</time>
      </trkpt>
      <trkpt lat="43.65904" lon="1.39247">
        <ele>125</ele>
        <time>2023-07-02T09:42:49Z</time>
      </trkpt>
      <trkpt lat="43.65904" lon="1.39247">
        <ele>124</ele>
        <time>2023-07-02T09:42:50Z</time>
      </trkpt>
      <trkpt lat="43.65899" lon="1.39247">
        <ele>124</ele>
        <time>2023-07-02T09:42:51Z</time>
      </trkpt>
      <trkpt lat="43.65899" lon="1.39247">
        <ele>124</ele>
        <time>2023-07-02T09:42:52Z</time>
      </trkpt>
      <trkpt lat="43.65893" lon="1.39247">
        <ele>125</ele>
        <time>2023-07-02T09:42:53Z</time>
      </trkpt>
      <trkpt lat="43.6589" lon="1.39247">
        <ele>125</ele>
        <time>2023-07-02T09:42:54Z</time>
      </trkpt>
      <trkpt lat="43.6589" lon="1.39247">
        <ele>125</ele>
        <time>2023-07-02T09:42:55Z</time>
      </trkpt>
      <trkpt lat="43.65884" lon="1.3925">
        <ele>125</ele>
        <time>2023-07-02T09:42:56Z</time>
      </trkpt>
      <trkpt lat="43.65884" lon="1.3925">
        <ele>125</ele>
        <time>2023-07-02T09:42:57Z</time>
      </trkpt>
      <trkpt lat="43.65878" lon="1.39251">
        <ele>125</ele>
        <time>2023-07-02T09:42:58Z</time>
      </trkpt>
      <trkpt lat="43.65878" lon="1.39251">
        <ele>125</ele>
        <time>2023-07-02T09:42:59Z</time>
      </trkpt>
      <trkpt lat="43.65872" lon="1.3925">
        <ele>125</ele>
        <time>2023-07-02T09:43:00Z</time>
      </trkpt>
      <trkpt lat="43.65872" lon="1.3925">
        <ele>125</ele>
        <time>2023-07-02T09:43:01Z</time>
      </trkpt>
      <trkpt lat="43.65868" lon="1.39248">
        <ele>125</ele>
        <time>2023-07-02T09:43:02Z</time>
      </trkpt>
      <trkpt lat="43.65862" lon="1.39246">
        <ele>125</ele>
        <time>2023-07-02T09:43:03Z</time>
      </trkpt>
      <trkpt lat="43.65858" lon="1.39242">
        <ele>125</ele>
        <time>2023-07-02T09:43:05Z</time>
      </trkpt>
      <trkpt lat="43.65855" lon="1.39241">
        <ele>124</ele>
        <time>2023-07-02T09:43:06Z</time>
      </trkpt>
      <trkpt lat="43.65852" lon="1.39239">
        <ele>124</ele>
        <time>2023-07-02T09:43:07Z</time>
      </trkpt>
      <trkpt lat="43.6585" lon="1.39238">
        <ele>125</ele>
        <time>2023-07-02T09:43:09Z</time>
      </trkpt>
      <trkpt lat="43.65845" lon="1.39236">
        <ele>125</ele>
        <time>2023-07-02T09:43:10Z</time>
      </trkpt>
      <trkpt lat="43.65845" lon="1.39236">
        <ele>125</ele>
        <time>2023-07-02T09:43:11Z</time>
      </trkpt>
      <trkpt lat="43.65843" lon="1.39236">
        <ele>125</ele>
        <time>2023-07-02T09:43:12Z</time>
      </trkpt>
      <trkpt lat="43.65841" lon="1.39235">
        <ele>125</ele>
        <time>2023-07-02T09:43:13Z</time>
      </trkpt>
      <trkpt lat="43.65837" lon="1.39234">
        <ele>126</ele>
        <time>2023-07-02T09:43:14Z</time>
      </trkpt>
      <trkpt lat="43.65837" lon="1.39234">
        <ele>126</ele>
        <time>2023-07-02T09:43:15Z</time>
      </trkpt>
      <trkpt lat="43.65831" lon="1.39234">
        <ele>126</ele>
        <time>2023-07-02T09:43:16Z</time>
      </trkpt>
      <trkpt lat="43.65831" lon="1.39234">
        <ele>126</ele>
        <time>2023-07-02T09:43:17Z</time>
      </trkpt>
      <trkpt lat="43.65826" lon="1.39232">
        <ele>126</ele>
        <time>2023-07-02T09:43:18Z</time>
      </trkpt>
      <trkpt lat="43.65826" lon="1.39232">
        <ele>126</ele>
        <time>2023-07-02T09:43:19Z</time>
      </trkpt>
      <trkpt lat="43.65823" lon="1.39231">
        <ele>126</ele>
        <time>2023-07-02T09:43:20Z</time>
      </trkpt>
      <trkpt lat="43.65817" lon="1.39228">
        <ele>125</ele>
        <time>2023-07-02T09:43:21Z</time>
      </trkpt>
      <trkpt lat="43.65817" lon="1.39228">
        <ele>125</ele>
        <time>2023-07-02T09:43:22Z</time>
      </trkpt>
      <trkpt lat="43.65814" lon="1.39227">
        <ele>125</ele>
        <time>2023-07-02T09:43:23Z</time>
      </trkpt>
      <trkpt lat="43.65811" lon="1.39225">
        <ele>125</ele>
        <time>2023-07-02T09:43:24Z</time>
      </trkpt>
      <trkpt lat="43.65806" lon="1.39225">
        <ele>125</ele>
        <time>2023-07-02T09:43:25Z</time>
      </trkpt>
      <trkpt lat="43.65802" lon="1.39225">
        <ele>125</ele>
        <time>2023-07-02T09:43:26Z</time>
      </trkpt>
      <trkpt lat="43.65802" lon="1.39225">
        <ele>125</ele>
        <time>2023-07-02T09:43:27Z</time>
      </trkpt>
      <trkpt lat="43.65799" lon="1.39224">
        <ele>125</ele>
        <time>2023-07-02T09:43:28Z</time>
      </trkpt>
      <trkpt lat="43.65796" lon="1.39224">
        <ele>125</ele>
        <time>2023-07-02T09:43:29Z</time>
      </trkpt>
      <trkpt lat="43.6579" lon="1.39223">
        <ele>125</ele>
        <time>2023-07-02T09:43:30Z</time>
      </trkpt>
      <trkpt lat="43.6579" lon="1.39223">
        <ele>125</ele>
        <time>2023-07-02T09:43:31Z</time>
      </trkpt>
      <trkpt lat="43.65785" lon="1.39222">
        <ele>125</ele>
        <time>2023-07-02T09:43:32Z</time>
      </trkpt>
      <trkpt lat="43.65783" lon="1.3922">
        <ele>125</ele>
        <time>2023-07-02T09:43:33Z</time>
      </trkpt>
      <trkpt lat="43.6578" lon="1.39217">
        <ele>125</ele>
        <time>2023-07-02T09:43:34Z</time>
      </trkpt>
      <trkpt lat="43.65778" lon="1.39214">
        <ele>126</ele>
        <time>2023-07-02T09:43:35Z</time>
      </trkpt>
      <trkpt lat="43.65776" lon="1.39211">
        <ele>126</ele>
        <time>2023-07-02T09:43:36Z</time>
      </trkpt>
      <trkpt lat="43.65774" lon="1.39208">
        <ele>126</ele>
        <time>2023-07-02T09:43:37Z</time>
      </trkpt>
      <trkpt lat="43.65774" lon="1.39208">
        <ele>126</ele>
        <time>2023-07-02T09:43:38Z</time>
      </trkpt>
      <trkpt lat="43.6577" lon="1.39203">
        <ele>126</ele>
        <time>2023-07-02T09:43:39Z</time>
      </trkpt>
      <trkpt lat="43.65768" lon="1.392">
        <ele>127</ele>
        <time>2023-07-02T09:43:41Z</time>
      </trkpt>
      <trkpt lat="43.65764" lon="1.39196">
        <ele>127</ele>
        <time>2023-07-02T09:43:42Z</time>
      </trkpt>
      <trkpt lat="43.65759" lon="1.39193">
        <ele>127</ele>
        <time>2023-07-02T09:43:44Z</time>
      </trkpt>
      <trkpt lat="43.65757" lon="1.39192">
        <ele>127</ele>
        <time>2023-07-02T09:43:45Z</time>
      </trkpt>
      <trkpt lat="43.65755" lon="1.3919">
        <ele>127</ele>
        <time>2023-07-02T09:43:46Z</time>
      </trkpt>
      <trkpt lat="43.65753" lon="1.39188">
        <ele>127</ele>
        <time>2023-07-02T09:43:47Z</time>
      </trkpt>
      <trkpt lat="43.65751" lon="1.39187">
        <ele>127</ele>
        <time>2023-07-02T09:43:48Z</time>
      </trkpt>
      <trkpt lat="43.65748" lon="1.39185">
        <ele>127</ele>
        <time>2023-07-02T09:43:49Z</time>
      </trkpt>
      <trkpt lat="43.65746" lon="1.39184">
        <ele>127</ele>
        <time>2023-07-02T09:43:50Z</time>
      </trkpt>
      <trkpt lat="43.65744" lon="1.39182">
        <ele>127</ele>
        <time>2023-07-02T09:43:51Z</time>
      </trkpt>
      <trkpt lat="43.65741" lon="1.3918">
        <ele>127</ele>
        <time>2023-07-02T09:43:52Z</time>
      </trkpt>
      <trkpt lat="43.65739" lon="1.39179">
        <ele>127</ele>
        <time>2023-07-02T09:43:53Z</time>
      </trkpt>
      <trkpt lat="43.65737" lon="1.39178">
        <ele>127</ele>
        <time>2023-07-02T09:43:54Z</time>
      </trkpt>
      <trkpt lat="43.65737" lon="1.39178">
        <ele>127</ele>
        <time>2023-07-02T09:43:55Z</time>
      </trkpt>
      <trkpt lat="43.65734" lon="1.39177">
        <ele>126</ele>
        <time>2023-07-02T09:43:56Z</time>
      </trkpt>
      <trkpt lat="43.65731" lon="1.39175">
        <ele>126</ele>
        <time>2023-07-02T09:43:57Z</time>
      </trkpt>
      <trkpt lat="43.65728" lon="1.39174">
        <ele>127</ele>
        <time>2023-07-02T09:43:58Z</time>
      </trkpt>
      <trkpt lat="43.65728" lon="1.39174">
        <ele>127</ele>
        <time>2023-07-02T09:43:59Z</time>
      </trkpt>
      <trkpt lat="43.65721" lon="1.39169">
        <ele>127</ele>
        <time>2023-07-02T09:44:00Z</time>
      </trkpt>
      <trkpt lat="43.65718" lon="1.39168">
        <ele>127</ele>
        <time>2023-07-02T09:44:02Z</time>
      </trkpt>
      <trkpt lat="43.65714" lon="1.39165">
        <ele>127</ele>
        <time>2023-07-02T09:44:03Z</time>
      </trkpt>
      <trkpt lat="43.65711" lon="1.39164">
        <ele>127</ele>
        <time>2023-07-02T09:44:04Z</time>
      </trkpt>
      <trkpt lat="43.65709" lon="1.39162">
        <ele>126</ele>
        <time>2023-07-02T09:44:05Z</time>
      </trkpt>
      <trkpt lat="43.65707" lon="1.39159">
        <ele>126</ele>
        <time>2023-07-02T09:44:06Z</time>
      </trkpt>
      <trkpt lat="43.65707" lon="1.39159">
        <ele>126</ele>
        <time>2023-07-02T09:44:07Z</time>
      </trkpt>
      <trkpt lat="43.65702" lon="1.39153">
        <ele>126</ele>
        <time>2023-07-02T09:44:08Z</time>
      </trkpt>
      <trkpt lat="43.657" lon="1.39151">
        <ele>126</ele>
        <time>2023-07-02T09:44:09Z</time>
      </trkpt>
      <trkpt lat="43.65697" lon="1.39149">
        <ele>126</ele>
        <time>2023-07-02T09:44:10Z</time>
      </trkpt>
      <trkpt lat="43.65695" lon="1.39147">
        <ele>126</ele>
        <time>2023-07-02T09:44:11Z</time>
      </trkpt>
      <trkpt lat="43.65693" lon="1.39146">
        <ele>126</ele>
        <time>2023-07-02T09:44:12Z</time>
      </trkpt>
      <trkpt lat="43.6569" lon="1.39144">
        <ele>126</ele>
        <time>2023-07-02T09:44:13Z</time>
      </trkpt>
      <trkpt lat="43.6569" lon="1.39144">
        <ele>126</ele>
        <time>2023-07-02T09:44:14Z</time>
      </trkpt>
      <trkpt lat="43.65685" lon="1.39139">
        <ele>126</ele>
        <time>2023-07-02T09:44:15Z</time>
      </trkpt>
      <trkpt lat="43.65685" lon="1.39139">
        <ele>126</ele>
        <time>2023-07-02T09:44:16Z</time>
      </trkpt>
      <trkpt lat="43.65682" lon="1.39138">
        <ele>126</ele>
        <time>2023-07-02T09:44:17Z</time>
      </trkpt>
      <trkpt lat="43.6568" lon="1.39138">
        <ele>126</ele>
        <time>2023-07-02T09:44:18Z</time>
      </trkpt>
      <trkpt lat="43.65676" lon="1.39133">
        <ele>126</ele>
        <time>2023-07-02T09:44:19Z</time>
      </trkpt>
      <trkpt lat="43.65673" lon="1.39131">
        <ele>126</ele>
        <time>2023-07-02T09:44:20Z</time>
      </trkpt>
      <trkpt lat="43.6567" lon="1.39129">
        <ele>126</ele>
        <time>2023-07-02T09:44:22Z</time>
      </trkpt>
      <trkpt lat="43.65665" lon="1.39126">
        <ele>126</ele>
        <time>2023-07-02T09:44:23Z</time>
      </trkpt>
      <trkpt lat="43.65662" lon="1.39124">
        <ele>127</ele>
        <time>2023-07-02T09:44:24Z</time>
      </trkpt>
      <trkpt lat="43.65659" lon="1.39122">
        <ele>127</ele>
        <time>2023-07-02T09:44:25Z</time>
      </trkpt>
      <trkpt lat="43.65659" lon="1.39122">
        <ele>127</ele>
        <time>2023-07-02T09:44:26Z</time>
      </trkpt>
      <trkpt lat="43.65654" lon="1.39117">
        <ele>126</ele>
        <time>2023-07-02T09:44:27Z</time>
      </trkpt>
      <trkpt lat="43.65654" lon="1.39117">
        <ele>126</ele>
        <time>2023-07-02T09:44:28Z</time>
      </trkpt>
      <trkpt lat="43.65651" lon="1.39115">
        <ele>126</ele>
        <time>2023-07-02T09:44:29Z</time>
      </trkpt>
      <trkpt lat="43.65647" lon="1.39112">
        <ele>126</ele>
        <time>2023-07-02T09:44:30Z</time>
      </trkpt>
      <trkpt lat="43.65644" lon="1.39111">
        <ele>126</ele>
        <time>2023-07-02T09:44:31Z</time>
      </trkpt>
      <trkpt lat="43.65643" lon="1.39109">
        <ele>126</ele>
        <time>2023-07-02T09:44:32Z</time>
      </trkpt>
      <trkpt lat="43.65643" lon="1.39109">
        <ele>126</ele>
        <time>2023-07-02T09:44:33Z</time>
      </trkpt>
      <trkpt lat="43.65639" lon="1.39108">
        <ele>126</ele>
        <time>2023-07-02T09:44:34Z</time>
      </trkpt>
      <trkpt lat="43.65638" lon="1.39107">
        <ele>127</ele>
        <time>2023-07-02T09:44:35Z</time>
      </trkpt>
      <trkpt lat="43.65633" lon="1.39104">
        <ele>127</ele>
        <time>2023-07-02T09:44:36Z</time>
      </trkpt>
      <trkpt lat="43.65631" lon="1.39102">
        <ele>127</ele>
        <time>2023-07-02T09:44:37Z</time>
      </trkpt>
      <trkpt lat="43.65631" lon="1.39102">
        <ele>127</ele>
        <time>2023-07-02T09:44:38Z</time>
      </trkpt>
      <trkpt lat="43.65625" lon="1.39098">
        <ele>127</ele>
        <time>2023-07-02T09:44:39Z</time>
      </trkpt>
      <trkpt lat="43.6562" lon="1.39094">
        <ele>127</ele>
        <time>2023-07-02T09:44:41Z</time>
      </trkpt>
      <trkpt lat="43.6562" lon="1.39094">
        <ele>127</ele>
        <time>2023-07-02T09:44:42Z</time>
      </trkpt>
      <trkpt lat="43.65615" lon="1.3909">
        <ele>127</ele>
        <time>2023-07-02T09:44:43Z</time>
      </trkpt>
      <trkpt lat="43.65615" lon="1.3909">
        <ele>127</ele>
        <time>2023-07-02T09:44:44Z</time>
      </trkpt>
      <trkpt lat="43.65613" lon="1.39089">
        <ele>127</ele>
        <time>2023-07-02T09:44:45Z</time>
      </trkpt>
      <trkpt lat="43.65608" lon="1.39085">
        <ele>127</ele>
        <time>2023-07-02T09:44:46Z</time>
      </trkpt>
      <trkpt lat="43.65608" lon="1.39085">
        <ele>127</ele>
        <time>2023-07-02T09:44:47Z</time>
      </trkpt>
      <trkpt lat="43.65603" lon="1.39082">
        <ele>127</ele>
        <time>2023-07-02T09:44:48Z</time>
      </trkpt>
      <trkpt lat="43.65601" lon="1.3908">
        <ele>127</ele>
        <time>2023-07-02T09:44:49Z</time>
      </trkpt>
      <trkpt lat="43.65599" lon="1.39078">
        <ele>127</ele>
        <time>2023-07-02T09:44:50Z</time>
      </trkpt>
      <trkpt lat="43.65599" lon="1.39078">
        <ele>127</ele>
        <time>2023-07-02T09:44:51Z</time>
      </trkpt>
      <trkpt lat="43.65594" lon="1.39076">
        <ele>127</ele>
        <time>2023-07-02T09:44:52Z</time>
      </trkpt>
      <trkpt lat="43.65593" lon="1.39075">
        <ele>127</ele>
        <time>2023-07-02T09:44:53Z</time>
      </trkpt>
      <trkpt lat="43.65588" lon="1.39072">
        <ele>127</ele>
        <time>2023-07-02T09:44:54Z</time>
      </trkpt>
      <trkpt lat="43.65585" lon="1.39071">
        <ele>127</ele>
        <time>2023-07-02T09:44:55Z</time>
      </trkpt>
      <trkpt lat="43.65582" lon="1.39069">
        <ele>127</ele>
        <time>2023-07-02T09:44:56Z</time>
      </trkpt>
      <trkpt lat="43.6558" lon="1.39068">
        <ele>127</ele>
        <time>2023-07-02T09:44:57Z</time>
      </trkpt>
      <trkpt lat="43.6558" lon="1.39068">
        <ele>127</ele>
        <time>2023-07-02T09:44:58Z</time>
      </trkpt>
      <trkpt lat="43.65576" lon="1.39065">
        <ele>127</ele>
        <time>2023-07-02T09:44:59Z</time>
      </trkpt>
      <trkpt lat="43.65574" lon="1.39065">
        <ele>127</ele>
        <time>2023-07-02T09:45:00Z</time>
      </trkpt>
      <trkpt lat="43.65569" lon="1.39061">
        <ele>127</ele>
        <time>2023-07-02T09:45:01Z</time>
      </trkpt>
      <trkpt lat="43.65569" lon="1.39061">
        <ele>127</ele>
        <time>2023-07-02T09:45:02Z</time>
      </trkpt>
      <trkpt lat="43.65567" lon="1.39059">
        <ele>127</ele>
        <time>2023-07-02T09:45:03Z</time>
      </trkpt>
      <trkpt lat="43.65565" lon="1.39057">
        <ele>126</ele>
        <time>2023-07-02T09:45:04Z</time>
      </trkpt>
      <trkpt lat="43.6556" lon="1.39053">
        <ele>126</ele>
        <time>2023-07-02T09:45:05Z</time>
      </trkpt>
      <trkpt lat="43.65557" lon="1.39052">
        <ele>126</ele>
        <time>2023-07-02T09:45:06Z</time>
      </trkpt>
      <trkpt lat="43.65555" lon="1.3905">
        <ele>126</ele>
        <time>2023-07-02T09:45:07Z</time>
      </trkpt>
      <trkpt lat="43.65552" lon="1.39048">
        <ele>125</ele>
        <time>2023-07-02T09:45:08Z</time>
      </trkpt>
      <trkpt lat="43.65552" lon="1.39048">
        <ele>125</ele>
        <time>2023-07-02T09:45:09Z</time>
      </trkpt>
      <trkpt lat="43.65547" lon="1.39045">
        <ele>125</ele>
        <time>2023-07-02T09:45:10Z</time>
      </trkpt>
      <trkpt lat="43.65545" lon="1.39043">
        <ele>125</ele>
        <time>2023-07-02T09:45:11Z</time>
      </trkpt>
      <trkpt lat="43.65542" lon="1.39042">
        <ele>125</ele>
        <time>2023-07-02T09:45:12Z</time>
      </trkpt>
      <trkpt lat="43.6554" lon="1.3904">
        <ele>125</ele>
        <time>2023-07-02T09:45:13Z</time>
      </trkpt>
      <trkpt lat="43.6554" lon="1.3904">
        <ele>125</ele>
        <time>2023-07-02T09:45:14Z</time>
      </trkpt>
      <trkpt lat="43.65537" lon="1.39038">
        <ele>125</ele>
        <time>2023-07-02T09:45:15Z</time>
      </trkpt>
      <trkpt lat="43.65535" lon="1.39036">
        <ele>125</ele>
        <time>2023-07-02T09:45:16Z</time>
      </trkpt>
      <trkpt lat="43.6553" lon="1.39033">
        <ele>125</ele>
        <time>2023-07-02T09:45:17Z</time>
      </trkpt>
      <trkpt lat="43.65525" lon="1.3903">
        <ele>125</ele>
        <time>2023-07-02T09:45:19Z</time>
      </trkpt>
      <trkpt lat="43.65525" lon="1.3903">
        <ele>125</ele>
        <time>2023-07-02T09:45:20Z</time>
      </trkpt>
      <trkpt lat="43.6552" lon="1.39026">
        <ele>125</ele>
        <time>2023-07-02T09:45:21Z</time>
      </trkpt>
      <trkpt lat="43.65518" lon="1.39024">
        <ele>125</ele>
        <time>2023-07-02T09:45:22Z</time>
      </trkpt>
      <trkpt lat="43.65516" lon="1.39023">
        <ele>125</ele>
        <time>2023-07-02T09:45:23Z</time>
      </trkpt>
      <trkpt lat="43.65513" lon="1.39022">
        <ele>125</ele>
        <time>2023-07-02T09:45:24Z</time>
      </trkpt>
      <trkpt lat="43.65513" lon="1.39022">
        <ele>125</ele>
        <time>2023-07-02T09:45:25Z</time>
      </trkpt>
      <trkpt lat="43.65508" lon="1.39021">
        <ele>125</ele>
        <time>2023-07-02T09:45:26Z</time>
      </trkpt>
      <trkpt lat="43.65505" lon="1.3902">
        <ele>125</ele>
        <time>2023-07-02T09:45:27Z</time>
      </trkpt>
      <trkpt lat="43.65499" lon="1.3902">
        <ele>124</ele>
        <time>2023-07-02T09:45:29Z</time>
      </trkpt>
      <trkpt lat="43.65499" lon="1.3902">
        <ele>125</ele>
        <time>2023-07-02T09:45:30Z</time>
      </trkpt>
      <trkpt lat="43.65495" lon="1.39018">
        <ele>125</ele>
        <time>2023-07-02T09:45:31Z</time>
      </trkpt>
      <trkpt lat="43.65492" lon="1.39017">
        <ele>125</ele>
        <time>2023-07-02T09:45:32Z</time>
      </trkpt>
      <trkpt lat="43.6549" lon="1.39015">
        <ele>125</ele>
        <time>2023-07-02T09:45:33Z</time>
      </trkpt>
      <trkpt lat="43.65487" lon="1.39014">
        <ele>126</ele>
        <time>2023-07-02T09:45:34Z</time>
      </trkpt>
      <trkpt lat="43.65485" lon="1.39012">
        <ele>127</ele>
        <time>2023-07-02T09:45:35Z</time>
      </trkpt>
      <trkpt lat="43.65482" lon="1.39011">
        <ele>127</ele>
        <time>2023-07-02T09:45:36Z</time>
      </trkpt>
      <trkpt lat="43.6548" lon="1.3901">
        <ele>127</ele>
        <time>2023-07-02T09:45:38Z</time>
      </trkpt>
      <trkpt lat="43.65477" lon="1.39008">
        <ele>127</ele>
        <time>2023-07-02T09:45:39Z</time>
      </trkpt>
      <trkpt lat="43.65473" lon="1.39006">
        <ele>126</ele>
        <time>2023-07-02T09:45:40Z</time>
      </trkpt>
      <trkpt lat="43.6547" lon="1.39004">
        <ele>126</ele>
        <time>2023-07-02T09:45:41Z</time>
      </trkpt>
      <trkpt lat="43.65468" lon="1.39002">
        <ele>125</ele>
        <time>2023-07-02T09:45:42Z</time>
      </trkpt>
      <trkpt lat="43.65466" lon="1.39">
        <ele>125</ele>
        <time>2023-07-02T09:45:43Z</time>
      </trkpt>
      <trkpt lat="43.65466" lon="1.39">
        <ele>125</ele>
        <time>2023-07-02T09:45:44Z</time>
      </trkpt>
      <trkpt lat="43.65463" lon="1.38995">
        <ele>125</ele>
        <time>2023-07-02T09:45:45Z</time>
      </trkpt>
      <trkpt lat="43.65461" lon="1.38993">
        <ele>125</ele>
        <time>2023-07-02T09:45:46Z</time>
      </trkpt>
      <trkpt lat="43.65459" lon="1.3899">
        <ele>125</ele>
        <time>2023-07-02T09:45:47Z</time>
      </trkpt>
      <trkpt lat="43.65458" lon="1.38988">
        <ele>126</ele>
        <time>2023-07-02T09:45:49Z</time>
      </trkpt>
      <trkpt lat="43.65456" lon="1.38982">
        <ele>126</ele>
        <time>2023-07-02T09:45:50Z</time>
      </trkpt>
      <trkpt lat="43.65455" lon="1.38978">
        <ele>126</ele>
        <time>2023-07-02T09:45:51Z</time>
      </trkpt>
      <trkpt lat="43.65454" lon="1.38975">
        <ele>126</ele>
        <time>2023-07-02T09:45:52Z</time>
      </trkpt>
      <trkpt lat="43.65453" lon="1.38971">
        <ele>126</ele>
        <time>2023-07-02T09:45:53Z</time>
      </trkpt>
      <trkpt lat="43.65453" lon="1.38971">
        <ele>126</ele>
        <time>2023-07-02T09:45:54Z</time>
      </trkpt>
      <trkpt lat="43.6545" lon="1.38964">
        <ele>126</ele>
        <time>2023-07-02T09:45:55Z</time>
      </trkpt>
      <trkpt lat="43.65447" lon="1.38957">
        <ele>126</ele>
        <time>2023-07-02T09:45:57Z</time>
      </trkpt>
      <trkpt lat="43.65447" lon="1.38957">
        <ele>126</ele>
        <time>2023-07-02T09:45:58Z</time>
      </trkpt>
      <trkpt lat="43.65442" lon="1.3895">
        <ele>125</ele>
        <time>2023-07-02T09:45:59Z</time>
      </trkpt>
      <trkpt lat="43.6544" lon="1.38947">
        <ele>126</ele>
        <time>2023-07-02T09:46:00Z</time>
      </trkpt>
      <trkpt lat="43.6544" lon="1.38947">
        <ele>127</ele>
        <time>2023-07-02T09:46:01Z</time>
      </trkpt>
      <trkpt lat="43.65437" lon="1.3894">
        <ele>127</ele>
        <time>2023-07-02T09:46:02Z</time>
      </trkpt>
      <trkpt lat="43.65437" lon="1.3894">
        <ele>127</ele>
        <time>2023-07-02T09:46:03Z</time>
      </trkpt>
      <trkpt lat="43.65434" lon="1.38933">
        <ele>128</ele>
        <time>2023-07-02T09:46:04Z</time>
      </trkpt>
      <trkpt lat="43.65433" lon="1.3893">
        <ele>130</ele>
        <time>2023-07-02T09:46:06Z</time>
      </trkpt>
      <trkpt lat="43.6543" lon="1.38925">
        <ele>131</ele>
        <time>2023-07-02T09:46:07Z</time>
      </trkpt>
      <trkpt lat="43.6543" lon="1.38925">
        <ele>132</ele>
        <time>2023-07-02T09:46:08Z</time>
      </trkpt>
      <trkpt lat="43.65427" lon="1.38921">
        <ele>133</ele>
        <time>2023-07-02T09:46:09Z</time>
      </trkpt>
      <trkpt lat="43.65426" lon="1.3892">
        <ele>133</ele>
        <time>2023-07-02T09:46:10Z</time>
      </trkpt>
      <trkpt lat="43.65426" lon="1.3892">
        <ele>133</ele>
        <time>2023-07-02T09:46:11Z</time>
      </trkpt>
      <trkpt lat="43.65423" lon="1.38917">
        <ele>134</ele>
        <time>2023-07-02T09:46:12Z</time>
      </trkpt>
      <trkpt lat="43.65422" lon="1.38914">
        <ele>134</ele>
        <time>2023-07-02T09:46:13Z</time>
      </trkpt>
      <trkpt lat="43.65422" lon="1.38914">
        <ele>135</ele>
        <time>2023-07-02T09:46:14Z</time>
      </trkpt>
      <trkpt lat="43.65421" lon="1.38909">
        <ele>135</ele>
        <time>2023-07-02T09:46:16Z</time>
      </trkpt>
      <trkpt lat="43.6542" lon="1.38906">
        <ele>135</ele>
        <time>2023-07-02T09:46:17Z</time>
      </trkpt>
      <trkpt lat="43.65418" lon="1.389">
        <ele>134</ele>
        <time>2023-07-02T09:46:18Z</time>
      </trkpt>
      <trkpt lat="43.65417" lon="1.38897">
        <ele>134</ele>
        <time>2023-07-02T09:46:19Z</time>
      </trkpt>
      <trkpt lat="43.65417" lon="1.38897">
        <ele>134</ele>
        <time>2023-07-02T09:46:20Z</time>
      </trkpt>
      <trkpt lat="43.65416" lon="1.3889">
        <ele>134</ele>
        <time>2023-07-02T09:46:21Z</time>
      </trkpt>
      <trkpt lat="43.65416" lon="1.3889">
        <ele>134</ele>
        <time>2023-07-02T09:46:22Z</time>
      </trkpt>
      <trkpt lat="43.65414" lon="1.38885">
        <ele>134</ele>
        <time>2023-07-02T09:46:23Z</time>
      </trkpt>
      <trkpt lat="43.65414" lon="1.38882">
        <ele>134</ele>
        <time>2023-07-02T09:46:24Z</time>
      </trkpt>
      <trkpt lat="43.65413" lon="1.38879">
        <ele>134</ele>
        <time>2023-07-02T09:46:25Z</time>
      </trkpt>
      <trkpt lat="43.65412" lon="1.38876">
        <ele>134</ele>
        <time>2023-07-02T09:46:26Z</time>
      </trkpt>
      <trkpt lat="43.65412" lon="1.38876">
        <ele>135</ele>
        <time>2023-07-02T09:46:27Z</time>
      </trkpt>
      <trkpt lat="43.65411" lon="1.38874">
        <ele>135</ele>
        <time>2023-07-02T09:46:28Z</time>
      </trkpt>
      <trkpt lat="43.65409" lon="1.38869">
        <ele>135</ele>
        <time>2023-07-02T09:46:29Z</time>
      </trkpt>
      <trkpt lat="43.65409" lon="1.38869">
        <ele>135</ele>
        <time>2023-07-02T09:46:30Z</time>
      </trkpt>
      <trkpt lat="43.65409" lon="1.38869">
        <ele>135</ele>
        <time>2023-07-02T09:46:31Z</time>
      </trkpt>
      <trkpt lat="43.65407" lon="1.38865">
        <ele>136</ele>
        <time>2023-07-02T09:46:32Z</time>
      </trkpt>
      <trkpt lat="43.65404" lon="1.38862">
        <ele>136</ele>
        <time>2023-07-02T09:46:33Z</time>
      </trkpt>
      <trkpt lat="43.654" lon="1.38862">
        <ele>136</ele>
        <time>2023-07-02T09:46:35Z</time>
      </trkpt>
      <trkpt lat="43.654" lon="1.38862">
        <ele>136</ele>
        <time>2023-07-02T09:46:36Z</time>
      </trkpt>
      <trkpt lat="43.65397" lon="1.38861">
        <ele>136</ele>
        <time>2023-07-02T09:46:37Z</time>
      </trkpt>
      <trkpt lat="43.65397" lon="1.38861">
        <ele>136</ele>
        <time>2023-07-02T09:46:38Z</time>
      </trkpt>
      <trkpt lat="43.65395" lon="1.38861">
        <ele>137</ele>
        <time>2023-07-02T09:46:39Z</time>
      </trkpt>
      <trkpt lat="43.6539" lon="1.38861">
        <ele>137</ele>
        <time>2023-07-02T09:46:40Z</time>
      </trkpt>
      <trkpt lat="43.6539" lon="1.38861">
        <ele>137</ele>
        <time>2023-07-02T09:46:41Z</time>
      </trkpt>
      <trkpt lat="43.65385" lon="1.3886">
        <ele>137</ele>
        <time>2023-07-02T09:46:42Z</time>
      </trkpt>
      <trkpt lat="43.65382" lon="1.3886">
        <ele>136</ele>
        <time>2023-07-02T09:46:43Z</time>
      </trkpt>
      <trkpt lat="43.65382" lon="1.3886">
        <ele>136</ele>
        <time>2023-07-02T09:46:44Z</time>
      </trkpt>
      <trkpt lat="43.65377" lon="1.38859">
        <ele>136</ele>
        <time>2023-07-02T09:46:45Z</time>
      </trkpt>
      <trkpt lat="43.65377" lon="1.38859">
        <ele>136</ele>
        <time>2023-07-02T09:46:46Z</time>
      </trkpt>
      <trkpt lat="43.65372" lon="1.38858">
        <ele>136</ele>
        <time>2023-07-02T09:46:47Z</time>
      </trkpt>
      <trkpt lat="43.65372" lon="1.38858">
        <ele>136</ele>
        <time>2023-07-02T09:46:48Z</time>
      </trkpt>
      <trkpt lat="43.65367" lon="1.38856">
        <ele>136</ele>
        <time>2023-07-02T09:46:49Z</time>
      </trkpt>
      <trkpt lat="43.65367" lon="1.38856">
        <ele>136</ele>
        <time>2023-07-02T09:46:50Z</time>
      </trkpt>
      <trkpt lat="43.65365" lon="1.38854">
        <ele>136</ele>
        <time>2023-07-02T09:46:51Z</time>
      </trkpt>
      <trkpt lat="43.65364" lon="1.38853">
        <ele>136</ele>
        <time>2023-07-02T09:46:52Z</time>
      </trkpt>
      <trkpt lat="43.65361" lon="1.38851">
        <ele>136</ele>
        <time>2023-07-02T09:46:53Z</time>
      </trkpt>
      <trkpt lat="43.6536" lon="1.3885">
        <ele>136</ele>
        <time>2023-07-02T09:46:54Z</time>
      </trkpt>
      <trkpt lat="43.65356" lon="1.38846">
        <ele>136</ele>
        <time>2023-07-02T09:46:55Z</time>
      </trkpt>
      <trkpt lat="43.65356" lon="1.38846">
        <ele>136</ele>
        <time>2023-07-02T09:46:56Z</time>
      </trkpt>
      <trkpt lat="43.65352" lon="1.3884">
        <ele>137</ele>
        <time>2023-07-02T09:46:57Z</time>
      </trkpt>
      <trkpt lat="43.65352" lon="1.3884">
        <ele>137</ele>
        <time>2023-07-02T09:46:58Z</time>
      </trkpt>
      <trkpt lat="43.65348" lon="1.38834">
        <ele>137</ele>
        <time>2023-07-02T09:46:59Z</time>
      </trkpt>
      <trkpt lat="43.65348" lon="1.38834">
        <ele>137</ele>
        <time>2023-07-02T09:47:00Z</time>
      </trkpt>
      <trkpt lat="43.65344" lon="1.3883">
        <ele>137</ele>
        <time>2023-07-02T09:47:01Z</time>
      </trkpt>
      <trkpt lat="43.65344" lon="1.3883">
        <ele>138</ele>
        <time>2023-07-02T09:47:02Z</time>
      </trkpt>
      <trkpt lat="43.65342" lon="1.38828">
        <ele>138</ele>
        <time>2023-07-02T09:47:03Z</time>
      </trkpt>
      <trkpt lat="43.65338" lon="1.38824">
        <ele>138</ele>
        <time>2023-07-02T09:47:04Z</time>
      </trkpt>
      <trkpt lat="43.65336" lon="1.38821">
        <ele>138</ele>
        <time>2023-07-02T09:47:05Z</time>
      </trkpt>
      <trkpt lat="43.65335" lon="1.38819">
        <ele>138</ele>
        <time>2023-07-02T09:47:06Z</time>
      </trkpt>
      <trkpt lat="43.65335" lon="1.38819">
        <ele>138</ele>
        <time>2023-07-02T09:47:07Z</time>
      </trkpt>
      <trkpt lat="43.65333" lon="1.38811">
        <ele>138</ele>
        <time>2023-07-02T09:47:08Z</time>
      </trkpt>
      <trkpt lat="43.65332" lon="1.38807">
        <ele>138</ele>
        <time>2023-07-02T09:47:09Z</time>
      </trkpt>
      <trkpt lat="43.65331" lon="1.38803">
        <ele>138</ele>
        <time>2023-07-02T09:47:11Z</time>
      </trkpt>
      <trkpt lat="43.65329" lon="1.38797">
        <ele>138</ele>
        <time>2023-07-02T09:47:12Z</time>
      </trkpt>
      <trkpt lat="43.65328" lon="1.38796">
        <ele>138</ele>
        <time>2023-07-02T09:47:13Z</time>
      </trkpt>
      <trkpt lat="43.65326" lon="1.38789">
        <ele>138</ele>
        <time>2023-07-02T09:47:14Z</time>
      </trkpt>
      <trkpt lat="43.65326" lon="1.38789">
        <ele>138</ele>
        <time>2023-07-02T09:47:15Z</time>
      </trkpt>
      <trkpt lat="43.65324" lon="1.38781">
        <ele>138</ele>
        <time>2023-07-02T09:47:16Z</time>
      </trkpt>
      <trkpt lat="43.65324" lon="1.38781">
        <ele>138</ele>
        <time>2023-07-02T09:47:17Z</time>
      </trkpt>
      <trkpt lat="43.65322" lon="1.38774">
        <ele>138</ele>
        <time>2023-07-02T09:47:18Z</time>
      </trkpt>
      <trkpt lat="43.65322" lon="1.38774">
        <ele>138</ele>
        <time>2023-07-02T09:47:19Z</time>
      </trkpt>
      <trkpt lat="43.65321" lon="1.38766">
        <ele>138</ele>
        <time>2023-07-02T09:47:20Z</time>
      </trkpt>
      <trkpt lat="43.6532" lon="1.38762">
        <ele>138</ele>
        <time>2023-07-02T09:47:21Z</time>
      </trkpt>
      <trkpt lat="43.6532" lon="1.38762">
        <ele>138</ele>
        <time>2023-07-02T09:47:22Z</time>
      </trkpt>
      <trkpt lat="43.65318" lon="1.38756">
        <ele>138</ele>
        <time>2023-07-02T09:47:23Z</time>
      </trkpt>
      <trkpt lat="43.65318" lon="1.38756">
        <ele>137</ele>
        <time>2023-07-02T09:47:24Z</time>
      </trkpt>
      <trkpt lat="43.65316" lon="1.38749">
        <ele>137</ele>
        <time>2023-07-02T09:47:25Z</time>
      </trkpt>
      <trkpt lat="43.65316" lon="1.38749">
        <ele>137</ele>
        <time>2023-07-02T09:47:26Z</time>
      </trkpt>
      <trkpt lat="43.65314" lon="1.38743">
        <ele>137</ele>
        <time>2023-07-02T09:47:27Z</time>
      </trkpt>
      <trkpt lat="43.65314" lon="1.38742">
        <ele>137</ele>
        <time>2023-07-02T09:47:28Z</time>
      </trkpt>
      <trkpt lat="43.65312" lon="1.38735">
        <ele>136</ele>
        <time>2023-07-02T09:47:29Z</time>
      </trkpt>
      <trkpt lat="43.65312" lon="1.38735">
        <ele>136</ele>
        <time>2023-07-02T09:47:30Z</time>
      </trkpt>
      <trkpt lat="43.65311" lon="1.38731">
        <ele>136</ele>
        <time>2023-07-02T09:47:31Z</time>
      </trkpt>
      <trkpt lat="43.6531" lon="1.38729">
        <ele>138</ele>
        <time>2023-07-02T09:47:32Z</time>
      </trkpt>
      <trkpt lat="43.6531" lon="1.38726">
        <ele>138</ele>
        <time>2023-07-02T09:47:33Z</time>
      </trkpt>
      <trkpt lat="43.6531" lon="1.38726">
        <ele>139</ele>
        <time>2023-07-02T09:47:34Z</time>
      </trkpt>
      <trkpt lat="43.65309" lon="1.38722">
        <ele>139</ele>
        <time>2023-07-02T09:47:35Z</time>
      </trkpt>
      <trkpt lat="43.65309" lon="1.38722">
        <ele>138</ele>
        <time>2023-07-02T09:47:36Z</time>
      </trkpt>
      <trkpt lat="43.65307" lon="1.38715">
        <ele>137</ele>
        <time>2023-07-02T09:47:37Z</time>
      </trkpt>
      <trkpt lat="43.65307" lon="1.38715">
        <ele>136</ele>
        <time>2023-07-02T09:47:38Z</time>
      </trkpt>
      <trkpt lat="43.65306" lon="1.38711">
        <ele>135</ele>
        <time>2023-07-02T09:47:39Z</time>
      </trkpt>
      <trkpt lat="43.65304" lon="1.38708">
        <ele>135</ele>
        <time>2023-07-02T09:47:40Z</time>
      </trkpt>
      <trkpt lat="43.65303" lon="1.38704">
        <ele>135</ele>
        <time>2023-07-02T09:47:41Z</time>
      </trkpt>
      <trkpt lat="43.65301" lon="1.387">
        <ele>135</ele>
        <time>2023-07-02T09:47:42Z</time>
      </trkpt>
      <trkpt lat="43.653" lon="1.38696">
        <ele>135</ele>
        <time>2023-07-02T09:47:43Z</time>
      </trkpt>
      <trkpt lat="43.65297" lon="1.38689">
        <ele>135</ele>
        <time>2023-07-02T09:47:44Z</time>
      </trkpt>
      <trkpt lat="43.65297" lon="1.38689">
        <ele>135</ele>
        <time>2023-07-02T09:47:45Z</time>
      </trkpt>
      <trkpt lat="43.65294" lon="1.38682">
        <ele>136</ele>
        <time>2023-07-02T09:47:46Z</time>
      </trkpt>
      <trkpt lat="43.65293" lon="1.38677">
        <ele>136</ele>
        <time>2023-07-02T09:47:48Z</time>
      </trkpt>
      <trkpt lat="43.6529" lon="1.38671">
        <ele>136</ele>
        <time>2023-07-02T09:47:49Z</time>
      </trkpt>
      <trkpt lat="43.65287" lon="1.38664">
        <ele>136</ele>
        <time>2023-07-02T09:47:51Z</time>
      </trkpt>
      <trkpt lat="43.65285" lon="1.3866">
        <ele>136</ele>
        <time>2023-07-02T09:47:52Z</time>
      </trkpt>
      <trkpt lat="43.65285" lon="1.3866">
        <ele>136</ele>
        <time>2023-07-02T09:47:53Z</time>
      </trkpt>
      <trkpt lat="43.65284" lon="1.38657">
        <ele>136</ele>
        <time>2023-07-02T09:47:54Z</time>
      </trkpt>
      <trkpt lat="43.65283" lon="1.38654">
        <ele>136</ele>
        <time>2023-07-02T09:47:55Z</time>
      </trkpt>
      <trkpt lat="43.65279" lon="1.38649">
        <ele>136</ele>
        <time>2023-07-02T09:47:56Z</time>
      </trkpt>
      <trkpt lat="43.65279" lon="1.38649">
        <ele>136</ele>
        <time>2023-07-02T09:47:57Z</time>
      </trkpt>
      <trkpt lat="43.65276" lon="1.38643">
        <ele>136</ele>
        <time>2023-07-02T09:47:58Z</time>
      </trkpt>
      <trkpt lat="43.65276" lon="1.38643">
        <ele>136</ele>
        <time>2023-07-02T09:47:59Z</time>
      </trkpt>
      <trkpt lat="43.65273" lon="1.38638">
        <ele>135</ele>
        <time>2023-07-02T09:48:00Z</time>
      </trkpt>
      <trkpt lat="43.65273" lon="1.38638">
        <ele>135</ele>
        <time>2023-07-02T09:48:01Z</time>
      </trkpt>
      <trkpt lat="43.65272" lon="1.38636">
        <ele>135</ele>
        <time>2023-07-02T09:48:02Z</time>
      </trkpt>
      <trkpt lat="43.65269" lon="1.38631">
        <ele>135</ele>
        <time>2023-07-02T09:48:03Z</time>
      </trkpt>
      <trkpt lat="43.65269" lon="1.38631">
        <ele>136</ele>
        <time>2023-07-02T09:48:04Z</time>
      </trkpt>
      <trkpt lat="43.65266" lon="1.38624">
        <ele>136</ele>
        <time>2023-07-02T09:48:05Z</time>
      </trkpt>
      <trkpt lat="43.65264" lon="1.38622">
        <ele>136</ele>
        <time>2023-07-02T09:48:07Z</time>
      </trkpt>
      <trkpt lat="43.6526" lon="1.38616">
        <ele>136</ele>
        <time>2023-07-02T09:48:08Z</time>
      </trkpt>
      <trkpt lat="43.65258" lon="1.38608">
        <ele>136</ele>
        <time>2023-07-02T09:48:10Z</time>
      </trkpt>
      <trkpt lat="43.65258" lon="1.38608">
        <ele>136</ele>
        <time>2023-07-02T09:48:11Z</time>
      </trkpt>
      <trkpt lat="43.65255" lon="1.38599">
        <ele>136</ele>
        <time>2023-07-02T09:48:12Z</time>
      </trkpt>
      <trkpt lat="43.65254" lon="1.38596">
        <ele>136</ele>
        <time>2023-07-02T09:48:13Z</time>
      </trkpt>
      <trkpt lat="43.65254" lon="1.38596">
        <ele>136</ele>
        <time>2023-07-02T09:48:14Z</time>
      </trkpt>
      <trkpt lat="43.65252" lon="1.38589">
        <ele>136</ele>
        <time>2023-07-02T09:48:15Z</time>
      </trkpt>
      <trkpt lat="43.65252" lon="1.38589">
        <ele>136</ele>
        <time>2023-07-02T09:48:16Z</time>
      </trkpt>
      <trkpt lat="43.65251" lon="1.38581">
        <ele>136</ele>
        <time>2023-07-02T09:48:17Z</time>
      </trkpt>
      <trkpt lat="43.65251" lon="1.38581">
        <ele>136</ele>
        <time>2023-07-02T09:48:18Z</time>
      </trkpt>
      <trkpt lat="43.65249" lon="1.38575">
        <ele>137</ele>
        <time>2023-07-02T09:48:19Z</time>
      </trkpt>
      <trkpt lat="43.65248" lon="1.38572">
        <ele>137</ele>
        <time>2023-07-02T09:48:20Z</time>
      </trkpt>
      <trkpt lat="43.65247" lon="1.38568">
        <ele>137</ele>
        <time>2023-07-02T09:48:21Z</time>
      </trkpt>
      <trkpt lat="43.65246" lon="1.38564">
        <ele>137</ele>
        <time>2023-07-02T09:48:22Z</time>
      </trkpt>
      <trkpt lat="43.65246" lon="1.38564">
        <ele>136</ele>
        <time>2023-07-02T09:48:23Z</time>
      </trkpt>
      <trkpt lat="43.65245" lon="1.38558">
        <ele>136</ele>
        <time>2023-07-02T09:48:24Z</time>
      </trkpt>
      <trkpt lat="43.65245" lon="1.38556">
        <ele>136</ele>
        <time>2023-07-02T09:48:25Z</time>
      </trkpt>
      <trkpt lat="43.65242" lon="1.38549">
        <ele>136</ele>
        <time>2023-07-02T09:48:26Z</time>
      </trkpt>
      <trkpt lat="43.65242" lon="1.38549">
        <ele>136</ele>
        <time>2023-07-02T09:48:27Z</time>
      </trkpt>
      <trkpt lat="43.65241" lon="1.38544">
        <ele>136</ele>
        <time>2023-07-02T09:48:28Z</time>
      </trkpt>
      <trkpt lat="43.6524" lon="1.38543">
        <ele>136</ele>
        <time>2023-07-02T09:48:29Z</time>
      </trkpt>
      <trkpt lat="43.6524" lon="1.38539">
        <ele>136</ele>
        <time>2023-07-02T09:48:30Z</time>
      </trkpt>
      <trkpt lat="43.65238" lon="1.38532">
        <ele>136</ele>
        <time>2023-07-02T09:48:31Z</time>
      </trkpt>
      <trkpt lat="43.65237" lon="1.38528">
        <ele>137</ele>
        <time>2023-07-02T09:48:32Z</time>
      </trkpt>
      <trkpt lat="43.65237" lon="1.38528">
        <ele>137</ele>
        <time>2023-07-02T09:48:33Z</time>
      </trkpt>
      <trkpt lat="43.65236" lon="1.38522">
        <ele>137</ele>
        <time>2023-07-02T09:48:34Z</time>
      </trkpt>
      <trkpt lat="43.65236" lon="1.38522">
        <ele>137</ele>
        <time>2023-07-02T09:48:35Z</time>
      </trkpt>
      <trkpt lat="43.65234" lon="1.38516">
        <ele>137</ele>
        <time>2023-07-02T09:48:36Z</time>
      </trkpt>
      <trkpt lat="43.65233" lon="1.38512">
        <ele>137</ele>
        <time>2023-07-02T09:48:37Z</time>
      </trkpt>
      <trkpt lat="43.65232" lon="1.38509">
        <ele>137</ele>
        <time>2023-07-02T09:48:38Z</time>
      </trkpt>
      <trkpt lat="43.65232" lon="1.38509">
        <ele>137</ele>
        <time>2023-07-02T09:48:39Z</time>
      </trkpt>
      <trkpt lat="43.65231" lon="1.38505">
        <ele>137</ele>
        <time>2023-07-02T09:48:40Z</time>
      </trkpt>
      <trkpt lat="43.6523" lon="1.38502">
        <ele>137</ele>
        <time>2023-07-02T09:48:41Z</time>
      </trkpt>
      <trkpt lat="43.65229" lon="1.38498">
        <ele>137</ele>
        <time>2023-07-02T09:48:42Z</time>
      </trkpt>
      <trkpt lat="43.65227" lon="1.38494">
        <ele>137</ele>
        <time>2023-07-02T09:48:43Z</time>
      </trkpt>
      <trkpt lat="43.65227" lon="1.38492">
        <ele>137</ele>
        <time>2023-07-02T09:48:44Z</time>
      </trkpt>
      <trkpt lat="43.65225" lon="1.38487">
        <ele>137</ele>
        <time>2023-07-02T09:48:45Z</time>
      </trkpt>
      <trkpt lat="43.65223" lon="1.38483">
        <ele>137</ele>
        <time>2023-07-02T09:48:46Z</time>
      </trkpt>
      <trkpt lat="43.65222" lon="1.3848">
        <ele>137</ele>
        <time>2023-07-02T09:48:48Z</time>
      </trkpt>
      <trkpt lat="43.6522" lon="1.38474">
        <ele>137</ele>
        <time>2023-07-02T09:48:49Z</time>
      </trkpt>
      <trkpt lat="43.65218" lon="1.3847">
        <ele>137</ele>
        <time>2023-07-02T09:48:50Z</time>
      </trkpt>
      <trkpt lat="43.65217" lon="1.38467">
        <ele>137</ele>
        <time>2023-07-02T09:48:51Z</time>
      </trkpt>
      <trkpt lat="43.65217" lon="1.38467">
        <ele>136</ele>
        <time>2023-07-02T09:48:52Z</time>
      </trkpt>
      <trkpt lat="43.65215" lon="1.38459">
        <ele>136</ele>
        <time>2023-07-02T09:48:53Z</time>
      </trkpt>
      <trkpt lat="43.65215" lon="1.38459">
        <ele>136</ele>
        <time>2023-07-02T09:48:54Z</time>
      </trkpt>
      <trkpt lat="43.65214" lon="1.38451">
        <ele>137</ele>
        <time>2023-07-02T09:48:55Z</time>
      </trkpt>
      <trkpt lat="43.65213" lon="1.38448">
        <ele>138</ele>
        <time>2023-07-02T09:48:56Z</time>
      </trkpt>
      <trkpt lat="43.65212" lon="1.38444">
        <ele>138</ele>
        <time>2023-07-02T09:48:57Z</time>
      </trkpt>
      <trkpt lat="43.65212" lon="1.38444">
        <ele>139</ele>
        <time>2023-07-02T09:48:58Z</time>
      </trkpt>
      <trkpt lat="43.65211" lon="1.3844">
        <ele>139</ele>
        <time>2023-07-02T09:48:59Z</time>
      </trkpt>
      <trkpt lat="43.65208" lon="1.38432">
        <ele>139</ele>
        <time>2023-07-02T09:49:00Z</time>
      </trkpt>
      <trkpt lat="43.65207" lon="1.38429">
        <ele>139</ele>
        <time>2023-07-02T09:49:02Z</time>
      </trkpt>
      <trkpt lat="43.65204" lon="1.38423">
        <ele>138</ele>
        <time>2023-07-02T09:49:03Z</time>
      </trkpt>
      <trkpt lat="43.65204" lon="1.38423">
        <ele>138</ele>
        <time>2023-07-02T09:49:04Z</time>
      </trkpt>
      <trkpt lat="43.65201" lon="1.38416">
        <ele>139</ele>
        <time>2023-07-02T09:49:05Z</time>
      </trkpt>
      <trkpt lat="43.65198" lon="1.3841">
        <ele>139</ele>
        <time>2023-07-02T09:49:07Z</time>
      </trkpt>
      <trkpt lat="43.65196" lon="1.38406">
        <ele>139</ele>
        <time>2023-07-02T09:49:08Z</time>
      </trkpt>
      <trkpt lat="43.65194" lon="1.38404">
        <ele>139</ele>
        <time>2023-07-02T09:49:09Z</time>
      </trkpt>
      <trkpt lat="43.65194" lon="1.38404">
        <ele>139</ele>
        <time>2023-07-02T09:49:10Z</time>
      </trkpt>
      <trkpt lat="43.65193" lon="1.384">
        <ele>139</ele>
        <time>2023-07-02T09:49:11Z</time>
      </trkpt>
      <trkpt lat="43.6519" lon="1.38394">
        <ele>139</ele>
        <time>2023-07-02T09:49:12Z</time>
      </trkpt>
      <trkpt lat="43.6519" lon="1.38394">
        <ele>139</ele>
        <time>2023-07-02T09:49:13Z</time>
      </trkpt>
      <trkpt lat="43.65188" lon="1.38387">
        <ele>139</ele>
        <time>2023-07-02T09:49:14Z</time>
      </trkpt>
      <trkpt lat="43.65188" lon="1.38387">
        <ele>139</ele>
        <time>2023-07-02T09:49:15Z</time>
      </trkpt>
      <trkpt lat="43.65187" lon="1.3838">
        <ele>139</ele>
        <time>2023-07-02T09:49:16Z</time>
      </trkpt>
      <trkpt lat="43.65186" lon="1.38377">
        <ele>139</ele>
        <time>2023-07-02T09:49:17Z</time>
      </trkpt>
      <trkpt lat="43.65186" lon="1.38377">
        <ele>139</ele>
        <time>2023-07-02T09:49:18Z</time>
      </trkpt>
      <trkpt lat="43.65185" lon="1.38371">
        <ele>139</ele>
        <time>2023-07-02T09:49:19Z</time>
      </trkpt>
      <trkpt lat="43.65185" lon="1.38369">
        <ele>141</ele>
        <time>2023-07-02T09:49:20Z</time>
      </trkpt>
      <trkpt lat="43.65184" lon="1.38362">
        <ele>141</ele>
        <time>2023-07-02T09:49:21Z</time>
      </trkpt>
      <trkpt lat="43.65184" lon="1.38357">
        <ele>141</ele>
        <time>2023-07-02T09:49:22Z</time>
      </trkpt>
      <trkpt lat="43.65184" lon="1.38357">
        <ele>140</ele>
        <time>2023-07-02T09:49:23Z</time>
      </trkpt>
      <trkpt lat="43.65183" lon="1.3835">
        <ele>140</ele>
        <time>2023-07-02T09:49:24Z</time>
      </trkpt>
      <trkpt lat="43.65183" lon="1.38346">
        <ele>140</ele>
        <time>2023-07-02T09:49:26Z</time>
      </trkpt>
      <trkpt lat="43.65182" lon="1.38338">
        <ele>140</ele>
        <time>2023-07-02T09:49:27Z</time>
      </trkpt>
      <trkpt lat="43.65182" lon="1.38338">
        <ele>139</ele>
        <time>2023-07-02T09:49:28Z</time>
      </trkpt>
      <trkpt lat="43.65181" lon="1.38331">
        <ele>139</ele>
        <time>2023-07-02T09:49:29Z</time>
      </trkpt>
      <trkpt lat="43.65181" lon="1.38331">
        <ele>140</ele>
        <time>2023-07-02T09:49:30Z</time>
      </trkpt>
      <trkpt lat="43.6518" lon="1.38324">
        <ele>141</ele>
        <time>2023-07-02T09:49:31Z</time>
      </trkpt>
      <trkpt lat="43.6518" lon="1.3832">
        <ele>141</ele>
        <time>2023-07-02T09:49:32Z</time>
      </trkpt>
      <trkpt lat="43.6518" lon="1.3832">
        <ele>140</ele>
        <time>2023-07-02T09:49:33Z</time>
      </trkpt>
      <trkpt lat="43.65179" lon="1.38312">
        <ele>139</ele>
        <time>2023-07-02T09:49:34Z</time>
      </trkpt>
      <trkpt lat="43.65179" lon="1.38312">
        <ele>139</ele>
        <time>2023-07-02T09:49:35Z</time>
      </trkpt>
      <trkpt lat="43.65178" lon="1.38305">
        <ele>139</ele>
        <time>2023-07-02T09:49:36Z</time>
      </trkpt>
      <trkpt lat="43.65178" lon="1.38301">
        <ele>140</ele>
        <time>2023-07-02T09:49:38Z</time>
      </trkpt>
      <trkpt lat="43.65177" lon="1.38294">
        <ele>140</ele>
        <time>2023-07-02T09:49:39Z</time>
      </trkpt>
      <trkpt lat="43.65177" lon="1.38294">
        <ele>140</ele>
        <time>2023-07-02T09:49:40Z</time>
      </trkpt>
      <trkpt lat="43.65175" lon="1.38287">
        <ele>140</ele>
        <time>2023-07-02T09:49:41Z</time>
      </trkpt>
      <trkpt lat="43.65174" lon="1.38284">
        <ele>139</ele>
        <time>2023-07-02T09:49:42Z</time>
      </trkpt>
      <trkpt lat="43.65173" lon="1.38281">
        <ele>139</ele>
        <time>2023-07-02T09:49:43Z</time>
      </trkpt>
      <trkpt lat="43.65172" lon="1.38277">
        <ele>140</ele>
        <time>2023-07-02T09:49:45Z</time>
      </trkpt>
      <trkpt lat="43.6517" lon="1.3827">
        <ele>140</ele>
        <time>2023-07-02T09:49:46Z</time>
      </trkpt>
      <trkpt lat="43.6517" lon="1.3827">
        <ele>140</ele>
        <time>2023-07-02T09:49:47Z</time>
      </trkpt>
      <trkpt lat="43.65169" lon="1.38263">
        <ele>140</ele>
        <time>2023-07-02T09:49:48Z</time>
      </trkpt>
      <trkpt lat="43.65168" lon="1.38259">
        <ele>140</ele>
        <time>2023-07-02T09:49:49Z</time>
      </trkpt>
      <trkpt lat="43.65168" lon="1.38259">
        <ele>140</ele>
        <time>2023-07-02T09:49:50Z</time>
      </trkpt>
      <trkpt lat="43.65166" lon="1.38252">
        <ele>140</ele>
        <time>2023-07-02T09:49:51Z</time>
      </trkpt>
      <trkpt lat="43.65166" lon="1.38252">
        <ele>140</ele>
        <time>2023-07-02T09:49:52Z</time>
      </trkpt>
      <trkpt lat="43.65164" lon="1.38245">
        <ele>140</ele>
        <time>2023-07-02T09:49:53Z</time>
      </trkpt>
      <trkpt lat="43.65164" lon="1.38241">
        <ele>141</ele>
        <time>2023-07-02T09:49:54Z</time>
      </trkpt>
      <trkpt lat="43.65163" lon="1.38238">
        <ele>141</ele>
        <time>2023-07-02T09:49:55Z</time>
      </trkpt>
      <trkpt lat="43.65163" lon="1.38234">
        <ele>141</ele>
        <time>2023-07-02T09:49:57Z</time>
      </trkpt>
      <trkpt lat="43.65162" lon="1.38226">
        <ele>141</ele>
        <time>2023-07-02T09:49:58Z</time>
      </trkpt>
      <trkpt lat="43.65162" lon="1.38222">
        <ele>141</ele>
        <time>2023-07-02T09:49:59Z</time>
      </trkpt>
      <trkpt lat="43.65162" lon="1.38222">
        <ele>141</ele>
        <time>2023-07-02T09:50:00Z</time>
      </trkpt>
      <trkpt lat="43.65162" lon="1.38218">
        <ele>141</ele>
        <time>2023-07-02T09:50:01Z</time>
      </trkpt>
      <trkpt lat="43.65162" lon="1.38214">
        <ele>141</ele>
        <time>2023-07-02T09:50:02Z</time>
      </trkpt>
      <trkpt lat="43.65162" lon="1.38209">
        <ele>141</ele>
        <time>2023-07-02T09:50:03Z</time>
      </trkpt>
      <trkpt lat="43.65162" lon="1.38207">
        <ele>141</ele>
        <time>2023-07-02T09:50:04Z</time>
      </trkpt>
      <trkpt lat="43.65163" lon="1.38199">
        <ele>141</ele>
        <time>2023-07-02T09:50:05Z</time>
      </trkpt>
      <trkpt lat="43.65163" lon="1.38199">
        <ele>141</ele>
        <time>2023-07-02T09:50:06Z</time>
      </trkpt>
      <trkpt lat="43.65164" lon="1.38196">
        <ele>141</ele>
        <time>2023-07-02T09:50:07Z</time>
      </trkpt>
      <trkpt lat="43.65168" lon="1.3819">
        <ele>141</ele>
        <time>2023-07-02T09:50:08Z</time>
      </trkpt>
      <trkpt lat="43.65168" lon="1.3819">
        <ele>141</ele>
        <time>2023-07-02T09:50:09Z</time>
      </trkpt>
      <trkpt lat="43.65172" lon="1.38185">
        <ele>141</ele>
        <time>2023-07-02T09:50:10Z</time>
      </trkpt>
      <trkpt lat="43.65174" lon="1.38183">
        <ele>142</ele>
        <time>2023-07-02T09:50:11Z</time>
      </trkpt>
      <trkpt lat="43.65177" lon="1.3818">
        <ele>142</ele>
        <time>2023-07-02T09:50:12Z</time>
      </trkpt>
      <trkpt lat="43.65179" lon="1.38178">
        <ele>142</ele>
        <time>2023-07-02T09:50:14Z</time>
      </trkpt>
      <trkpt lat="43.65183" lon="1.38173">
        <ele>142</ele>
        <time>2023-07-02T09:50:15Z</time>
      </trkpt>
      <trkpt lat="43.65185" lon="1.38171">
        <ele>142</ele>
        <time>2023-07-02T09:50:16Z</time>
      </trkpt>
      <trkpt lat="43.65187" lon="1.38169">
        <ele>142</ele>
        <time>2023-07-02T09:50:17Z</time>
      </trkpt>
      <trkpt lat="43.65187" lon="1.38169">
        <ele>142</ele>
        <time>2023-07-02T09:50:18Z</time>
      </trkpt>
      <trkpt lat="43.65189" lon="1.38167">
        <ele>142</ele>
        <time>2023-07-02T09:50:19Z</time>
      </trkpt>
      <trkpt lat="43.65191" lon="1.38165">
        <ele>143</ele>
        <time>2023-07-02T09:50:20Z</time>
      </trkpt>
      <trkpt lat="43.65196" lon="1.38161">
        <ele>143</ele>
        <time>2023-07-02T09:50:21Z</time>
      </trkpt>
      <trkpt lat="43.65198" lon="1.3816">
        <ele>143</ele>
        <time>2023-07-02T09:50:23Z</time>
      </trkpt>
      <trkpt lat="43.65203" lon="1.38155">
        <ele>143</ele>
        <time>2023-07-02T09:50:24Z</time>
      </trkpt>
      <trkpt lat="43.65203" lon="1.38155">
        <ele>143</ele>
        <time>2023-07-02T09:50:25Z</time>
      </trkpt>
      <trkpt lat="43.65208" lon="1.38151">
        <ele>143</ele>
        <time>2023-07-02T09:50:26Z</time>
      </trkpt>
      <trkpt lat="43.6521" lon="1.3815">
        <ele>143</ele>
        <time>2023-07-02T09:50:27Z</time>
      </trkpt>
      <trkpt lat="43.65213" lon="1.38148">
        <ele>143</ele>
        <time>2023-07-02T09:50:28Z</time>
      </trkpt>
      <trkpt lat="43.65215" lon="1.38147">
        <ele>143</ele>
        <time>2023-07-02T09:50:29Z</time>
      </trkpt>
      <trkpt lat="43.65215" lon="1.38147">
        <ele>143</ele>
        <time>2023-07-02T09:50:30Z</time>
      </trkpt>
      <trkpt lat="43.65221" lon="1.38144">
        <ele>143</ele>
        <time>2023-07-02T09:50:31Z</time>
      </trkpt>
      <trkpt lat="43.65223" lon="1.38142">
        <ele>143</ele>
        <time>2023-07-02T09:50:33Z</time>
      </trkpt>
      <trkpt lat="43.65227" lon="1.38138">
        <ele>143</ele>
        <time>2023-07-02T09:50:34Z</time>
      </trkpt>
      <trkpt lat="43.65227" lon="1.38138">
        <ele>143</ele>
        <time>2023-07-02T09:50:35Z</time>
      </trkpt>
      <trkpt lat="43.65232" lon="1.38135">
        <ele>144</ele>
        <time>2023-07-02T09:50:36Z</time>
      </trkpt>
      <trkpt lat="43.65232" lon="1.38135">
        <ele>144</ele>
        <time>2023-07-02T09:50:37Z</time>
      </trkpt>
      <trkpt lat="43.65236" lon="1.38133">
        <ele>144</ele>
        <time>2023-07-02T09:50:38Z</time>
      </trkpt>
      <trkpt lat="43.65237" lon="1.38133">
        <ele>144</ele>
        <time>2023-07-02T09:50:39Z</time>
      </trkpt>
      <trkpt lat="43.65242" lon="1.38129">
        <ele>144</ele>
        <time>2023-07-02T09:50:40Z</time>
      </trkpt>
      <trkpt lat="43.65245" lon="1.38123">
        <ele>144</ele>
        <time>2023-07-02T09:50:42Z</time>
      </trkpt>
      <trkpt lat="43.65244" lon="1.3812">
        <ele>144</ele>
        <time>2023-07-02T09:50:43Z</time>
      </trkpt>
      <trkpt lat="43.65244" lon="1.3812">
        <ele>143</ele>
        <time>2023-07-02T09:50:44Z</time>
      </trkpt>
      <trkpt lat="43.65244" lon="1.38116">
        <ele>143</ele>
        <time>2023-07-02T09:50:45Z</time>
      </trkpt>
      <trkpt lat="43.65243" lon="1.38113">
        <ele>143</ele>
        <time>2023-07-02T09:50:46Z</time>
      </trkpt>
      <trkpt lat="43.65241" lon="1.38107">
        <ele>143</ele>
        <time>2023-07-02T09:50:47Z</time>
      </trkpt>
      <trkpt lat="43.65241" lon="1.38107">
        <ele>144</ele>
        <time>2023-07-02T09:50:48Z</time>
      </trkpt>
      <trkpt lat="43.65239" lon="1.38101">
        <ele>144</ele>
        <time>2023-07-02T09:50:49Z</time>
      </trkpt>
      <trkpt lat="43.65238" lon="1.38097">
        <ele>145</ele>
        <time>2023-07-02T09:50:50Z</time>
      </trkpt>
      <trkpt lat="43.65236" lon="1.38091">
        <ele>147</ele>
        <time>2023-07-02T09:50:52Z</time>
      </trkpt>
      <trkpt lat="43.65236" lon="1.38091">
        <ele>147</ele>
        <time>2023-07-02T09:50:53Z</time>
      </trkpt>
      <trkpt lat="43.65234" lon="1.38085">
        <ele>147</ele>
        <time>2023-07-02T09:50:54Z</time>
      </trkpt>
      <trkpt lat="43.65233" lon="1.38082">
        <ele>147</ele>
        <time>2023-07-02T09:50:55Z</time>
      </trkpt>
      <trkpt lat="43.65233" lon="1.38082">
        <ele>147</ele>
        <time>2023-07-02T09:50:56Z</time>
      </trkpt>
      <trkpt lat="43.65232" lon="1.38078">
        <ele>146</ele>
        <time>2023-07-02T09:50:57Z</time>
      </trkpt>
      <trkpt lat="43.65231" lon="1.38075">
        <ele>146</ele>
        <time>2023-07-02T09:50:58Z</time>
      </trkpt>
      <trkpt lat="43.65229" lon="1.38069">
        <ele>146</ele>
        <time>2023-07-02T09:50:59Z</time>
      </trkpt>
      <trkpt lat="43.65226" lon="1.38062">
        <ele>146</ele>
        <time>2023-07-02T09:51:01Z</time>
      </trkpt>
      <trkpt lat="43.65225" lon="1.38058">
        <ele>146</ele>
        <time>2023-07-02T09:51:02Z</time>
      </trkpt>
      <trkpt lat="43.65224" lon="1.38055">
        <ele>146</ele>
        <time>2023-07-02T09:51:03Z</time>
      </trkpt>
      <trkpt lat="43.65224" lon="1.38055">
        <ele>146</ele>
        <time>2023-07-02T09:51:04Z</time>
      </trkpt>
      <trkpt lat="43.65223" lon="1.38052">
        <ele>145</ele>
        <time>2023-07-02T09:51:05Z</time>
      </trkpt>
      <trkpt lat="43.65221" lon="1.38045">
        <ele>145</ele>
        <time>2023-07-02T09:51:06Z</time>
      </trkpt>
      <trkpt lat="43.65221" lon="1.38045">
        <ele>145</ele>
        <time>2023-07-02T09:51:07Z</time>
      </trkpt>
      <trkpt lat="43.65219" lon="1.38038">
        <ele>145</ele>
        <time>2023-07-02T09:51:08Z</time>
      </trkpt>
      <trkpt lat="43.65217" lon="1.38036">
        <ele>146</ele>
        <time>2023-07-02T09:51:09Z</time>
      </trkpt>
      <trkpt lat="43.65215" lon="1.38032">
        <ele>146</ele>
        <time>2023-07-02T09:51:11Z</time>
      </trkpt>
      <trkpt lat="43.65209" lon="1.38028">
        <ele>146</ele>
        <time>2023-07-02T09:51:12Z</time>
      </trkpt>
      <trkpt lat="43.65209" lon="1.38028">
        <ele>146</ele>
        <time>2023-07-02T09:51:13Z</time>
      </trkpt>
      <trkpt lat="43.65204" lon="1.3803">
        <ele>145</ele>
        <time>2023-07-02T09:51:14Z</time>
      </trkpt>
      <trkpt lat="43.65202" lon="1.38031">
        <ele>145</ele>
        <time>2023-07-02T09:51:15Z</time>
      </trkpt>
      <trkpt lat="43.65199" lon="1.38034">
        <ele>145</ele>
        <time>2023-07-02T09:51:16Z</time>
      </trkpt>
      <trkpt lat="43.65199" lon="1.38034">
        <ele>145</ele>
        <time>2023-07-02T09:51:17Z</time>
      </trkpt>
      <trkpt lat="43.65197" lon="1.38036">
        <ele>145</ele>
        <time>2023-07-02T09:51:18Z</time>
      </trkpt>
      <trkpt lat="43.65194" lon="1.38039">
        <ele>145</ele>
        <time>2023-07-02T09:51:19Z</time>
      </trkpt>
      <trkpt lat="43.65193" lon="1.3804">
        <ele>145</ele>
        <time>2023-07-02T09:51:20Z</time>
      </trkpt>
      <trkpt lat="43.65187" lon="1.38044">
        <ele>145</ele>
        <time>2023-07-02T09:51:21Z</time>
      </trkpt>
      <trkpt lat="43.65187" lon="1.38044">
        <ele>145</ele>
        <time>2023-07-02T09:51:22Z</time>
      </trkpt>
      <trkpt lat="43.65181" lon="1.38046">
        <ele>145</ele>
        <time>2023-07-02T09:51:23Z</time>
      </trkpt>
      <trkpt lat="43.65179" lon="1.38047">
        <ele>145</ele>
        <time>2023-07-02T09:51:24Z</time>
      </trkpt>
      <trkpt lat="43.65176" lon="1.38048">
        <ele>146</ele>
        <time>2023-07-02T09:51:25Z</time>
      </trkpt>
      <trkpt lat="43.65176" lon="1.38048">
        <ele>146</ele>
        <time>2023-07-02T09:51:26Z</time>
      </trkpt>
      <trkpt lat="43.65174" lon="1.3805">
        <ele>146</ele>
        <time>2023-07-02T09:51:27Z</time>
      </trkpt>
      <trkpt lat="43.6517" lon="1.38053">
        <ele>146</ele>
        <time>2023-07-02T09:51:28Z</time>
      </trkpt>
      <trkpt lat="43.65167" lon="1.38055">
        <ele>146</ele>
        <time>2023-07-02T09:51:29Z</time>
      </trkpt>
      <trkpt lat="43.65167" lon="1.38055">
        <ele>146</ele>
        <time>2023-07-02T09:51:30Z</time>
      </trkpt>
      <trkpt lat="43.65165" lon="1.38057">
        <ele>146</ele>
        <time>2023-07-02T09:51:31Z</time>
      </trkpt>
      <trkpt lat="43.65163" lon="1.38059">
        <ele>146</ele>
        <time>2023-07-02T09:51:32Z</time>
      </trkpt>
      <trkpt lat="43.65157" lon="1.38063">
        <ele>146</ele>
        <time>2023-07-02T09:51:33Z</time>
      </trkpt>
      <trkpt lat="43.65157" lon="1.38063">
        <ele>146</ele>
        <time>2023-07-02T09:51:34Z</time>
      </trkpt>
      <trkpt lat="43.65153" lon="1.38066">
        <ele>146</ele>
        <time>2023-07-02T09:51:35Z</time>
      </trkpt>
      <trkpt lat="43.65151" lon="1.38068">
        <ele>146</ele>
        <time>2023-07-02T09:51:36Z</time>
      </trkpt>
      <trkpt lat="43.65151" lon="1.38068">
        <ele>146</ele>
        <time>2023-07-02T09:51:37Z</time>
      </trkpt>
      <trkpt lat="43.65147" lon="1.3807">
        <ele>146</ele>
        <time>2023-07-02T09:51:38Z</time>
      </trkpt>
      <trkpt lat="43.65146" lon="1.38071">
        <ele>145</ele>
        <time>2023-07-02T09:51:39Z</time>
      </trkpt>
      <trkpt lat="43.65142" lon="1.38074">
        <ele>145</ele>
        <time>2023-07-02T09:51:40Z</time>
      </trkpt>
      <trkpt lat="43.65142" lon="1.38074">
        <ele>145</ele>
        <time>2023-07-02T09:51:41Z</time>
      </trkpt>
      <trkpt lat="43.65137" lon="1.38077">
        <ele>145</ele>
        <time>2023-07-02T09:51:42Z</time>
      </trkpt>
      <trkpt lat="43.65137" lon="1.38077">
        <ele>145</ele>
        <time>2023-07-02T09:51:43Z</time>
      </trkpt>
      <trkpt lat="43.65133" lon="1.3808">
        <ele>146</ele>
        <time>2023-07-02T09:51:44Z</time>
      </trkpt>
      <trkpt lat="43.65131" lon="1.38081">
        <ele>146</ele>
        <time>2023-07-02T09:51:45Z</time>
      </trkpt>
      <trkpt lat="43.65128" lon="1.38083">
        <ele>146</ele>
        <time>2023-07-02T09:51:46Z</time>
      </trkpt>
      <trkpt lat="43.65126" lon="1.38084">
        <ele>146</ele>
        <time>2023-07-02T09:51:48Z</time>
      </trkpt>
      <trkpt lat="43.65122" lon="1.38087">
        <ele>147</ele>
        <time>2023-07-02T09:51:49Z</time>
      </trkpt>
      <trkpt lat="43.6512" lon="1.38089">
        <ele>147</ele>
        <time>2023-07-02T09:51:50Z</time>
      </trkpt>
      <trkpt lat="43.65117" lon="1.3809">
        <ele>147</ele>
        <time>2023-07-02T09:51:51Z</time>
      </trkpt>
      <trkpt lat="43.65115" lon="1.38092">
        <ele>147</ele>
        <time>2023-07-02T09:51:52Z</time>
      </trkpt>
      <trkpt lat="43.65115" lon="1.38092">
        <ele>146</ele>
        <time>2023-07-02T09:51:53Z</time>
      </trkpt>
      <trkpt lat="43.65111" lon="1.38095">
        <ele>146</ele>
        <time>2023-07-02T09:51:54Z</time>
      </trkpt>
      <trkpt lat="43.65111" lon="1.38095">
        <ele>146</ele>
        <time>2023-07-02T09:51:55Z</time>
      </trkpt>
      <trkpt lat="43.65107" lon="1.38099">
        <ele>146</ele>
        <time>2023-07-02T09:51:56Z</time>
      </trkpt>
      <trkpt lat="43.65102" lon="1.38101">
        <ele>146</ele>
        <time>2023-07-02T09:51:58Z</time>
      </trkpt>
      <trkpt lat="43.65102" lon="1.38101">
        <ele>146</ele>
        <time>2023-07-02T09:51:59Z</time>
      </trkpt>
      <trkpt lat="43.651" lon="1.38103">
        <ele>146</ele>
        <time>2023-07-02T09:52:00Z</time>
      </trkpt>
      <trkpt lat="43.65095" lon="1.38106">
        <ele>146</ele>
        <time>2023-07-02T09:52:01Z</time>
      </trkpt>
      <trkpt lat="43.65093" lon="1.38108">
        <ele>146</ele>
        <time>2023-07-02T09:52:02Z</time>
      </trkpt>
      <trkpt lat="43.65091" lon="1.3811">
        <ele>146</ele>
        <time>2023-07-02T09:52:03Z</time>
      </trkpt>
      <trkpt lat="43.65091" lon="1.3811">
        <ele>146</ele>
        <time>2023-07-02T09:52:04Z</time>
      </trkpt>
      <trkpt lat="43.65086" lon="1.38113">
        <ele>146</ele>
        <time>2023-07-02T09:52:05Z</time>
      </trkpt>
      <trkpt lat="43.65084" lon="1.38114">
        <ele>146</ele>
        <time>2023-07-02T09:52:06Z</time>
      </trkpt>
      <trkpt lat="43.65082" lon="1.38116">
        <ele>146</ele>
        <time>2023-07-02T09:52:08Z</time>
      </trkpt>
      <trkpt lat="43.65077" lon="1.3812">
        <ele>146</ele>
        <time>2023-07-02T09:52:09Z</time>
      </trkpt>
      <trkpt lat="43.65077" lon="1.3812">
        <ele>146</ele>
        <time>2023-07-02T09:52:10Z</time>
      </trkpt>
      <trkpt lat="43.65072" lon="1.38123">
        <ele>145</ele>
        <time>2023-07-02T09:52:11Z</time>
      </trkpt>
      <trkpt lat="43.65072" lon="1.38123">
        <ele>145</ele>
        <time>2023-07-02T09:52:12Z</time>
      </trkpt>
      <trkpt lat="43.65067" lon="1.38121">
        <ele>145</ele>
        <time>2023-07-02T09:52:13Z</time>
      </trkpt>
      <trkpt lat="43.65065" lon="1.38118">
        <ele>144</ele>
        <time>2023-07-02T09:52:14Z</time>
      </trkpt>
      <trkpt lat="43.65065" lon="1.38118">
        <ele>144</ele>
        <time>2023-07-02T09:52:15Z</time>
      </trkpt>
      <trkpt lat="43.65062" lon="1.38112">
        <ele>144</ele>
        <time>2023-07-02T09:52:16Z</time>
      </trkpt>
      <trkpt lat="43.65061" lon="1.3811">
        <ele>144</ele>
        <time>2023-07-02T09:52:17Z</time>
      </trkpt>
      <trkpt lat="43.65058" lon="1.38102">
        <ele>144</ele>
        <time>2023-07-02T09:52:18Z</time>
      </trkpt>
      <trkpt lat="43.65058" lon="1.38102">
        <ele>143</ele>
        <time>2023-07-02T09:52:19Z</time>
      </trkpt>
      <trkpt lat="43.65054" lon="1.38095">
        <ele>143</ele>
        <time>2023-07-02T09:52:20Z</time>
      </trkpt>
      <trkpt lat="43.65052" lon="1.38092">
        <ele>143</ele>
        <time>2023-07-02T09:52:21Z</time>
      </trkpt>
      <trkpt lat="43.6505" lon="1.38088">
        <ele>144</ele>
        <time>2023-07-02T09:52:22Z</time>
      </trkpt>
      <trkpt lat="43.65048" lon="1.38085">
        <ele>144</ele>
        <time>2023-07-02T09:52:23Z</time>
      </trkpt>
      <trkpt lat="43.65046" lon="1.38081">
        <ele>143</ele>
        <time>2023-07-02T09:52:25Z</time>
      </trkpt>
      <trkpt lat="43.65043" lon="1.38075">
        <ele>143</ele>
        <time>2023-07-02T09:52:26Z</time>
      </trkpt>
      <trkpt lat="43.65043" lon="1.38075">
        <ele>143</ele>
        <time>2023-07-02T09:52:27Z</time>
      </trkpt>
      <trkpt lat="43.65039" lon="1.38068">
        <ele>143</ele>
        <time>2023-07-02T09:52:28Z</time>
      </trkpt>
      <trkpt lat="43.65039" lon="1.38068">
        <ele>143</ele>
        <time>2023-07-02T09:52:29Z</time>
      </trkpt>
      <trkpt lat="43.65036" lon="1.38062">
        <ele>143</ele>
        <time>2023-07-02T09:52:30Z</time>
      </trkpt>
      <trkpt lat="43.65034" lon="1.38059">
        <ele>143</ele>
        <time>2023-07-02T09:52:31Z</time>
      </trkpt>
      <trkpt lat="43.65034" lon="1.38059">
        <ele>143</ele>
        <time>2023-07-02T09:52:32Z</time>
      </trkpt>
      <trkpt lat="43.65031" lon="1.38053">
        <ele>143</ele>
        <time>2023-07-02T09:52:33Z</time>
      </trkpt>
      <trkpt lat="43.65031" lon="1.38053">
        <ele>143</ele>
        <time>2023-07-02T09:52:34Z</time>
      </trkpt>
      <trkpt lat="43.65028" lon="1.38048">
        <ele>143</ele>
        <time>2023-07-02T09:52:35Z</time>
      </trkpt>
      <trkpt lat="43.65027" lon="1.38047">
        <ele>143</ele>
        <time>2023-07-02T09:52:36Z</time>
      </trkpt>
      <trkpt lat="43.65023" lon="1.38041">
        <ele>143</ele>
        <time>2023-07-02T09:52:37Z</time>
      </trkpt>
      <trkpt lat="43.65023" lon="1.38041">
        <ele>143</ele>
        <time>2023-07-02T09:52:38Z</time>
      </trkpt>
      <trkpt lat="43.65019" lon="1.38035">
        <ele>143</ele>
        <time>2023-07-02T09:52:39Z</time>
      </trkpt>
      <trkpt lat="43.65019" lon="1.38035">
        <ele>143</ele>
        <time>2023-07-02T09:52:40Z</time>
      </trkpt>
      <trkpt lat="43.65017" lon="1.38031">
        <ele>143</ele>
        <time>2023-07-02T09:52:41Z</time>
      </trkpt>
      <trkpt lat="43.65016" lon="1.38029">
        <ele>143</ele>
        <time>2023-07-02T09:52:42Z</time>
      </trkpt>
      <trkpt lat="43.65012" lon="1.38024">
        <ele>143</ele>
        <time>2023-07-02T09:52:43Z</time>
      </trkpt>
      <trkpt lat="43.65012" lon="1.38024">
        <ele>143</ele>
        <time>2023-07-02T09:52:44Z</time>
      </trkpt>
      <trkpt lat="43.65009" lon="1.38018">
        <ele>143</ele>
        <time>2023-07-02T09:52:45Z</time>
      </trkpt>
      <trkpt lat="43.65007" lon="1.38015">
        <ele>143</ele>
        <time>2023-07-02T09:52:46Z</time>
      </trkpt>
      <trkpt lat="43.65005" lon="1.38012">
        <ele>143</ele>
        <time>2023-07-02T09:52:47Z</time>
      </trkpt>
      <trkpt lat="43.65003" lon="1.38009">
        <ele>143</ele>
        <time>2023-07-02T09:52:48Z</time>
      </trkpt>
      <trkpt lat="43.65003" lon="1.38009">
        <ele>142</ele>
        <time>2023-07-02T09:52:49Z</time>
      </trkpt>
      <trkpt lat="43.65" lon="1.38004">
        <ele>143</ele>
        <time>2023-07-02T09:52:50Z</time>
      </trkpt>
      <trkpt lat="43.65" lon="1.38004">
        <ele>143</ele>
        <time>2023-07-02T09:52:51Z</time>
      </trkpt>
      <trkpt lat="43.64996" lon="1.37998">
        <ele>143</ele>
        <time>2023-07-02T09:52:52Z</time>
      </trkpt>
      <trkpt lat="43.64994" lon="1.37995">
        <ele>143</ele>
        <time>2023-07-02T09:52:53Z</time>
      </trkpt>
      <trkpt lat="43.64992" lon="1.37993">
        <ele>143</ele>
        <time>2023-07-02T09:52:55Z</time>
      </trkpt>
      <trkpt lat="43.64989" lon="1.37987">
        <ele>144</ele>
        <time>2023-07-02T09:52:56Z</time>
      </trkpt>
      <trkpt lat="43.64989" lon="1.37987">
        <ele>144</ele>
        <time>2023-07-02T09:52:57Z</time>
      </trkpt>
      <trkpt lat="43.64985" lon="1.37981">
        <ele>144</ele>
        <time>2023-07-02T09:52:58Z</time>
      </trkpt>
      <trkpt lat="43.64983" lon="1.37979">
        <ele>143</ele>
        <time>2023-07-02T09:53:00Z</time>
      </trkpt>
      <trkpt lat="43.6498" lon="1.37973">
        <ele>143</ele>
        <time>2023-07-02T09:53:01Z</time>
      </trkpt>
      <trkpt lat="43.6498" lon="1.37973">
        <ele>143</ele>
        <time>2023-07-02T09:53:02Z</time>
      </trkpt>
      <trkpt lat="43.64976" lon="1.37967">
        <ele>143</ele>
        <time>2023-07-02T09:53:03Z</time>
      </trkpt>
      <trkpt lat="43.64976" lon="1.37967">
        <ele>143</ele>
        <time>2023-07-02T09:53:04Z</time>
      </trkpt>
      <trkpt lat="43.64973" lon="1.37961">
        <ele>143</ele>
        <time>2023-07-02T09:53:05Z</time>
      </trkpt>
      <trkpt lat="43.64973" lon="1.37961">
        <ele>143</ele>
        <time>2023-07-02T09:53:06Z</time>
      </trkpt>
      <trkpt lat="43.64971" lon="1.37958">
        <ele>144</ele>
        <time>2023-07-02T09:53:07Z</time>
      </trkpt>
      <trkpt lat="43.64967" lon="1.37952">
        <ele>144</ele>
        <time>2023-07-02T09:53:08Z</time>
      </trkpt>
      <trkpt lat="43.64965" lon="1.37949">
        <ele>144</ele>
        <time>2023-07-02T09:53:09Z</time>
      </trkpt>
      <trkpt lat="43.64963" lon="1.37946">
        <ele>144</ele>
        <time>2023-07-02T09:53:10Z</time>
      </trkpt>
      <trkpt lat="43.64962" lon="1.37943">
        <ele>144</ele>
        <time>2023-07-02T09:53:11Z</time>
      </trkpt>
      <trkpt lat="43.6496" lon="1.3794">
        <ele>144</ele>
        <time>2023-07-02T09:53:12Z</time>
      </trkpt>
      <trkpt lat="43.64958" lon="1.37938">
        <ele>145</ele>
        <time>2023-07-02T09:53:14Z</time>
      </trkpt>
      <trkpt lat="43.64955" lon="1.37932">
        <ele>145</ele>
        <time>2023-07-02T09:53:15Z</time>
      </trkpt>
      <trkpt lat="43.64955" lon="1.37932">
        <ele>145</ele>
        <time>2023-07-02T09:53:16Z</time>
      </trkpt>
      <trkpt lat="43.64953" lon="1.37929">
        <ele>145</ele>
        <time>2023-07-02T09:53:17Z</time>
      </trkpt>
      <trkpt lat="43.64951" lon="1.37924">
        <ele>145</ele>
        <time>2023-07-02T09:53:18Z</time>
      </trkpt>
      <trkpt lat="43.64951" lon="1.37923">
        <ele>144</ele>
        <time>2023-07-02T09:53:19Z</time>
      </trkpt>
      <trkpt lat="43.64949" lon="1.37916">
        <ele>145</ele>
        <time>2023-07-02T09:53:20Z</time>
      </trkpt>
      <trkpt lat="43.64949" lon="1.37916">
        <ele>145</ele>
        <time>2023-07-02T09:53:21Z</time>
      </trkpt>
      <trkpt lat="43.64947" lon="1.37908">
        <ele>145</ele>
        <time>2023-07-02T09:53:22Z</time>
      </trkpt>
      <trkpt lat="43.64946" lon="1.37904">
        <ele>145</ele>
        <time>2023-07-02T09:53:23Z</time>
      </trkpt>
      <trkpt lat="43.64945" lon="1.379">
        <ele>146</ele>
        <time>2023-07-02T09:53:24Z</time>
      </trkpt>
      <trkpt lat="43.64944" lon="1.37897">
        <ele>146</ele>
        <time>2023-07-02T09:53:25Z</time>
      </trkpt>
      <trkpt lat="43.64944" lon="1.37897">
        <ele>146</ele>
        <time>2023-07-02T09:53:26Z</time>
      </trkpt>
      <trkpt lat="43.64942" lon="1.37888">
        <ele>146</ele>
        <time>2023-07-02T09:53:27Z</time>
      </trkpt>
      <trkpt lat="43.64942" lon="1.37888">
        <ele>146</ele>
        <time>2023-07-02T09:53:28Z</time>
      </trkpt>
      <trkpt lat="43.6494" lon="1.37881">
        <ele>146</ele>
        <time>2023-07-02T09:53:29Z</time>
      </trkpt>
      <trkpt lat="43.6494" lon="1.37881">
        <ele>146</ele>
        <time>2023-07-02T09:53:30Z</time>
      </trkpt>
      <trkpt lat="43.64935" lon="1.37878">
        <ele>146</ele>
        <time>2023-07-02T09:53:31Z</time>
      </trkpt>
      <trkpt lat="43.64933" lon="1.37875">
        <ele>146</ele>
        <time>2023-07-02T09:53:33Z</time>
      </trkpt>
      <trkpt lat="43.64931" lon="1.3787">
        <ele>146</ele>
        <time>2023-07-02T09:53:34Z</time>
      </trkpt>
      <trkpt lat="43.64931" lon="1.37867">
        <ele>146</ele>
        <time>2023-07-02T09:53:36Z</time>
      </trkpt>
      <trkpt lat="43.64929" lon="1.3786">
        <ele>146</ele>
        <time>2023-07-02T09:53:37Z</time>
      </trkpt>
      <trkpt lat="43.64929" lon="1.3786">
        <ele>147</ele>
        <time>2023-07-02T09:53:38Z</time>
      </trkpt>
      <trkpt lat="43.64928" lon="1.37853">
        <ele>147</ele>
        <time>2023-07-02T09:53:39Z</time>
      </trkpt>
      <trkpt lat="43.64928" lon="1.37853">
        <ele>147</ele>
        <time>2023-07-02T09:53:40Z</time>
      </trkpt>
      <trkpt lat="43.64925" lon="1.37848">
        <ele>147</ele>
        <time>2023-07-02T09:53:41Z</time>
      </trkpt>
      <trkpt lat="43.64925" lon="1.37848">
        <ele>147</ele>
        <time>2023-07-02T09:53:42Z</time>
      </trkpt>
      <trkpt lat="43.64922" lon="1.37847">
        <ele>147</ele>
        <time>2023-07-02T09:53:43Z</time>
      </trkpt>
      <trkpt lat="43.64916" lon="1.37844">
        <ele>147</ele>
        <time>2023-07-02T09:53:44Z</time>
      </trkpt>
      <trkpt lat="43.64916" lon="1.37844">
        <ele>146</ele>
        <time>2023-07-02T09:53:45Z</time>
      </trkpt>
      <trkpt lat="43.64912" lon="1.37838">
        <ele>146</ele>
        <time>2023-07-02T09:53:46Z</time>
      </trkpt>
      <trkpt lat="43.64912" lon="1.37838">
        <ele>146</ele>
        <time>2023-07-02T09:53:47Z</time>
      </trkpt>
      <trkpt lat="43.64911" lon="1.3783">
        <ele>146</ele>
        <time>2023-07-02T09:53:48Z</time>
      </trkpt>
      <trkpt lat="43.64911" lon="1.37826">
        <ele>146</ele>
        <time>2023-07-02T09:53:49Z</time>
      </trkpt>
      <trkpt lat="43.64911" lon="1.37826">
        <ele>145</ele>
        <time>2023-07-02T09:53:50Z</time>
      </trkpt>
      <trkpt lat="43.6491" lon="1.3782">
        <ele>145</ele>
        <time>2023-07-02T09:53:51Z</time>
      </trkpt>
      <trkpt lat="43.64909" lon="1.37818">
        <ele>145</ele>
        <time>2023-07-02T09:53:52Z</time>
      </trkpt>
      <trkpt lat="43.64908" lon="1.37811">
        <ele>145</ele>
        <time>2023-07-02T09:53:53Z</time>
      </trkpt>
      <trkpt lat="43.64907" lon="1.37808">
        <ele>145</ele>
        <time>2023-07-02T09:53:55Z</time>
      </trkpt>
      <trkpt lat="43.64906" lon="1.37802">
        <ele>145</ele>
        <time>2023-07-02T09:53:56Z</time>
      </trkpt>
      <trkpt lat="43.64906" lon="1.37802">
        <ele>146</ele>
        <time>2023-07-02T09:53:57Z</time>
      </trkpt>
      <trkpt lat="43.64904" lon="1.37795">
        <ele>146</ele>
        <time>2023-07-02T09:53:58Z</time>
      </trkpt>
      <trkpt lat="43.64903" lon="1.37791">
        <ele>146</ele>
        <time>2023-07-02T09:53:59Z</time>
      </trkpt>
      <trkpt lat="43.64903" lon="1.37791">
        <ele>146</ele>
        <time>2023-07-02T09:54:00Z</time>
      </trkpt>
      <trkpt lat="43.64901" lon="1.37784">
        <ele>146</ele>
        <time>2023-07-02T09:54:01Z</time>
      </trkpt>
      <trkpt lat="43.64901" lon="1.37784">
        <ele>146</ele>
        <time>2023-07-02T09:54:02Z</time>
      </trkpt>
      <trkpt lat="43.64899" lon="1.37777">
        <ele>146</ele>
        <time>2023-07-02T09:54:03Z</time>
      </trkpt>
      <trkpt lat="43.64899" lon="1.37777">
        <ele>147</ele>
        <time>2023-07-02T09:54:04Z</time>
      </trkpt>
      <trkpt lat="43.64898" lon="1.3777">
        <ele>147</ele>
        <time>2023-07-02T09:54:05Z</time>
      </trkpt>
      <trkpt lat="43.64897" lon="1.37767">
        <ele>147</ele>
        <time>2023-07-02T09:54:06Z</time>
      </trkpt>
      <trkpt lat="43.64897" lon="1.37767">
        <ele>147</ele>
        <time>2023-07-02T09:54:07Z</time>
      </trkpt>
      <trkpt lat="43.64896" lon="1.3776">
        <ele>147</ele>
        <time>2023-07-02T09:54:08Z</time>
      </trkpt>
      <trkpt lat="43.64896" lon="1.3776">
        <ele>147</ele>
        <time>2023-07-02T09:54:09Z</time>
      </trkpt>
      <trkpt lat="43.64894" lon="1.37755">
        <ele>147</ele>
        <time>2023-07-02T09:54:10Z</time>
      </trkpt>
      <trkpt lat="43.64894" lon="1.37754">
        <ele>147</ele>
        <time>2023-07-02T09:54:11Z</time>
      </trkpt>
      <trkpt lat="43.64892" lon="1.37747">
        <ele>147</ele>
        <time>2023-07-02T09:54:12Z</time>
      </trkpt>
      <trkpt lat="43.64891" lon="1.37743">
        <ele>147</ele>
        <time>2023-07-02T09:54:14Z</time>
      </trkpt>
      <trkpt lat="43.6489" lon="1.37736">
        <ele>146</ele>
        <time>2023-07-02T09:54:15Z</time>
      </trkpt>
      <trkpt lat="43.6489" lon="1.37736">
        <ele>146</ele>
        <time>2023-07-02T09:54:16Z</time>
      </trkpt>
      <trkpt lat="43.64888" lon="1.3773">
        <ele>147</ele>
        <time>2023-07-02T09:54:17Z</time>
      </trkpt>
      <trkpt lat="43.64888" lon="1.3773">
        <ele>147</ele>
        <time>2023-07-02T09:54:18Z</time>
      </trkpt>
      <trkpt lat="43.64886" lon="1.37723">
        <ele>147</ele>
        <time>2023-07-02T09:54:19Z</time>
      </trkpt>
      <trkpt lat="43.64886" lon="1.37719">
        <ele>148</ele>
        <time>2023-07-02T09:54:20Z</time>
      </trkpt>
      <trkpt lat="43.64886" lon="1.37719">
        <ele>148</ele>
        <time>2023-07-02T09:54:21Z</time>
      </trkpt>
      <trkpt lat="43.64884" lon="1.37713">
        <ele>148</ele>
        <time>2023-07-02T09:54:22Z</time>
      </trkpt>
      <trkpt lat="43.64884" lon="1.37713">
        <ele>148</ele>
        <time>2023-07-02T09:54:23Z</time>
      </trkpt>
      <trkpt lat="43.64882" lon="1.37706">
        <ele>147</ele>
        <time>2023-07-02T09:54:24Z</time>
      </trkpt>
      <trkpt lat="43.64882" lon="1.37706">
        <ele>147</ele>
        <time>2023-07-02T09:54:25Z</time>
      </trkpt>
      <trkpt lat="43.6488" lon="1.37698">
        <ele>147</ele>
        <time>2023-07-02T09:54:26Z</time>
      </trkpt>
      <trkpt lat="43.6488" lon="1.37698">
        <ele>147</ele>
        <time>2023-07-02T09:54:27Z</time>
      </trkpt>
      <trkpt lat="43.64879" lon="1.37695">
        <ele>147</ele>
        <time>2023-07-02T09:54:28Z</time>
      </trkpt>
      <trkpt lat="43.64878" lon="1.37689">
        <ele>147</ele>
        <time>2023-07-02T09:54:29Z</time>
      </trkpt>
      <trkpt lat="43.64877" lon="1.37688">
        <ele>147</ele>
        <time>2023-07-02T09:54:30Z</time>
      </trkpt>
      <trkpt lat="43.64876" lon="1.37681">
        <ele>147</ele>
        <time>2023-07-02T09:54:31Z</time>
      </trkpt>
      <trkpt lat="43.64875" lon="1.37678">
        <ele>148</ele>
        <time>2023-07-02T09:54:33Z</time>
      </trkpt>
      <trkpt lat="43.64873" lon="1.37671">
        <ele>149</ele>
        <time>2023-07-02T09:54:34Z</time>
      </trkpt>
      <trkpt lat="43.64872" lon="1.37667">
        <ele>149</ele>
        <time>2023-07-02T09:54:35Z</time>
      </trkpt>
      <trkpt lat="43.6487" lon="1.37664">
        <ele>149</ele>
        <time>2023-07-02T09:54:36Z</time>
      </trkpt>
      <trkpt lat="43.64869" lon="1.3766">
        <ele>149</ele>
        <time>2023-07-02T09:54:37Z</time>
      </trkpt>
      <trkpt lat="43.64869" lon="1.3766">
        <ele>149</ele>
        <time>2023-07-02T09:54:38Z</time>
      </trkpt>
      <trkpt lat="43.64867" lon="1.37657">
        <ele>149</ele>
        <time>2023-07-02T09:54:39Z</time>
      </trkpt>
      <trkpt lat="43.64865" lon="1.37654">
        <ele>149</ele>
        <time>2023-07-02T09:54:40Z</time>
      </trkpt>
      <trkpt lat="43.6486" lon="1.37651">
        <ele>149</ele>
        <time>2023-07-02T09:54:41Z</time>
      </trkpt>
      <trkpt lat="43.64858" lon="1.37649">
        <ele>149</ele>
        <time>2023-07-02T09:54:42Z</time>
      </trkpt>
      <trkpt lat="43.64856" lon="1.37647">
        <ele>148</ele>
        <time>2023-07-02T09:54:43Z</time>
      </trkpt>
      <trkpt lat="43.64854" lon="1.37645">
        <ele>148</ele>
        <time>2023-07-02T09:54:44Z</time>
      </trkpt>
      <trkpt lat="43.64854" lon="1.37645">
        <ele>148</ele>
        <time>2023-07-02T09:54:45Z</time>
      </trkpt>
      <trkpt lat="43.64849" lon="1.37642">
        <ele>148</ele>
        <time>2023-07-02T09:54:46Z</time>
      </trkpt>
      <trkpt lat="43.64849" lon="1.37642">
        <ele>148</ele>
        <time>2023-07-02T09:54:47Z</time>
      </trkpt>
      <trkpt lat="43.64846" lon="1.37639">
        <ele>148</ele>
        <time>2023-07-02T09:54:48Z</time>
      </trkpt>
      <trkpt lat="43.64844" lon="1.37638">
        <ele>148</ele>
        <time>2023-07-02T09:54:49Z</time>
      </trkpt>
      <trkpt lat="43.64843" lon="1.37637">
        <ele>148</ele>
        <time>2023-07-02T09:54:50Z</time>
      </trkpt>
      <trkpt lat="43.64841" lon="1.37636">
        <ele>148</ele>
        <time>2023-07-02T09:54:51Z</time>
      </trkpt>
      <trkpt lat="43.64839" lon="1.37635">
        <ele>148</ele>
        <time>2023-07-02T09:54:52Z</time>
      </trkpt>
      <trkpt lat="43.64838" lon="1.37635">
        <ele>149</ele>
        <time>2023-07-02T09:54:53Z</time>
      </trkpt>
      <trkpt lat="43.64834" lon="1.37633">
        <ele>149</ele>
        <time>2023-07-02T09:54:54Z</time>
      </trkpt>
      <trkpt lat="43.64834" lon="1.37633">
        <ele>149</ele>
        <time>2023-07-02T09:54:55Z</time>
      </trkpt>
      <trkpt lat="43.64832" lon="1.37629">
        <ele>149</ele>
        <time>2023-07-02T09:54:56Z</time>
      </trkpt>
      <trkpt lat="43.64831" lon="1.37627">
        <ele>149</ele>
        <time>2023-07-02T09:54:57Z</time>
      </trkpt>
      <trkpt lat="43.64831" lon="1.37627">
        <ele>149</ele>
        <time>2023-07-02T09:54:58Z</time>
      </trkpt>
      <trkpt lat="43.64829" lon="1.37624">
        <ele>149</ele>
        <time>2023-07-02T09:54:59Z</time>
      </trkpt>
    </trkseg>
  </trk>
</gpx>